GFSSE_sfc_rhum_000.txt.gz
RH
48 45 81 73 78 76 75 73 70 65 62 58 55 57 59 67 65 58 61 52 50 51 54 55 58 61 66 70 67 68 66 68 67 69 72 75 71 68 60 58 61 44 62
40 42 82 78 77 75 75 73 70 66 63 60 53 51 51 51 53 51 55 60 53 49 54 57 56 52 59 64 61 63 62 63 62 64 72 74 73 67 55 56 61 54 65
40 41 63 82 77 76 78 73 70 68 64 60 57 50 50 52 52 55 61 61 55 51 56 60 59 60 64 65 61 60 59 64 61 66 74 45 42 63 58 59 60 69 67
39 40 46 83 78 80 77 75 71 67 64 60 58 53 51 58 51 54 54 57 59 61 60 61 63 59 63 64 65 63 60 59 63 71 46 37 39 54 61 57 60 62 66
41 42 49 86 80 78 77 77 74 70 67 63 58 61 62 65 57 57 54 56 59 58 61 61 61 62 65 64 64 61 60 64 62 64 42 43 48 44 58 61 57 60 65
40 43 70 88 82 82 78 78 74 72 67 66 64 61 62 66 65 61 64 62 59 62 62 62 61 62 64 65 65 66 58 70 69 47 41 44 52 54 59 60 60 61 64
41 44 50 85 81 81 78 75 73 72 68 66 63 63 64 65 71 64 69 66 61 61 63 63 64 64 63 63 63 62 62 67 56 50 45 41 46 57 66 63 61 62 62
44 50 46 78 87 85 80 79 76 74 72 69 63 63 64 70 72 71 69 67 64 64 63 56 66 68 68 68 66 64 67 74 56 54 47 45 52 63 68 66 61 61 61
47 51 48 48 67 90 86 84 82 79 75 73 68 64 69 76 75 73 70 67 69 69 67 66 65 68 69 69 69 69 75 77 54 43 43 45 59 60 66 67 65 65 64
53 52 51 50 50 52 54 85 84 83 80 78 78 80 82 82 80 72 77 73 74 72 72 68 68 65 67 72 70 73 79 80 47 45 42 43 62 68 64 63 66 66 64
54 54 53 50 51 51 52 58 82 85 83 83 78 85 76 46 49 54 73 82 80 76 74 72 71 69 76 81 79 80 83 46 38 38 38 58 62 72 70 66 64 66 66
44 50 52 53 52 54 55 54 53 50 51 48 49 48 42 44 46 60 75 87 84 82 82 78 76 76 78 47 44 72 50 43 43 42 39 63 61 68 67 68 67 65 66
34 40 50 55 54 55 56 52 49 50 49 48 51 50 47 46 46 48 51 53 52 73 52 53 52 47 47 47 46 44 46 47 45 44 48 68 64 70 68 63 66 68 64
38 38 42 48 55 57 54 55 50 50 51 49 50 51 49 48 51 50 49 51 52 49 50 51 49 49 50 48 47 46 46 47 46 45 48 73 69 72 72 68 62 62 66
38 38 40 43 51 56 60 55 54 51 50 48 52 51 50 52 53 52 52 52 52 52 51 51 51 49 49 49 48 48 48 47 46 46 46 72 78 72 76 72 69 65 60
33 35 34 39 43 48 54 57 53 51 49 51 51 53 55 55 56 57 56 54 53 52 51 52 51 52 52 51 52 50 50 48 48 49 48 49 78 78 76 78 73 70 67
31 35 35 37 37 45 51 54 52 52 52 52 52 53 56 56 57 58 58 57 54 53 54 54 54 54 54 52 53 51 50 48 48 47 48 49 51 78 80 76 77 73 70
34 37 40 41 42 45 48 52 48 48 49 50 50 50 53 53 56 58 58 58 56 56 55 55 55 56 55 55 56 56 54 52 49 48 48 46 47 46 62 79 76 76 75
35 39 42 43 44 48 50 50 50 51 49 50 50 52 58 57 59 58 56 51 47 50 49 51 50 53 59 56 58 55 52 53 50 47 48 48 48 49 48 60 80 80 79
37 41 45 48 48 48 50 51 52 54 52 46 42 40 39 35 38 39 36 35 35 37 36 36 38 37 39 41 40 42 47 42 43 44 44 42 46 50 50 52 51 53 82
35 39 45 51 51 47 50 50 48 45 40 38 37 34 32 31 31 34 33 32 33 34 35 34 36 38 36 34 38 39 36 34 33 32 51 38 37 40 45 46 50 56 52
35 35 40 48 52 53 53 46 42 41 40 38 39 36 33 31 31 30 33 33 35 35 36 37 39 42 37 35 41 44 42 37 29 34 33 30 31 31 38 51 53 54 57
39 41 41 44 44 41 39 39 40 42 40 39 37 35 34 30 28 30 31 30 30 32 34 35 35 39 40 35 36 39 48 49 47 37 36 31 32 32 32 36 38 37 39
46 47 43 41 42 41 39 39 39 38 40 38 35 33 30 29 25 24 25 26 27 27 31 31 27 34 38 39 36 31 36 38 50 53 35 36 31 34 34 35 34 35 36
48 49 45 42 41 40 39 36 35 37 36 34 30 28 27 25 24 22 22 25 24 25 28 29 30 33 34 33 35 40 39 39 39 48 54 39 34 29 28 30 31 32 35
51 49 46 42 42 40 39 37 38 37 31 30 28 23 20 18 20 21 22 23 24 26 27 28 29 36 36 30 32 35 40 44 42 38 37 40 38 33 26 30 34 35 36

GFSSE_sfc_rhum_003.txt.gz
RH
40 50 82 76 76 74 74 72 70 64 62 57 53 57 61 68 60 56 60 60 56 52 57 58 58 64 68 68 66 68 66 68 66 65 68 72 71 65 65 59 61 49 60
34 43 80 75 75 74 74 72 69 66 63 59 52 52 51 51 52 51 56 58 53 52 57 61 59 61 64 65 60 58 58 60 60 63 69 76 76 62 57 56 56 58 66
32 39 60 81 78 75 75 72 69 66 62 58 52 50 48 51 51 57 56 57 56 53 58 59 61 58 62 64 62 60 56 56 61 66 72 52 41 63 57 59 60 61 70
30 38 46 83 77 77 75 72 68 66 63 57 54 52 54 54 53 57 50 54 57 60 61 61 60 58 60 65 62 61 61 58 59 65 49 37 37 56 57 59 58 59 64
31 34 55 84 77 78 75 74 70 66 64 60 56 56 63 62 59 57 53 55 59 58 59 60 59 60 64 63 64 62 61 65 64 64 46 43 46 45 56 58 59 57 59
30 34 76 84 79 78 75 76 72 68 64 63 60 61 61 64 67 65 65 64 60 61 62 62 62 62 60 60 61 61 64 64 70 50 47 43 44 53 56 60 59 60 61
30 35 52 84 77 77 75 76 73 70 65 62 60 61 61 67 69 68 69 68 63 61 62 60 62 65 65 64 63 62 62 73 52 48 51 47 45 50 56 62 62 62 62
33 40 47 81 84 82 79 77 75 73 70 66 61 60 62 72 73 71 70 68 62 64 65 64 61 62 68 69 68 68 69 77 55 46 50 51 58 52 58 64 64 64 61
35 41 41 49 64 90 85 83 80 77 75 70 66 61 65 75 72 71 70 67 68 68 70 67 65 64 63 66 70 71 77 80 60 48 44 45 62 56 58 60 66 65 64
40 41 40 42 47 52 54 84 84 81 80 74 73 78 83 77 76 69 73 73 72 71 70 70 69 68 68 69 72 78 81 83 58 52 47 45 61 56 62 64 64 65 64
43 43 42 41 43 43 43 60 81 84 83 84 79 82 77 49 46 51 70 77 78 76 74 73 73 73 77 81 80 80 84 56 48 43 40 55 58 56 61 66 67 65 65
39 42 42 43 44 45 44 47 50 46 51 49 46 46 42 39 40 51 69 80 82 82 82 78 76 78 80 58 47 76 60 48 45 45 45 64 57 56 61 64 66 67 67
30 35 41 45 44 46 47 46 43 44 44 42 43 43 43 44 44 46 47 49 52 75 60 57 56 56 49 50 49 46 46 46 45 47 51 71 65 60 63 66 68 65 66
29 32 37 41 48 47 46 49 43 44 44 42 43 44 45 45 48 47 48 51 52 51 53 54 52 51 51 49 47 47 47 48 47 48 50 72 73 64 65 68 71 70 67
29 33 35 38 44 49 52 47 46 44 45 42 47 47 47 50 51 51 51 51 52 52 54 53 53 50 49 48 48 47 47 47 47 48 50 71 80 75 68 68 70 73 70
29 33 33 35 38 43 48 50 48 46 44 46 48 50 51 53 55 56 56 54 55 53 54 54 56 54 51 49 50 48 47 46 45 47 48 51 75 81 76 71 71 73 76
28 30 31 32 33 40 47 50 48 48 48 49 50 49 51 52 54 56 56 57 63 58 53 52 48 48 48 46 46 45 47 46 47 44 45 48 52 76 82 74 72 72 74
28 32 37 37 35 39 44 48 45 46 47 49 48 48 51 52 56 56 58 56 45 44 43 42 41 42 43 43 42 45 45 44 42 42 44 44 48 48 60 83 79 74 73
31 34 39 39 39 42 46 46 46 46 46 49 49 50 44 41 42 40 36 34 30 35 34 35 34 35 38 38 37 36 36 40 42 36 38 42 44 49 50 62 79 86 84
34 37 41 42 43 44 45 46 48 45 38 34 33 32 30 29 30 32 31 30 30 34 35 36 36 37 38 38 32 34 38 36 36 36 37 34 35 35 35 39 50 58 84
36 40 42 43 44 45 48 48 44 43 40 37 34 30 29 27 27 31 32 31 33 34 34 32 33 37 38 35 39 40 39 33 32 34 32 31 34 34 32 35 38 50 62
33 38 41 46 47 43 42 43 42 40 37 36 36 31 28 26 26 26 29 29 29 32 31 32 33 36 34 33 38 42 45 37 34 33 32 31 30 33 32 34 38 39 43
36 40 41 41 41 41 41 40 40 38 37 34 33 32 30 24 21 22 24 24 26 30 33 33 32 38 41 36 34 34 46 47 42 38 33 30 29 29 32 32 31 32 34
41 42 38 38 37 35 34 34 34 34 36 34 32 30 27 25 21 19 21 24 24 25 30 33 26 35 39 40 36 25 31 33 45 44 34 34 29 25 28 30 26 26 26
43 45 39 36 35 34 32 31 33 34 33 31 28 26 22 21 20 21 20 24 24 26 28 31 34 34 37 33 34 37 33 37 33 38 40 36 30 27 28 27 27 28 30
47 45 44 37 36 35 35 33 34 34 30 30 27 23 20 18 20 21 21 23 24 26 28 30 32 36 37 34 32 32 30 34 36 34 35 37 38 38 36 34 36 36 34

GFSSE_sfc_rhum_006.txt.gz
RH
66 82 82 77 75 75 76 73 70 64 63 57 55 61 68 66 58 57 59 60 54 53 59 64 63 66 67 68 66 65 68 68 64 64 67 69 68 65 63 62 59 58 57
62 74 83 79 75 75 74 74 68 66 64 58 54 58 53 53 55 53 57 56 58 51 58 61 64 63 66 65 60 57 57 58 61 64 73 79 74 65 59 55 59 60 69
51 64 74 82 80 77 75 73 69 65 61 59 52 50 49 51 48 57 58 56 53 54 60 60 59 60 61 67 65 64 60 56 58 63 70 80 68 63 58 60 59 59 64
47 61 65 85 80 78 77 74 70 67 62 58 54 59 54 53 53 54 54 53 59 59 60 61 60 60 62 64 65 63 62 59 60 69 73 54 49 62 58 58 57 57 61
42 52 72 85 82 79 76 73 70 67 65 60 55 55 62 61 62 56 55 53 61 60 60 60 60 59 60 61 61 62 61 60 69 70 70 60 65 50 58 58 58 59 58
43 75 86 85 83 82 78 76 72 69 66 64 60 60 60 65 67 67 61 66 65 63 62 61 61 63 64 62 60 57 59 63 74 72 65 63 54 50 54 58 62 60 60
45 74 82 85 83 82 80 78 74 71 66 63 60 60 60 70 70 68 68 67 65 64 62 61 56 61 65 68 66 65 63 73 75 70 66 64 61 48 50 56 61 62 61
47 58 77 84 82 84 81 79 76 74 70 69 62 58 60 70 72 72 71 70 66 64 66 64 63 62 64 67 69 69 74 78 72 72 64 66 66 55 54 56 62 63 63
47 53 64 77 82 88 86 84 81 79 77 74 69 64 71 73 71 71 72 69 68 67 68 72 69 67 65 65 67 73 80 82 91 79 61 64 68 55 57 60 60 63 65
52 52 58 64 69 81 84 85 84 82 81 79 78 79 83 82 79 76 78 77 72 72 70 68 69 70 71 70 72 79 83 86 94 79 67 62 63 55 55 59 62 62 63
52 55 54 56 62 63 66 79 85 83 84 83 82 82 84 84 69 72 76 77 76 74 74 73 73 74 80 83 82 81 83 88 80 68 66 66 64 52 53 57 61 64 65
56 56 56 56 58 59 50 80 79 74 84 81 75 80 82 66 69 60 73 74 76 81 83 77 77 80 84 82 76 77 88 81 73 67 66 68 63 56 56 58 62 64 67
48 54 54 59 59 61 61 69 69 69 71 66 60 61 60 58 67 74 78 78 89 86 89 79 88 87 87 76 70 69 70 70 68 67 64 71 67 59 60 63 67 66 68
42 49 53 56 62 63 66 69 66 64 66 66 62 58 65 71 72 71 73 74 76 76 78 76 77 67 65 64 62 62 61 66 68 66 69 73 74 67 62 64 69 71 69
42 45 50 55 64 66 67 68 67 65 64 64 66 63 68 73 73 74 75 75 68 67 67 67 65 63 59 57 62 58 55 64 65 66 69 74 77 78 72 66 66 67 68
43 46 46 48 57 63 70 69 68 66 62 66 65 66 66 74 78 78 72 70 71 69 66 66 64 59 58 59 57 61 65 64 60 59 58 64 73 78 77 72 68 68 68
42 40 40 42 49 61 65 68 68 66 64 66 63 65 62 66 75 69 70 69 65 68 62 60 57 60 62 59 64 61 62 65 64 64 58 55 59 71 79 75 73 71 71
43 47 50 40 47 56 65 67 63 60 66 68 68 62 63 64 68 50 58 52 51 52 52 52 53 54 56 55 50 48 54 40 41 52 46 46 52 46 64 77 70 70 68
45 51 54 52 50 58 64 62 60 63 54 44 41 45 43 42 44 50 50 49 47 55 55 53 53 59 53 50 43 37 42 51 38 36 41 34 32 36 40 53 70 75 72
51 56 59 60 62 64 64 64 50 46 47 51 48 44 40 40 41 49 49 47 48 52 54 47 46 45 52 55 33 42 40 38 42 45 37 30 36 34 36 38 39 51 67
58 58 62 64 63 66 73 58 57 61 55 52 46 38 37 36 39 43 48 44 44 48 45 39 44 47 51 49 54 41 50 45 42 32 32 40 31 34 31 32 37 33 34
60 63 66 64 58 57 59 59 58 56 56 53 50 43 35 31 32 29 38 40 38 47 43 44 46 55 53 51 54 53 59 40 39 40 42 30 39 31 30 29 24 22 30
62 61 57 59 58 55 54 50 54 59 56 54 53 49 38 29 29 31 34 36 38 44 49 47 48 50 62 53 47 49 59 62 43 47 36 41 28 35 28 28 26 26 26
64 61 56 54 55 54 53 56 53 54 56 54 50 44 39 30 29 29 32 36 38 44 44 46 38 49 55 59 54 35 47 45 50 50 47 34 33 28 30 34 30 33 29
63 62 56 51 49 48 46 48 53 53 52 48 43 36 31 32 31 30 32 35 37 44 42 42 43 46 54 54 54 53 46 49 41 45 51 41 34 33 39 33 38 34 28
66 62 57 52 52 50 49 48 50 49 47 44 38 37 33 35 37 32 30 33 34 38 40 43 40 43 47 48 49 47 46 43 40 43 45 41 42 37 38 35 39 30 29

GFSSE_sfc_rhum_009.txt.gz
RH
94 95 84 78 80 77 77 74 67 65 60 56 60 69 71 62 60 59 61 57 56 55 59 67 69 69 69 67 66 64 68 66 64 64 67 69 64 63 62 62 58 62 61
89 90 84 79 77 76 76 73 69 67 62 57 57 58 55 55 50 56 57 56 55 55 57 61 63 63 67 65 61 58 57 61 60 62 72 80 76 65 60 57 60 62 63
86 83 80 83 81 78 78 72 70 66 63 56 53 52 52 50 52 58 58 53 54 58 58 59 58 59 61 65 64 64 62 58 58 63 70 82 79 67 61 61 62 59 61
77 81 80 85 82 79 77 74 70 67 62 58 54 58 48 51 49 48 52 58 60 59 58 60 58 57 60 62 64 63 62 60 61 69 76 72 63 55 62 59 60 57 59
71 72 77 86 83 80 77 74 72 70 64 61 58 56 62 61 63 56 53 60 62 62 60 60 60 60 58 58 58 60 61 61 69 72 77 80 70 47 60 59 60 60 59
75 72 87 86 85 83 78 73 71 70 68 64 62 61 61 66 68 70 62 67 66 66 63 61 61 62 64 65 64 61 58 60 76 84 75 68 66 52 50 57 62 62 62
90 84 84 86 85 82 78 75 73 69 67 64 63 62 62 72 70 70 66 68 68 67 65 63 58 59 63 66 70 68 67 74 80 85 75 70 69 61 53 52 58 62 64
83 82 82 87 86 85 82 79 76 72 68 67 61 62 61 69 71 73 72 70 68 65 65 67 66 66 63 65 67 70 76 81 80 87 79 74 68 60 59 56 57 60 64
74 86 88 87 88 88 87 85 82 79 77 72 69 65 73 73 71 70 75 72 69 67 67 71 71 68 68 67 68 74 80 85 92 91 77 76 70 62 59 58 60 61 61
70 76 92 94 91 95 94 89 86 84 84 82 79 79 81 81 79 77 80 78 71 72 73 70 69 70 72 73 74 80 83 87 94 95 86 78 71 64 59 57 58 60 63
60 72 80 87 86 90 88 86 87 85 85 84 82 82 85 89 81 80 84 80 78 73 72 72 73 75 82 85 85 85 86 90 93 86 79 75 70 65 58 61 62 59 62
66 64 68 75 78 80 65 88 94 86 93 93 88 89 89 89 78 71 80 80 74 77 81 77 78 83 87 94 92 85 84 89 88 79 74 74 68 60 59 66 68 66 63
62 65 64 68 70 73 78 87 91 89 92 91 88 86 87 69 72 72 82 83 82 86 89 84 85 91 89 84 80 74 67 74 77 71 66 75 70 62 61 67 70 71 72
61 61 63 64 70 71 74 81 81 80 84 81 76 71 74 80 79 78 81 83 79 76 75 73 72 67 67 67 67 65 65 68 73 66 70 79 77 68 63 66 68 70 71
54 62 63 68 71 73 76 75 76 74 72 73 72 69 77 81 72 77 81 79 73 71 70 69 65 65 67 68 65 65 66 69 68 66 75 78 77 72 66 63 66 66 67
50 57 61 62 71 73 79 78 76 68 63 72 66 66 66 79 84 78 72 69 64 58 56 61 59 61 63 64 52 52 64 66 65 64 55 66 74 72 72 60 62 64 60
50 47 52 60 68 73 74 76 69 72 65 67 66 66 64 70 75 62 45 47 56 59 54 53 50 58 56 51 54 56 49 47 50 52 53 53 62 63 58 51 54 54 62
49 53 50 43 63 74 77 75 66 66 64 57 42 38 38 46 49 47 50 54 57 59 55 54 58 56 58 60 61 48 48 52 46 45 48 36 39 43 50 56 51 56 48
57 57 58 53 61 75 75 59 47 38 39 40 39 40 44 42 46 51 54 52 52 58 53 49 50 54 57 55 41 46 44 48 50 40 44 35 43 34 40 46 60 53 49
61 65 67 65 76 68 48 44 42 42 46 41 41 40 42 41 41 48 49 44 49 51 49 46 45 48 56 55 40 38 43 52 48 39 30 34 34 40 34 33 34 29 45
70 73 75 73 72 56 55 54 52 62 51 46 39 36 36 37 38 40 46 42 47 48 47 44 48 53 56 56 60 39 57 51 42 28 32 47 33 28 34 27 27 27 32
79 80 78 74 70 60 58 62 57 51 56 53 49 36 32 32 33 33 40 41 44 49 47 48 51 58 62 59 59 61 58 51 41 31 43 30 39 31 29 26 29 31 30
72 71 67 63 58 55 51 50 54 60 61 60 52 44 33 30 33 36 38 40 46 51 52 49 51 53 65 61 56 52 61 66 44 48 27 42 26 41 31 37 33 29 39
73 69 67 63 58 56 52 55 53 56 58 58 55 46 37 31 32 35 37 39 42 48 45 47 40 51 55 58 59 44 52 55 62 53 49 32 44 31 36 39 33 41 30
66 64 61 58 56 56 57 55 57 57 56 55 46 41 36 35 33 34 35 38 39 45 43 42 42 46 52 54 58 60 52 55 51 54 50 47 38 37 36 37 50 34 34
66 62 61 56 57 55 55 54 52 50 46 44 40 39 40 42 40 34 32 35 36 39 41 44 42 42 43 49 50 53 51 46 42 47 42 42 46 38 40 39 38 39 35

GFSSE_sfc_rhum_012.txt.gz
RH
97 96 85 79 79 78 78 70 68 65 60 62 63 69 68 66 63 61 62 57 56 58 58 69 66 70 70 69 67 68 65 62 63 62 65 70 68 62 61 62 62 64 66
93 96 86 81 80 78 76 71 70 66 61 59 60 70 61 58 52 54 57 56 53 56 55 61 61 63 67 67 62 59 58 61 60 62 70 78 76 68 63 61 61 65 63
94 88 82 84 82 79 76 72 70 67 60 58 59 58 54 50 55 58 57 54 57 57 56 58 58 60 61 64 64 62 62 59 59 62 70 84 82 70 64 63 63 62 60
88 87 83 85 82 79 75 73 70 66 62 57 55 52 52 51 58 54 52 57 60 58 57 59 57 56 59 62 64 64 63 62 63 69 79 76 74 63 59 63 64 61 58
88 84 83 86 84 80 77 73 70 67 64 60 60 60 63 59 56 54 48 61 62 62 60 60 60 62 61 59 58 57 60 62 68 75 81 82 78 60 59 62 62 62 61
90 89 89 88 85 84 79 74 72 69 65 62 60 62 64 68 70 65 62 66 67 67 63 62 61 62 65 67 67 65 65 64 75 89 85 75 71 64 57 54 62 63 64
83 87 88 87 86 84 76 74 72 70 68 63 62 63 66 69 70 70 70 69 68 67 64 63 63 61 63 65 68 70 70 77 85 91 87 80 75 66 61 58 55 57 61
83 85 86 89 87 83 79 77 74 70 68 65 63 64 66 68 71 72 70 69 68 66 65 67 67 69 68 66 66 68 75 84 85 93 92 89 78 66 62 60 60 59 60
84 91 94 91 88 88 85 84 81 75 74 72 68 67 71 75 72 72 75 72 71 68 68 69 71 68 68 70 71 72 80 85 93 97 88 88 78 70 62 60 60 59 62
92 90 96 96 93 95 94 89 87 84 83 81 80 79 84 82 79 78 83 80 72 72 74 73 69 70 72 74 76 82 85 87 94 95 95 89 79 72 67 64 61 60 60
87 93 95 94 96 96 95 91 89 88 88 86 84 85 86 91 86 83 86 83 82 77 72 72 73 76 83 86 87 87 88 96 93 92 90 82 76 72 68 65 65 61 60
82 88 91 93 92 96 80 93 96 90 96 94 92 91 94 92 86 72 84 86 82 80 81 77 78 84 88 95 87 87 80 77 81 83 78 77 74 71 68 69 70 70 70
66 75 81 88 84 90 78 95 99 98 98 97 93 93 93 86 83 87 87 86 86 85 89 85 86 83 84 87 90 86 82 81 90 88 78 78 70 65 62 63 69 70 70
68 67 71 78 84 86 85 91 92 92 97 97 93 90 94 85 85 85 75 76 78 78 77 74 65 55 57 67 70 67 68 75 82 82 83 75 66 59 58 59 61 67 70
64 66 71 72 76 78 87 89 91 92 91 86 83 78 82 87 82 81 83 75 66 55 51 51 60 60 59 58 52 56 62 62 64 59 71 71 70 53 51 52 54 58 60
60 64 68 72 76 77 80 85 83 76 68 74 71 71 71 82 88 63 49 53 50 49 50 56 58 59 59 58 53 55 51 53 57 54 58 59 60 52 52 50 50 56 53
60 68 70 73 78 80 81 81 73 67 69 70 56 50 58 60 43 45 47 52 58 57 52 52 50 53 55 50 53 48 47 52 52 51 51 44 50 55 49 45 49 45 44
55 57 61 61 80 83 82 72 66 64 50 42 40 41 41 44 44 46 54 58 57 52 51 49 54 51 55 56 55 49 48 51 52 42 42 42 51 42 44 44 41 39 41
57 59 55 64 82 84 74 52 43 41 40 39 39 39 41 46 46 47 50 54 51 50 50 47 47 55 56 56 49 46 44 52 56 30 33 40 47 45 39 38 40 38 43
64 65 64 66 84 56 50 42 41 40 39 39 45 42 41 41 42 46 45 49 48 48 50 47 47 52 57 60 46 39 46 57 49 27 39 36 38 35 43 28 40 32 45
78 80 79 85 59 53 52 49 44 44 41 46 39 37 37 37 38 42 46 46 50 49 50 46 52 56 60 63 60 53 60 53 40 25 42 31 45 27 39 30 36 32 40
85 89 91 78 64 59 56 59 56 47 51 48 42 35 34 36 36 36 43 47 48 50 47 49 54 56 64 65 60 67 62 56 42 28 38 34 28 33 39 29 39 39 34
89 86 79 71 65 59 52 46 47 48 58 52 46 40 36 35 38 40 41 45 49 51 51 51 52 52 60 62 56 51 59 64 45 49 34 42 30 46 33 45 38 36 44
83 79 70 63 59 54 48 47 43 46 56 60 52 42 37 34 37 38 40 42 44 48 44 47 41 51 53 54 62 45 54 55 59 57 52 34 45 30 44 46 42 47 37
76 77 73 65 62 65 60 54 59 60 62 59 48 40 36 36 36 36 37 38 40 46 43 42 43 43 51 50 58 60 56 57 57 65 50 49 34 35 38 37 52 41 40
70 69 67 62 65 63 59 60 58 56 51 48 47 46 44 42 41 35 33 36 37 40 41 44 42 41 43 46 48 50 53 53 43 47 46 44 40 39 41 39 44 37 46

GFSSE_sfc_rhum_015.txt.gz
RH
93 94 84 78 80 78 76 70 68 65 63 62 63 67 72 69 67 66 60 58 59 56 58 67 68 71 73 71 70 70 65 61 60 62 66 68 69 64 60 62 61 66 68
90 96 86 81 79 78 74 71 69 64 62 62 63 67 68 63 61 57 60 55 56 54 55 62 63 65 69 68 62 60 59 60 61 63 70 77 77 69 64 64 61 68 62
90 95 87 85 84 78 75 73 70 65 61 60 62 68 55 52 49 55 56 55 56 56 55 57 60 62 63 66 67 64 63 60 61 64 70 84 83 69 65 64 64 63 61
94 94 90 87 83 79 76 74 70 65 59 60 58 58 54 51 55 54 53 55 57 58 58 59 59 57 58 61 63 64 63 63 65 70 84 79 75 65 63 64 63 64 62
95 95 88 87 83 80 77 74 70 67 61 58 58 56 53 53 53 53 54 59 61 62 61 61 61 63 64 63 62 59 57 59 70 78 90 89 83 67 62 63 63 62 65
97 95 91 88 85 84 78 75 71 67 64 60 62 64 64 68 65 60 63 67 66 66 63 62 62 61 63 66 68 68 67 68 76 88 90 84 79 67 63 60 58 64 64
96 95 95 89 86 83 79 75 73 69 66 62 61 64 66 68 68 70 70 69 68 66 65 64 64 64 64 64 66 64 65 70 88 92 93 90 85 71 63 62 61 57 57
89 89 94 91 88 86 80 77 75 72 70 63 62 64 66 68 72 71 72 70 69 67 66 68 68 69 70 69 67 67 74 82 88 94 95 96 86 74 64 61 62 62 61
85 92 97 96 92 88 84 82 80 74 73 70 68 68 71 75 73 74 75 72 71 70 68 70 71 68 67 70 72 75 82 85 94 97 91 96 85 77 70 66 64 63 62
96 94 97 98 95 95 93 88 86 82 82 80 78 77 83 83 80 79 84 81 73 72 72 73 71 70 73 75 77 83 86 89 95 95 96 94 81 75 71 69 68 66 64
95 97 97 98 97 97 96 91 90 88 87 86 85 85 88 92 89 85 87 85 81 77 75 73 74 76 83 85 85 86 87 92 88 87 90 84 78 74 71 71 72 69 67
97 98 98 97 97 97 86 94 96 94 96 95 94 92 95 93 88 75 86 87 81 83 83 78 79 81 88 95 97 89 95 92 94 95 92 78 65 65 62 62 63 64 66
90 94 96 97 96 97 92 98 99 99 98 97 94 94 94 90 93 93 93 87 91 86 83 84 84 68 68 72 69 70 71 75 86 85 78 66 59 56 54 55 58 60 62
78 83 86 94 96 96 94 97 98 99 98 98 97 94 96 96 88 90 79 79 80 79 61 54 56 57 52 54 58 57 58 62 64 69 71 67 55 52 53 55 56 63 63
68 74 81 88 92 92 95 98 98 98 98 96 96 93 92 90 83 80 64 52 51 50 48 55 56 53 53 52 51 51 52 53 56 57 61 65 54 52 50 51 56 54 54
37 64 74 80 86 88 88 96 94 97 94 87 82 79 74 82 66 50 50 50 49 49 53 52 52 55 52 52 46 48 47 52 58 48 53 55 51 49 49 51 48 48 49
52 58 76 76 80 84 88 90 80 82 76 68 62 64 62 44 44 48 50 51 51 52 46 46 48 50 49 47 49 48 43 54 57 40 45 49 54 48 48 44 44 45 47
61 76 80 68 81 85 86 74 72 61 47 46 45 44 42 42 42 46 55 56 49 49 47 46 54 52 51 55 54 52 46 50 44 33 39 47 50 42 47 42 42 42 47
63 72 79 84 85 88 77 54 48 43 42 41 41 42 40 40 38 41 50 52 48 49 50 47 50 59 56 50 46 50 47 56 45 27 42 36 46 40 46 38 44 42 44
65 65 67 91 86 60 50 46 42 41 41 40 40 39 37 41 41 48 51 48 47 50 51 47 49 53 62 61 47 43 51 60 45 37 45 31 42 34 47 36 48 44 46
76 74 73 88 64 54 53 50 46 45 40 38 35 33 37 40 41 45 51 50 50 50 51 47 53 56 60 63 60 56 59 54 46 34 46 39 36 35 44 33 42 42 48
83 85 93 74 64 59 55 58 51 40 40 37 41 38 39 39 39 40 48 50 47 47 47 48 54 54 58 65 62 69 60 52 47 26 41 42 38 41 44 29 44 42 45
92 95 87 74 68 60 51 45 42 38 39 38 42 42 40 40 42 42 44 47 48 50 51 50 52 50 55 54 58 45 47 60 59 50 33 45 31 47 36 44 44 38 46
94 93 78 68 62 52 46 41 36 41 42 51 48 42 40 38 39 41 42 42 45 48 45 46 43 51 54 52 61 44 54 57 60 60 53 34 46 34 42 52 48 46 49
91 85 76 67 60 59 48 41 45 49 58 57 45 39 37 39 37 38 38 39 41 47 44 42 44 43 51 51 57 59 57 59 61 70 46 50 37 34 33 37 49 46 44
87 81 72 66 70 62 58 58 50 54 50 44 46 44 43 42 42 36 35 38 38 41 42 45 42 41 43 46 49 49 53 51 52 54 54 46 44 35 41 38 37 50 44

GFSSE_sfc_rhum_018.txt.gz
RH
91 92 87 79 78 78 74 69 67 64 63 61 62 66 74 69 67 63 60 60 57 57 60 69 72 76 74 73 73 70 65 62 62 64 68 71 68 65 63 60 62 68 62
85 91 83 81 78 78 73 70 69 66 66 62 63 67 69 67 63 62 59 55 57 54 57 63 64 67 72 70 65 63 61 61 62 64 71 79 75 70 63 64 64 70 60
86 91 87 84 82 77 74 72 69 64 64 62 65 69 59 55 51 54 57 55 54 56 56 59 61 63 65 66 68 66 64 63 63 66 75 85 84 65 65 64 66 63 60
90 96 94 86 84 79 75 74 69 64 60 60 66 62 52 52 52 51 52 54 57 59 58 59 59 58 58 59 59 61 61 61 64 70 87 82 76 66 61 60 64 64 63
98 96 94 88 84 79 77 74 71 64 60 60 57 58 55 53 59 55 54 59 61 62 61 60 62 64 65 65 65 62 61 61 68 80 90 91 89 69 60 61 65 63 64
99 96 92 89 86 83 78 75 71 67 62 58 63 63 62 59 56 55 59 66 66 66 63 62 62 61 61 64 66 59 62 67 78 89 91 88 87 71 60 62 61 56 60
99 97 96 89 85 81 79 76 72 68 65 61 63 64 65 65 66 65 68 69 68 66 64 64 65 66 66 65 65 67 67 80 90 93 94 94 92 76 65 61 62 60 57
97 97 96 90 88 85 81 78 74 70 67 63 62 64 64 68 73 70 73 71 69 66 66 67 68 68 69 69 69 70 74 82 89 94 95 96 89 79 73 67 62 63 63
94 96 98 97 93 90 86 82 80 74 74 68 67 67 71 75 74 74 73 71 70 68 68 70 71 70 69 71 73 77 82 84 93 97 92 97 87 79 74 72 69 66 65
95 96 98 98 97 96 94 87 85 82 81 79 77 78 81 84 81 77 85 81 73 72 72 74 72 72 75 77 78 84 86 86 90 91 97 97 80 76 74 72 71 71 69
95 97 98 99 98 97 96 92 89 86 85 85 83 84 88 93 90 87 87 86 79 76 76 75 77 79 84 88 83 79 81 94 95 97 97 78 65 65 65 63 64 67 70
98 98 99 99 99 98 90 96 96 94 96 95 94 92 94 92 90 78 86 86 79 82 78 78 78 73 72 81 76 70 71 76 80 84 84 65 57 56 56 56 59 62 62
94 97 98 99 98 98 96 99 99 99 99 98 94 94 94 92 95 94 95 90 93 88 83 63 52 51 57 60 61 60 60 63 68 74 65 60 54 52 54 56 62 62 64
91 95 95 98 99 98 98 99 99 99 99 99 97 94 96 98 93 94 93 86 68 52 50 51 59 51 50 49 53 50 49 55 62 63 61 61 56 53 52 58 56 55 55
74 84 93 97 98 98 98 98 99 99 98 97 97 95 96 95 88 79 52 50 49 46 47 52 52 46 47 45 48 48 40 57 52 50 59 62 53 52 54 52 51 52 50
53 65 82 93 94 96 95 97 98 98 97 97 90 86 77 83 63 53 49 48 46 43 41 49 49 47 47 46 44 47 43 62 47 42 53 58 49 52 48 48 49 49 51
40 41 82 86 91 93 91 93 92 89 84 90 77 76 64 49 48 51 48 45 44 46 42 47 48 46 44 41 43 50 43 58 36 42 44 52 52 49 46 47 46 46 49
48 65 86 73 89 90 91 92 82 78 65 61 53 47 43 44 45 46 46 44 43 47 46 49 56 50 47 50 47 52 47 56 33 38 38 50 48 42 47 43 44 44 46
58 72 89 89 91 92 88 74 56 62 52 52 45 44 40 39 40 42 42 48 48 48 49 46 50 60 54 49 41 50 50 59 39 30 40 42 38 41 48 39 43 44 43
68 79 92 95 94 72 57 63 47 47 46 48 41 38 35 37 39 44 48 47 47 48 48 45 47 52 65 62 45 40 55 65 46 40 45 34 36 37 48 38 48 48 44
76 78 95 94 72 60 58 67 52 50 43 39 36 34 34 36 44 49 52 48 49 48 47 45 50 52 57 64 53 52 56 54 54 47 44 41 41 38 46 37 44 50 51
76 80 96 82 67 63 59 62 58 40 39 38 39 36 38 40 43 44 48 48 44 47 46 48 50 49 52 63 55 68 55 44 45 34 45 40 39 39 46 30 40 43 48
86 90 93 78 70 62 53 52 42 34 35 37 37 40 44 42 43 45 45 46 46 50 52 51 50 48 52 51 62 41 42 48 65 52 43 50 36 45 44 43 42 42 44
91 94 86 74 65 55 49 54 39 37 34 38 38 44 44 41 43 42 42 43 45 49 45 45 42 51 51 52 57 44 52 57 58 59 51 39 45 34 43 47 39 44 48
96 96 86 74 63 57 50 44 40 38 40 38 38 41 40 41 40 40 39 40 43 49 45 42 43 43 52 50 56 57 56 59 64 72 49 53 38 36 38 38 48 49 39
97 92 80 69 65 58 45 41 42 39 34 37 43 42 45 45 44 38 37 39 40 42 42 45 42 41 44 47 50 51 54 51 53 57 60 48 48 43 40 38 41 48 54

GFSSE_sfc_rhum_021.txt.gz
RH
69 69 87 81 78 77 73 69 66 64 63 63 64 69 74 70 66 63 61 60 57 59 64 67 76 75 69 74 72 68 66 64 63 65 70 71 65 62 61 60 60 56 62
60 68 85 82 78 76 72 70 68 68 65 63 62 66 68 68 67 63 57 56 55 54 61 64 65 69 72 70 67 66 64 63 64 67 74 73 74 68 62 62 64 56 59
63 70 66 83 82 78 73 72 69 67 65 62 65 68 62 56 50 52 57 55 55 56 56 61 62 64 67 67 68 66 64 64 64 68 74 56 58 64 62 64 65 66 61
66 69 64 86 84 79 75 73 69 65 63 62 71 67 57 53 49 51 55 56 58 59 58 58 59 58 59 59 57 58 58 58 64 73 54 54 54 61 62 61 62 65 64
69 74 71 87 84 80 76 74 69 64 62 62 66 61 55 54 54 52 54 58 62 61 61 60 62 64 65 66 65 63 62 63 69 67 61 61 60 53 59 61 60 67 66
80 78 81 88 85 83 80 75 71 64 61 60 59 60 56 56 58 57 60 65 66 64 62 62 63 61 62 64 65 64 60 68 74 64 66 66 65 71 64 60 63 60 57
86 80 74 88 86 84 79 76 72 68 62 61 64 62 61 64 63 66 70 69 68 65 64 64 66 67 68 69 67 65 67 78 61 63 65 66 68 78 72 66 61 63 61
84 82 79 88 87 85 82 78 74 69 66 62 65 63 62 68 74 68 70 70 69 66 65 66 68 69 68 68 69 71 76 82 66 64 66 67 77 79 74 71 70 64 64
82 84 81 76 81 89 86 83 80 74 72 69 68 67 71 74 76 74 74 71 70 67 69 70 72 71 71 73 75 78 82 84 65 64 68 64 80 79 74 72 73 72 69
82 81 82 83 79 77 73 87 86 83 82 77 76 77 80 81 78 80 83 80 73 72 73 74 74 77 79 83 80 78 80 80 62 66 63 61 74 65 66 65 65 68 72
80 83 83 83 83 82 79 77 85 86 84 83 77 82 80 69 68 67 82 84 78 76 77 76 78 78 76 69 67 63 64 47 50 51 50 65 59 57 60 59 61 63 63
78 79 81 88 86 84 78 77 77 75 72 72 70 70 68 68 61 62 76 84 77 80 79 73 60 56 51 40 40 48 37 36 40 42 48 63 55 53 55 59 65 66 68
75 79 84 90 89 84 78 80 80 79 78 77 76 73 72 68 65 63 64 64 66 76 50 46 42 36 38 36 35 32 33 38 38 36 53 59 57 56 53 62 59 58 59
77 81 82 84 90 88 80 79 79 78 80 79 76 72 70 69 65 64 65 59 52 49 45 45 34 31 30 30 31 23 28 36 29 36 48 60 55 55 59 55 55 55 57
62 70 77 83 84 86 86 82 80 78 79 77 76 73 70 69 66 62 46 48 46 40 38 34 29 25 25 25 29 24 34 30 24 32 37 60 56 54 52 53 52 54 56
48 55 67 79 81 82 82 82 77 76 76 76 74 74 77 76 62 53 48 46 40 37 37 30 26 25 24 23 28 27 31 29 25 32 29 38 53 50 51 50 50 50 52
33 34 52 70 80 81 80 79 75 76 75 74 75 76 74 58 50 50 46 43 39 35 29 30 28 25 24 22 23 29 26 23 26 23 31 30 31 49 46 47 46 46 48
34 36 37 57 79 80 78 77 71 74 81 83 74 59 50 48 48 44 43 41 36 32 30 29 32 30 26 26 24 28 26 31 22 24 29 25 31 28 37 44 42 44 46
35 38 51 66 78 79 77 73 76 71 66 70 54 48 45 44 41 39 40 37 30 31 31 27 30 34 28 28 24 26 28 36 26 24 23 28 30 31 30 34 41 41 42
42 48 57 71 80 79 71 73 68 55 56 52 51 41 39 39 38 35 35 32 29 31 29 29 27 33 33 33 26 22 36 42 31 28 26 21 27 30 28 31 28 26 40
50 59 70 81 84 68 66 71 63 58 49 43 39 36 36 36 36 34 34 32 32 31 30 26 31 30 33 34 27 28 30 32 33 33 27 24 30 27 30 28 23 23 23
50 61 83 82 71 65 64 65 63 57 41 40 42 37 35 39 34 33 33 33 32 32 32 31 31 31 32 38 30 36 30 22 26 20 27 27 26 26 23 23 23 24 26
59 68 84 74 67 63 61 52 51 45 39 40 38 40 40 35 33 33 33 32 34 35 35 36 35 35 32 36 37 22 27 27 32 28 24 26 24 24 25 26 25 24 25
61 76 82 70 64 58 55 54 55 49 43 36 39 41 39 32 33 32 33 32 34 34 34 33 31 35 33 35 35 29 30 29 31 30 29 25 26 23 27 27 25 25 26
72 80 78 67 60 56 56 58 66 46 39 38 37 36 34 32 32 32 31 34 33 34 33 32 33 33 35 30 35 35 34 33 35 40 32 29 27 26 28 28 28 27 26
82 83 78 68 60 55 56 56 48 42 36 37 37 36 32 32 33 32 32 32 32 32 33 34 35 36 34 34 33 34 32 30 28 33 33 32 36 31 31 31 30 27 28

GFSSE_sfc_rhum_024.txt.gz
RH
48 54 87 79 77 76 73 70 66 65 64 63 68 75 73 69 66 64 62 61 58 60 66 71 79 63 64 73 70 68 65 64 65 69 70 68 64 60 60 61 60 45 61
43 52 88 82 78 76 72 69 68 67 65 63 63 72 71 70 65 63 57 59 54 55 62 65 68 74 72 70 68 65 65 64 65 71 70 68 67 66 60 61 63 50 58
44 47 59 84 82 78 73 71 70 68 64 63 64 68 65 54 52 60 56 55 58 57 59 63 63 65 66 68 68 66 63 63 64 71 70 42 43 61 64 63 66 66 63
43 47 48 85 83 77 74 72 69 67 63 66 71 64 57 51 49 53 56 58 60 58 58 59 61 60 59 59 57 56 57 58 66 69 42 35 35 50 61 61 62 65 64
44 46 51 86 83 77 76 72 69 65 62 69 72 61 57 53 52 53 56 60 63 61 60 61 63 64 65 66 66 64 63 64 69 64 49 50 50 46 60 59 60 62 66
43 45 76 87 84 82 78 73 69 64 63 67 64 59 57 55 56 55 58 65 66 63 63 64 64 64 65 64 64 67 66 72 76 48 50 52 54 71 71 64 61 63 61
45 46 58 88 85 84 79 75 70 65 62 62 62 60 62 62 61 62 67 69 69 65 64 65 67 66 68 69 68 67 67 73 54 50 51 53 54 74 73 72 67 63 63
48 51 51 84 87 85 81 78 73 68 63 65 64 62 65 68 74 68 70 70 69 66 66 67 69 70 69 68 70 72 75 82 56 48 50 52 68 77 76 70 71 72 68
46 50 50 62 75 89 86 82 79 73 71 70 69 66 70 72 80 74 74 71 69 67 70 72 73 72 73 79 81 82 83 83 52 47 48 46 80 72 69 70 69 68 71
50 50 50 52 58 60 65 87 84 82 80 76 75 76 82 79 78 82 81 78 74 73 74 75 78 80 79 72 68 69 68 70 43 47 44 49 64 60 62 62 62 63 66
51 52 52 48 52 56 56 68 84 87 84 81 74 84 79 48 50 54 82 81 76 77 76 78 74 71 66 66 60 55 57 34 35 38 38 64 58 55 56 62 66 67 70
49 50 50 50 52 57 56 58 57 54 55 49 48 49 44 44 43 46 68 79 76 77 74 63 55 47 52 33 33 46 30 30 31 32 37 62 56 53 58 64 62 61 63
42 46 50 56 55 58 59 57 52 51 49 49 50 49 46 44 46 46 48 50 54 69 43 41 36 31 32 30 29 23 24 26 24 28 47 61 55 52 60 58 59 56 64
43 48 52 60 66 60 56 56 49 48 50 50 50 46 43 45 48 46 46 49 45 38 41 38 29 27 24 22 21 18 20 22 20 26 42 62 58 57 56 57 57 57 59
39 43 51 57 63 63 61 55 52 49 52 50 51 47 46 47 49 51 44 40 40 38 32 28 25 20 18 17 18 17 19 20 18 22 29 66 56 55 54 54 54 55 56
30 34 41 53 61 60 61 56 53 50 51 52 49 50 49 50 55 49 44 40 36 32 29 22 18 18 16 16 18 18 17 20 20 24 23 36 53 52 50 49 49 48 49
21 23 31 42 49 53 57 57 53 50 52 53 49 50 53 60 50 46 42 38 32 28 21 20 19 18 18 16 17 18 17 17 19 19 23 23 29 49 47 46 45 44 46
24 24 24 30 42 50 53 56 52 49 53 51 49 54 64 51 46 43 41 36 28 25 21 21 22 22 20 19 18 18 18 20 18 18 20 18 22 19 29 42 43 43 43
23 23 25 29 31 42 49 53 52 50 54 57 64 60 54 46 42 39 36 30 22 23 23 20 22 21 20 21 18 16 19 21 21 18 19 22 24 24 22 25 34 32 38
23 23 25 27 34 42 49 55 56 56 58 56 54 52 46 40 36 36 29 22 22 24 22 22 21 22 23 22 18 17 25 27 24 23 22 15 19 24 23 26 25 21 30
27 27 28 33 40 47 55 68 67 68 66 54 47 44 39 36 34 32 28 23 24 24 23 20 22 24 25 23 22 20 22 22 24 26 23 17 23 21 22 20 18 18 19
27 28 31 37 45 51 55 58 60 69 72 54 41 39 33 29 32 28 26 25 25 25 25 23 24 25 25 25 23 27 24 19 18 20 19 20 16 19 18 18 20 21 22
28 32 36 44 52 55 54 58 58 51 53 47 39 42 39 34 26 29 26 25 26 26 28 27 27 26 26 27 25 17 23 24 22 19 20 17 19 18 19 22 22 21 22
30 38 42 52 56 56 59 55 54 56 59 49 34 39 45 40 31 24 25 24 26 26 27 26 23 25 24 28 26 20 21 20 24 24 19 19 18 19 21 22 22 22 23
32 44 50 56 57 58 55 54 56 57 48 39 38 39 38 34 29 24 24 25 25 24 26 25 26 25 25 21 26 27 23 25 22 28 29 23 20 20 21 23 23 22 21
35 51 57 59 58 56 55 54 58 56 50 38 38 37 36 33 26 25 24 25 24 26 27 27 28 29 27 26 24 24 23 23 21 23 24 25 26 24 23 24 24 23 23

GFSSE_sfc_rhum_027.txt.gz
RH
41 61 85 78 76 75 73 71 67 66 66 70 75 75 72 69 66 64 62 59 58 64 67 73 76 63 71 73 70 68 67 66 67 70 67 62 62 60 59 62 62 49 60
40 54 86 80 77 75 73 68 67 67 65 64 69 73 73 68 66 61 61 56 56 59 65 67 71 76 75 72 69 68 66 67 67 72 71 68 61 64 61 64 65 54 61
40 51 64 83 82 76 72 70 69 67 64 62 66 72 64 60 60 60 57 59 58 56 62 64 64 65 66 67 67 65 63 62 65 70 70 46 40 58 60 63 64 65 63
39 47 52 86 83 77 73 71 70 65 64 66 70 65 58 52 56 56 60 62 59 59 60 63 63 62 63 63 61 58 59 61 66 69 48 38 36 56 52 58 62 65 64
38 41 52 85 82 78 75 71 69 66 67 72 67 61 56 54 54 58 60 65 61 61 62 62 64 65 65 66 67 64 64 66 70 70 46 52 53 62 63 60 57 63 66
37 38 78 84 83 82 76 72 68 63 64 76 66 63 56 54 54 55 61 68 64 64 65 65 66 67 67 66 64 64 66 68 76 47 48 52 51 69 71 65 65 61 63
36 45 62 86 84 83 78 73 68 64 65 66 62 58 60 58 58 59 64 70 67 64 65 66 67 67 68 68 68 68 70 74 60 49 47 52 67 70 73 72 70 70 66
37 42 56 84 86 84 80 76 70 66 64 65 64 62 68 67 69 67 70 71 68 66 67 67 70 71 69 70 72 73 75 82 56 57 58 56 74 70 70 71 71 70 71
36 40 49 61 76 88 85 82 78 72 71 70 69 66 74 74 77 73 73 71 69 69 71 73 73 72 76 78 76 75 75 78 56 45 45 49 71 63 62 65 64 64 67
39 39 42 56 64 64 66 86 83 80 78 76 77 81 81 76 84 81 81 76 74 74 76 78 80 79 73 67 62 59 64 71 42 42 41 55 63 58 59 63 67 68 71
40 40 38 45 53 59 61 69 84 85 82 80 76 85 81 50 54 68 83 82 77 78 76 74 70 67 65 64 55 54 62 35 34 34 40 66 59 54 60 68 64 63 65
42 41 40 40 44 55 58 66 58 56 57 48 46 57 48 44 45 47 69 80 79 78 70 61 50 50 58 36 38 48 30 29 28 30 51 66 60 57 65 62 61 60 66
38 39 42 43 42 54 56 64 50 48 49 44 42 42 39 40 47 48 56 56 65 78 47 44 39 34 34 32 31 24 22 25 24 27 54 64 57 62 60 60 59 61 62
33 38 41 42 47 51 59 55 45 43 44 44 45 42 40 40 43 41 43 59 48 42 40 38 33 30 27 22 20 19 19 23 20 25 57 68 59 56 58 57 57 60 59
30 35 40 42 49 49 52 51 45 42 43 44 46 42 36 40 43 42 48 43 42 38 34 33 30 26 20 18 17 18 16 19 18 22 41 67 58 55 54 54 53 52 53
26 31 36 41 49 48 49 47 44 42 43 54 45 44 40 41 44 48 45 42 37 36 30 26 22 20 18 18 18 17 17 18 18 23 25 48 54 51 50 49 47 46 46
20 24 28 38 42 47 49 48 45 44 42 59 46 43 43 46 51 49 42 39 36 29 24 23 20 21 22 19 18 18 18 18 20 18 25 29 46 49 44 44 44 43 44
20 20 20 28 38 46 46 47 44 43 44 58 47 45 46 51 49 46 43 40 30 32 24 23 24 24 23 23 20 20 20 20 18 18 23 22 28 22 42 38 37 38 39
19 21 23 24 29 36 41 43 43 43 52 58 53 48 52 50 45 42 40 36 26 25 25 22 24 23 24 27 24 21 23 26 24 18 20 23 26 29 29 32 29 34 30
17 20 21 24 26 28 36 42 44 53 59 60 53 53 54 45 42 42 36 30 25 28 26 25 24 25 26 25 19 21 30 30 30 27 22 21 20 26 28 32 33 28 32
19 21 21 22 26 28 36 45 50 64 81 78 60 53 48 42 38 35 35 28 26 28 26 23 24 27 30 27 30 32 28 24 24 27 29 24 22 25 24 25 25 25 25
22 23 23 23 26 31 39 46 54 72 79 69 59 50 42 38 33 32 31 28 28 30 28 27 28 31 30 28 27 34 33 25 22 24 22 21 21 23 23 22 23 26 29
24 25 25 25 30 37 42 50 64 66 60 59 57 49 40 33 30 34 33 28 30 33 35 33 34 32 34 33 27 21 33 34 27 26 25 23 21 23 24 26 25 25 27
23 30 30 29 33 42 48 56 65 65 63 59 58 46 37 30 32 34 34 29 30 32 33 33 27 30 30 34 31 21 23 23 29 30 27 25 22 20 24 26 25 26 26
22 33 35 34 38 47 52 55 62 58 59 53 51 43 34 33 32 36 32 29 29 31 29 29 31 28 28 24 29 31 24 29 25 32 36 31 25 24 25 24 26 25 25
27 34 43 41 46 50 53 57 57 59 55 49 46 39 37 41 36 31 30 29 29 31 32 32 31 31 27 27 26 25 25 25 25 26 29 31 30 28 27 27 27 28 28

GFSSE_sfc_rhum_030.txt.gz
RH
77 83 84 78 75 75 73 71 70 73 75 76 76 74 71 68 67 64 59 59 63 68 67 77 72 72 75 73 70 69 68 68 70 70 68 62 60 60 60 63 65 57 58
71 76 84 81 76 75 73 70 70 71 72 71 74 73 70 68 64 63 58 57 60 66 68 71 72 77 77 72 70 69 67 67 68 70 75 77 71 62 64 66 67 66 62
68 73 76 83 80 76 72 70 70 68 67 66 73 74 69 64 62 61 60 59 57 62 65 65 64 65 65 64 64 62 61 62 64 65 75 78 73 58 57 61 65 65 62
62 70 75 84 82 76 72 72 70 66 65 70 69 62 58 57 59 61 62 59 59 60 64 65 65 65 66 66 64 63 64 65 68 76 76 57 53 59 52 55 59 63 65
61 61 76 85 82 77 74 73 69 69 70 72 70 64 57 57 61 62 66 62 63 63 63 64 65 66 66 67 66 65 66 69 78 78 68 67 71 65 67 62 60 62 65
54 63 87 86 83 81 77 72 70 67 73 70 70 67 61 57 57 62 69 66 66 67 67 69 69 70 71 70 67 65 65 69 80 66 64 64 72 67 70 69 69 67 61
70 75 81 84 84 82 76 73 68 65 75 66 63 61 59 59 60 60 71 70 67 68 68 70 70 71 71 70 69 69 71 80 79 68 59 69 73 67 69 69 70 71 72
72 70 77 86 86 84 79 76 72 68 72 70 68 67 69 68 66 67 73 71 68 69 70 72 73 72 72 74 74 76 80 84 72 68 60 70 70 62 62 67 65 66 68
58 70 75 80 85 87 84 81 76 73 73 74 73 74 74 82 77 73 74 72 69 72 74 76 76 74 78 74 71 69 73 74 79 58 56 70 70 59 61 65 68 70 72
52 63 69 76 82 84 87 86 83 79 80 79 78 85 79 86 85 82 83 79 75 76 78 81 80 76 71 63 57 57 65 68 73 56 68 72 63 57 64 69 67 65 68
52 54 66 75 76 75 79 84 86 84 82 82 83 87 84 77 84 84 85 86 83 79 79 74 72 70 68 70 63 61 63 49 47 61 75 69 60 61 68 65 62 67 67
57 54 56 72 72 66 64 85 84 78 84 80 76 87 80 68 74 71 85 86 84 82 75 64 55 60 67 59 59 57 38 36 44 63 75 65 56 60 64 62 61 65 66
53 54 52 56 58 66 64 76 71 71 72 63 62 73 68 64 72 75 86 86 93 82 68 61 56 49 42 41 37 32 32 37 38 66 68 68 64 61 61 60 60 63 61
51 54 54 54 57 67 66 69 66 65 65 60 57 58 61 69 70 69 73 78 77 77 55 55 50 40 36 27 29 27 26 35 31 69 78 70 61 59 58 57 58 58 56
47 50 54 56 61 63 63 63 69 56 58 61 59 58 59 62 65 64 66 57 59 54 55 52 43 35 28 26 25 26 25 30 28 54 80 70 60 56 54 53 52 50 48
36 48 50 54 58 61 67 66 61 54 53 57 64 63 52 60 63 69 62 58 52 49 43 38 30 30 32 29 28 25 27 28 28 36 66 70 56 52 49 47 45 44 44
29 40 47 50 58 62 63 62 57 60 54 69 57 57 54 62 67 66 61 56 50 43 37 33 32 34 35 30 31 28 27 28 28 29 43 57 58 51 41 39 39 40 41
30 32 39 43 53 59 58 61 59 58 60 82 65 55 57 66 64 61 59 53 43 35 37 38 38 40 38 38 36 32 32 30 28 27 28 34 46 44 44 37 33 35 35
28 30 34 45 50 54 59 58 59 59 55 62 63 54 59 62 62 61 57 49 39 42 41 35 39 39 40 41 33 29 38 38 35 24 30 30 35 36 38 36 31 37 32
24 29 32 37 45 52 55 55 57 59 62 64 62 61 62 62 60 56 49 41 41 44 41 40 38 40 41 41 28 29 40 42 40 37 34 29 30 33 35 34 40 38 35
29 28 30 37 37 38 53 57 61 76 74 77 78 66 59 53 51 48 48 40 41 44 43 36 39 42 45 44 46 44 44 34 38 42 41 41 32 31 33 34 36 37 38
33 32 27 34 34 34 37 53 63 89 93 89 78 67 61 51 46 41 42 42 43 43 39 39 42 46 46 44 40 47 47 42 34 33 39 28 29 30 30 27 30 31 37
30 30 33 33 35 35 42 62 83 83 81 75 70 69 66 62 44 41 41 41 43 50 52 48 44 43 51 46 37 35 44 49 41 38 32 36 28 34 33 32 31 31 34
23 30 34 39 35 45 56 70 81 85 86 83 74 69 69 48 43 43 41 39 47 48 48 46 42 43 44 48 46 29 34 35 44 46 42 38 36 26 34 38 35 34 33
28 41 36 37 42 48 49 74 83 83 80 68 55 49 47 51 44 38 36 37 39 46 40 40 41 40 40 42 44 44 37 42 40 47 51 46 39 37 37 37 39 38 34
33 36 50 47 46 60 60 73 77 80 70 69 60 46 52 66 60 39 37 39 38 40 44 46 43 40 40 40 40 38 38 39 39 41 46 46 45 41 42 40 39 41 39

GFSSE_sfc_rhum_033.txt.gz
RH
94 86 84 78 76 75 75 76 77 78 78 78 75 72 70 68 65 60 59 65 68 67 71 70 74 75 74 72 71 70 70 69 68 67 66 63 60 60 62 67 66 62 57
90 82 84 80 76 75 73 72 74 77 79 78 76 71 69 66 64 60 57 61 67 67 71 74 76 76 72 71 71 68 66 65 64 66 74 76 74 60 62 65 67 66 61
87 80 78 82 81 77 73 71 71 69 72 74 73 72 69 65 63 60 59 58 65 67 66 66 67 67 66 65 63 61 60 60 62 67 77 79 72 55 54 58 64 66 61
81 80 80 83 82 75 72 72 70 68 68 76 74 67 64 62 61 59 58 59 62 66 66 66 66 68 67 66 65 65 65 66 70 78 79 66 58 62 56 55 58 64 67
82 79 80 84 81 76 74 72 68 68 75 73 70 65 61 61 64 64 61 62 63 64 64 64 66 66 67 68 68 66 67 67 76 78 78 74 80 67 67 66 64 60 62
77 84 87 84 82 80 79 74 73 73 74 71 70 67 65 64 66 69 65 67 68 69 69 69 70 71 72 70 67 65 66 70 80 71 66 72 72 67 69 69 69 68 67
77 86 85 85 84 82 79 77 74 76 74 71 67 62 61 61 64 72 69 68 69 70 71 71 73 72 73 72 71 70 73 82 83 76 70 76 72 62 65 69 68 68 69
83 83 82 86 85 83 79 77 74 77 74 71 70 66 65 66 65 72 72 69 70 72 73 74 74 73 75 75 76 76 79 82 77 69 71 72 72 59 65 67 70 72 74
78 82 83 85 85 85 82 79 76 79 76 73 76 75 75 78 78 74 74 70 72 74 76 77 76 77 76 72 67 62 69 72 81 70 64 79 71 60 66 70 70 67 72
81 81 94 95 88 87 86 84 81 80 82 81 83 82 82 87 86 81 83 78 75 78 80 80 78 75 70 61 55 59 65 67 70 73 78 78 61 62 69 65 63 70 68
82 84 87 95 95 95 94 84 85 84 85 84 88 84 90 94 88 86 87 86 84 81 80 77 76 72 68 69 62 63 55 44 71 76 79 73 65 69 66 62 69 67 67
80 81 82 88 88 90 78 94 95 86 92 93 93 91 84 90 92 82 90 89 86 85 79 69 63 67 69 64 56 47 36 41 66 72 79 67 56 67 63 62 66 65 64
64 75 80 83 82 82 82 91 94 95 94 91 89 92 89 77 91 91 97 96 96 86 81 69 59 53 42 41 34 30 35 39 71 80 81 70 63 64 60 61 64 61 59
61 60 78 78 78 74 81 82 83 84 84 80 78 83 84 84 83 89 93 96 95 86 71 64 61 44 32 28 30 28 28 38 73 84 84 73 62 60 57 56 56 55 53
59 57 59 71 72 76 80 74 76 76 76 68 65 69 73 74 75 80 85 88 78 70 62 60 45 33 29 28 28 28 28 33 67 79 89 73 62 57 54 51 48 46 45
54 56 56 63 68 73 77 73 73 69 70 69 63 62 63 66 72 79 69 66 62 54 47 38 32 33 34 32 30 28 28 32 49 75 78 76 60 54 48 44 42 42 43
38 53 57 60 66 70 73 70 66 68 62 65 59 60 58 64 75 65 63 62 55 48 38 34 36 36 38 33 34 33 30 30 31 62 68 68 62 55 41 38 37 38 39
35 52 54 51 66 68 70 78 66 64 62 83 60 57 58 72 64 62 61 59 49 46 43 41 42 43 43 41 37 35 36 33 30 38 52 60 58 52 46 36 33 35 35
33 35 55 53 62 67 69 71 65 69 63 87 66 59 61 64 59 58 59 54 43 45 44 37 42 42 42 41 35 33 42 40 37 29 34 38 40 47 48 38 33 39 33
23 34 40 54 58 60 61 66 84 90 64 64 64 58 70 63 62 61 57 45 46 47 44 42 40 46 44 43 30 36 44 46 42 36 35 32 39 37 38 36 44 37 34
31 32 38 51 57 62 66 71 78 79 72 70 70 66 67 63 58 54 51 45 49 43 41 39 46 43 46 46 44 44 50 39 43 43 45 45 37 34 36 39 38 39 38
35 37 37 41 54 58 60 62 89 94 93 86 78 68 65 59 54 51 46 47 46 46 42 40 42 50 48 47 40 54 46 42 38 36 46 34 32 35 32 30 31 32 39
38 39 37 38 45 48 58 81 98 96 96 95 90 73 65 63 56 46 43 45 44 46 48 46 48 47 52 47 38 37 46 47 44 43 37 38 32 38 36 38 35 33 36
34 41 38 38 43 44 50 80 84 85 92 94 86 90 77 58 46 45 46 41 45 54 51 49 44 49 50 49 47 34 37 37 41 36 42 41 40 33 39 41 41 39 37
30 32 43 38 40 48 43 71 82 87 93 90 86 80 78 75 52 48 48 44 42 46 48 44 39 41 46 47 51 47 40 46 43 49 48 47 42 39 40 44 44 42 40
39 39 45 50 45 49 51 81 75 92 86 83 83 78 72 75 61 50 46 42 42 40 39 43 40 37 40 42 42 40 40 39 42 43 49 51 48 46 46 44 46 47 47

GFSSE_sfc_rhum_036.txt.gz
RH
93 90 84 79 78 78 76 74 75 79 80 74 75 72 69 66 62 62 67 68 69 66 64 65 69 77 71 71 71 71 69 64 63 66 67 66 62 61 64 66 65 65 59
92 86 84 80 78 78 76 78 81 82 82 77 72 70 68 66 62 58 63 68 65 72 71 78 75 71 71 71 70 67 62 60 64 68 72 72 72 59 61 68 67 69 60
90 83 80 82 80 78 77 78 80 79 80 77 73 70 68 64 61 58 60 66 64 68 69 72 72 70 68 66 63 60 57 62 69 74 75 78 74 55 53 58 65 68 61
84 83 81 83 81 76 73 71 72 74 74 75 74 71 66 64 60 59 60 64 66 67 68 69 69 68 67 64 63 63 65 69 73 78 77 71 64 63 57 55 59 64 68
86 82 82 85 80 74 73 72 70 71 76 77 72 68 65 62 60 59 61 63 67 66 65 65 66 66 67 68 67 66 66 68 76 75 75 76 85 68 67 69 66 61 61
90 88 87 85 80 79 77 73 69 74 74 70 71 68 64 65 63 62 64 65 67 67 67 68 69 70 70 68 66 65 69 75 80 79 74 71 75 67 67 70 71 71 72
93 91 86 84 81 79 75 77 77 78 70 66 64 64 66 67 70 65 68 69 70 71 70 72 73 74 74 73 70 71 75 82 82 83 82 79 77 62 68 67 69 71 70
91 89 85 85 84 83 78 80 82 81 75 70 70 67 65 66 72 71 68 70 71 72 73 74 74 74 75 75 75 73 72 77 74 78 79 83 72 63 68 74 71 73 73
85 87 87 86 85 85 82 80 82 82 77 74 73 73 74 75 75 76 71 70 72 74 76 75 74 77 75 71 64 61 70 76 80 75 71 82 71 65 70 68 68 70 68
87 87 92 92 88 87 86 84 85 81 79 79 82 83 83 84 84 82 81 78 75 77 79 78 77 74 67 60 57 65 69 75 80 81 84 80 64 70 66 63 70 69 64
88 93 96 97 96 96 93 86 86 88 87 88 89 86 93 96 90 89 89 84 84 81 81 78 76 70 67 64 65 60 56 73 80 80 83 77 70 68 64 70 70 68 60
96 96 96 97 96 96 80 93 94 88 94 95 94 89 96 96 95 85 91 89 88 86 83 75 72 68 66 67 42 46 44 70 73 79 86 68 69 64 62 69 66 64 62
93 90 92 96 95 92 85 96 98 98 98 97 95 93 91 93 97 98 98 97 97 91 88 72 64 57 48 42 34 34 42 68 81 96 83 74 66 62 60 65 60 58 57
89 87 88 90 92 91 87 91 92 92 95 97 95 94 96 95 98 98 99 98 98 90 79 71 66 48 31 31 31 30 39 68 91 94 88 75 64 59 57 56 54 52 50
75 83 86 87 88 87 92 86 88 88 88 86 87 88 86 90 94 92 96 98 97 91 70 67 51 33 30 29 30 29 35 64 85 88 94 74 65 57 53 50 47 46 46
64 66 82 85 84 81 86 84 82 81 82 79 76 77 80 78 85 88 91 95 88 75 66 49 35 35 35 33 31 30 34 50 82 87 85 82 63 54 48 44 41 40 40
55 58 69 80 80 81 81 80 79 77 76 78 70 68 73 72 80 83 85 83 69 55 39 36 38 39 38 35 35 34 32 37 71 77 76 72 67 58 42 38 36 38 36
41 52 59 63 74 78 77 81 75 74 74 82 69 65 66 66 74 75 75 71 60 50 43 44 44 44 44 41 37 36 38 36 40 69 65 66 59 55 46 36 33 33 33
35 40 64 62 73 76 73 78 71 72 71 85 71 64 63 69 70 68 67 66 52 50 46 41 44 42 42 42 36 37 44 42 37 37 56 57 52 57 53 40 39 34 32
27 36 51 63 69 75 79 84 89 93 80 84 71 64 69 69 66 66 66 54 48 50 46 42 42 47 45 43 31 40 48 52 44 41 40 36 45 43 42 39 44 38 31
36 34 44 59 64 77 85 88 94 91 82 89 70 65 71 69 65 65 59 47 50 43 45 39 46 41 46 48 45 48 52 44 46 46 47 45 41 38 40 41 40 40 40
36 35 38 48 59 69 79 75 88 89 90 87 81 72 72 73 74 66 53 47 45 46 43 44 47 51 49 47 44 56 47 40 42 39 50 43 40 40 36 33 34 35 40
39 40 41 42 56 64 71 87 99 97 98 98 95 81 77 75 74 72 55 48 45 44 45 46 48 48 52 48 40 42 53 47 44 41 40 39 36 42 40 41 36 38 39
36 39 42 44 45 60 77 89 88 84 92 90 88 93 94 82 80 64 53 56 46 48 46 49 48 54 50 48 48 36 39 39 39 34 40 43 39 34 38 43 45 42 41
35 37 37 41 48 49 58 72 85 74 81 98 98 94 89 92 80 67 56 53 43 48 42 41 46 50 49 46 52 49 43 48 46 46 41 45 43 41 41 44 45 48 46
46 43 43 43 47 52 57 68 81 81 96 97 96 94 89 86 85 69 58 57 47 44 45 45 44 40 41 42 43 42 42 41 44 47 50 50 50 46 46 46 47 50 51

GFSSE_sfc_rhum_039.txt.gz
RH
98 91 85 80 80 81 80 78 81 80 79 74 72 72 69 66 66 68 68 68 66 65 62 66 74 72 70 71 71 69 63 62 64 67 69 69 63 62 65 68 70 68 61
94 89 86 82 79 78 71 78 83 85 81 75 75 70 67 64 60 63 66 67 72 64 65 70 76 70 69 71 68 63 60 64 66 69 69 74 72 61 63 68 66 70 58
93 86 83 83 80 80 80 82 83 82 79 75 75 71 66 63 58 60 67 67 70 75 77 76 73 69 70 66 61 57 62 69 74 75 72 77 74 57 55 63 66 68 59
88 86 84 84 82 80 80 81 81 80 79 76 72 69 67 63 59 60 64 59 68 70 70 70 70 68 65 62 62 66 69 72 74 74 77 71 68 65 59 57 59 63 69
88 85 84 84 81 78 78 77 77 77 77 75 74 70 66 60 59 60 64 68 66 68 68 68 68 68 67 68 66 67 68 73 78 77 77 79 89 68 68 72 70 64 61
94 90 87 85 82 79 78 74 72 74 75 75 73 68 65 61 61 61 64 67 68 67 66 66 66 67 70 68 66 68 74 77 80 84 79 78 83 66 71 71 74 73 72
97 94 88 85 80 78 75 74 75 76 77 71 68 67 65 65 63 65 67 68 68 68 68 70 71 72 73 72 71 73 75 74 81 89 90 88 80 67 68 72 75 76 74
96 92 88 85 82 81 76 76 80 79 74 70 70 66 67 69 66 66 69 71 72 71 72 73 73 74 74 74 73 67 67 76 77 83 84 86 75 67 71 70 72 70 70
93 94 93 89 87 85 82 83 83 80 76 73 74 74 74 77 77 70 70 71 72 72 74 74 74 75 74 67 59 60 71 78 81 80 74 83 74 69 67 69 68 68 67
95 94 96 96 94 94 92 88 88 83 81 77 78 80 82 83 86 80 79 77 74 76 77 76 76 73 65 57 58 73 77 77 86 84 86 81 72 67 64 71 70 65 64
93 96 95 98 97 96 94 88 89 88 86 85 88 88 89 93 92 90 88 84 83 81 80 79 76 68 67 70 60 66 71 78 82 81 85 80 68 65 70 71 69 64 59
92 89 84 97 97 96 82 93 95 92 95 95 94 92 96 96 96 89 91 88 88 87 85 79 74 67 65 49 45 49 68 75 78 87 88 77 66 63 69 67 64 62 63
84 87 84 92 96 95 87 97 99 99 98 98 95 94 97 96 98 98 98 98 98 95 94 78 70 61 47 39 34 44 70 76 97 96 87 76 63 61 67 63 59 58 58
96 89 85 91 97 95 88 92 92 94 98 99 98 94 98 99 98 98 99 98 98 97 91 72 65 44 35 33 30 40 60 84 95 97 90 76 64 59 58 56 53 50 49
96 94 94 95 95 93 94 90 90 91 94 94 97 96 94 98 98 99 98 99 98 94 81 74 53 34 31 32 32 34 51 85 89 94 96 76 66 57 54 50 48 47 45
90 91 90 93 92 91 92 92 88 86 87 92 92 92 92 91 98 97 98 98 98 93 74 65 42 36 36 34 32 33 44 83 88 89 90 85 67 55 49 45 41 41 40
73 78 88 90 89 92 90 92 87 90 82 84 83 88 88 87 95 95 96 98 97 85 65 41 39 40 39 35 37 34 37 68 82 85 83 77 72 59 45 39 38 39 37
44 70 77 79 85 89 88 90 90 90 81 84 77 75 81 82 88 95 94 96 82 58 46 44 45 44 43 40 38 38 40 40 74 78 73 71 61 59 46 37 33 33 36
40 41 71 77 84 87 87 90 88 89 83 91 78 73 75 77 83 86 88 89 66 52 48 46 47 43 42 42 37 40 46 44 50 61 67 60 58 62 53 38 38 35 31
36 40 46 68 74 84 88 91 93 96 90 96 81 73 72 72 79 80 83 75 57 53 50 46 44 47 44 43 34 43 52 55 47 51 57 48 50 51 46 44 48 40 36
39 41 44 70 68 79 92 96 97 94 92 95 86 76 75 74 80 76 74 64 54 47 43 41 44 41 45 48 48 51 53 47 48 46 47 46 45 44 44 44 43 42 41
39 38 41 51 72 73 84 83 87 90 91 88 89 82 80 82 85 80 68 59 50 52 45 44 46 51 49 50 47 57 50 43 44 41 54 49 45 44 39 35 35 36 41
40 41 39 42 58 73 77 84 99 97 98 98 97 89 82 83 81 76 72 56 48 45 44 42 48 47 51 50 44 48 56 50 50 43 45 42 38 46 42 40 38 39 40
40 41 42 43 47 63 81 86 91 90 94 93 87 90 92 88 86 80 71 60 56 50 47 52 48 54 49 48 49 36 41 46 44 37 42 46 42 37 41 44 45 44 44
39 41 42 43 50 52 75 84 91 86 84 91 93 95 95 95 88 87 78 71 64 70 70 60 53 48 52 47 54 51 44 45 45 44 40 44 46 45 44 46 48 50 46
47 44 43 40 40 48 57 83 94 92 96 98 99 97 97 95 92 85 76 75 74 71 72 62 46 44 45 46 47 43 40 40 41 44 46 50 49 47 50 50 51 52 53

GFSSE_sfc_rhum_042.txt.gz
RH
93 94 82 83 80 80 82 81 81 80 80 78 72 72 70 69 70 70 69 68 70 65 64 69 70 66 68 71 68 63 63 65 66 69 73 69 64 64 66 68 69 69 62
93 84 84 83 80 80 81 82 85 84 81 75 73 69 66 64 65 66 67 69 64 65 64 74 74 70 69 69 63 62 64 66 68 68 71 76 73 59 67 68 65 66 61
90 84 85 85 84 81 77 82 84 81 79 76 73 68 65 61 59 62 67 72 74 70 73 77 71 71 69 64 58 64 70 73 74 72 69 77 75 55 58 66 69 62 58
91 91 91 86 81 76 80 83 84 79 78 76 75 71 66 62 59 64 68 69 75 75 74 73 71 68 63 60 66 69 71 73 74 72 76 74 75 66 58 58 58 65 66
94 90 88 85 82 82 82 82 81 81 79 75 72 70 66 60 60 63 59 65 71 71 71 72 71 68 66 68 69 69 73 76 77 75 78 83 89 70 69 72 72 68 62
97 94 89 85 85 84 82 81 80 80 79 76 73 70 64 60 61 64 66 66 70 69 68 67 67 69 70 69 68 73 75 74 79 85 78 80 86 69 70 71 74 74 76
98 96 92 85 82 80 77 78 79 75 75 76 73 68 62 62 62 65 68 69 69 68 68 68 69 71 73 73 73 75 70 75 88 90 91 90 86 68 72 74 73 74 74
96 96 92 86 83 81 79 78 79 78 79 75 72 67 66 64 66 67 69 70 70 70 71 72 74 74 75 75 69 65 71 79 82 88 88 87 77 67 69 70 68 69 68
97 97 96 93 89 86 82 81 80 83 80 76 75 73 74 75 71 69 70 72 72 72 74 74 75 76 72 63 61 66 78 78 86 84 76 88 76 66 67 69 67 66 65
98 97 98 97 95 94 93 86 88 83 82 79 80 80 82 86 82 76 80 78 74 75 77 77 77 71 61 60 70 79 79 78 89 87 88 90 69 64 70 70 66 62 61
94 97 98 98 97 96 94 93 91 88 84 83 86 87 89 94 93 88 88 84 83 81 79 78 76 67 67 69 72 73 72 80 84 87 94 78 65 68 70 69 67 62 60
88 90 94 97 98 97 88 94 96 93 93 94 94 93 95 94 96 92 91 88 86 86 86 81 74 68 61 46 53 64 75 76 86 91 87 76 64 67 68 65 63 63 63
82 84 91 80 98 97 93 97 99 99 98 98 95 95 95 96 98 98 98 98 98 95 97 89 73 58 45 39 43 64 74 88 97 97 89 74 62 64 65 61 59 60 57
85 81 75 80 90 97 95 97 98 99 98 99 98 95 98 100 99 99 99 98 99 98 94 77 64 44 37 32 38 52 76 93 96 97 91 76 62 60 59 56 53 51 50
81 83 78 82 84 94 97 97 98 98 98 91 98 96 98 99 99 99 98 99 99 98 92 75 54 35 34 33 34 43 76 89 91 96 96 76 68 58 54 50 50 47 46
90 82 80 81 85 86 95 96 92 94 97 98 98 97 96 98 98 98 99 99 99 97 85 74 46 36 36 34 34 40 70 87 89 90 94 87 68 57 51 46 43 42 42
92 93 93 90 84 87 94 95 91 92 88 93 94 97 95 95 98 97 98 99 98 97 75 55 40 40 40 36 36 37 51 85 88 87 90 84 74 63 48 41 42 39 39
69 90 93 86 88 87 89 93 95 95 92 90 91 92 94 93 94 98 98 98 98 91 64 47 46 45 44 40 38 40 41 62 83 85 80 76 65 61 50 39 35 36 37
41 51 83 89 91 94 91 93 95 95 91 92 90 83 88 92 91 94 97 97 92 75 57 46 49 45 44 43 38 43 47 44 64 67 74 64 62 65 55 39 39 37 32
41 41 48 80 90 92 93 93 96 97 95 95 92 80 83 84 89 92 96 96 81 65 56 50 46 48 46 44 32 43 55 57 50 71 68 57 56 56 49 51 49 42 42
43 42 43 46 74 89 94 95 95 95 95 97 95 86 84 80 86 88 88 89 77 63 48 43 47 44 48 50 51 54 55 51 48 49 54 54 47 48 46 45 44 43 42
39 42 44 44 49 76 91 91 91 92 93 93 94 91 85 83 86 86 85 86 75 66 52 44 46 51 49 54 49 58 50 46 48 47 57 48 49 49 43 38 38 40 45
45 44 41 44 50 62 79 92 99 98 99 99 98 95 92 86 88 88 84 81 72 69 57 44 43 46 51 52 49 50 58 53 52 47 48 51 45 50 45 42 41 42 43
40 43 43 44 47 62 88 90 94 89 93 95 92 92 94 89 90 87 86 82 74 72 64 57 64 76 63 52 48 39 42 51 50 43 45 48 44 41 46 46 45 45 45
44 46 45 45 48 52 57 86 95 93 90 95 94 95 96 94 91 90 88 86 78 74 74 71 71 62 65 56 54 49 42 48 43 45 41 46 48 48 46 45 49 50 47
67 65 60 49 45 51 58 85 95 94 93 97 98 98 99 98 96 93 89 82 81 75 77 78 73 65 59 55 50 41 42 43 43 41 38 42 41 45 51 53 53 53 53

GFSSE_sfc_rhum_045.txt.gz
RH
70 67 85 82 80 81 82 82 80 82 82 80 75 72 72 73 72 71 70 72 67 66 66 71 67 67 66 68 64 63 66 66 69 72 72 71 66 66 66 67 65 51 64
65 71 84 84 82 82 84 84 86 86 83 77 72 69 68 67 68 68 66 66 66 64 64 76 75 70 67 63 63 65 65 66 66 68 72 75 71 66 66 68 65 53 65
68 64 68 84 85 85 86 85 86 84 81 76 72 68 65 62 62 64 68 74 63 65 73 76 70 70 66 60 64 69 71 71 68 69 72 56 49 57 64 68 67 60 56
71 65 66 87 86 82 84 85 84 80 78 76 73 67 65 60 61 68 69 78 79 79 78 73 70 65 61 64 69 71 71 73 72 71 57 60 59 62 57 57 61 66 63
73 68 73 87 84 78 79 86 83 81 78 76 73 68 65 60 62 67 67 74 74 75 74 72 69 66 67 69 70 72 74 75 74 62 60 66 65 63 69 71 69 64 63
76 70 81 86 80 80 84 85 83 82 77 76 72 70 64 60 63 60 65 71 72 72 70 69 69 68 70 70 72 74 72 76 76 55 60 64 63 70 71 73 74 76 77
78 72 68 82 82 85 85 84 83 82 78 76 74 70 62 61 63 67 66 71 70 69 68 66 69 71 72 73 74 70 71 79 59 60 62 65 64 70 72 70 74 72 72
78 75 68 83 86 85 83 82 83 80 79 78 73 68 63 64 65 68 70 70 69 69 70 72 73 74 75 72 67 68 78 80 66 61 62 63 71 66 70 69 69 67 69
78 76 71 66 76 87 84 83 82 82 83 81 77 74 73 74 71 69 70 71 70 71 73 75 75 75 69 63 63 72 78 78 55 58 59 62 74 64 68 67 66 64 64
82 76 77 74 72 71 68 86 85 86 85 82 81 80 83 81 80 77 80 78 74 76 77 77 77 67 62 66 77 80 79 76 54 60 63 59 66 68 69 67 63 63 62
87 83 82 80 76 74 71 73 87 88 85 83 82 86 84 66 64 66 80 83 81 81 79 79 73 66 68 80 75 74 68 51 55 60 62 75 66 70 69 67 64 62 61
87 88 85 82 79 78 72 72 76 75 64 62 64 65 66 70 70 69 77 87 84 84 86 81 71 65 51 36 48 58 44 46 54 62 61 74 64 68 66 63 64 63 63
77 81 79 83 81 80 73 75 77 83 78 65 67 68 69 72 75 74 71 71 74 86 73 71 59 46 34 31 36 41 46 54 56 61 68 73 61 65 62 60 60 58 55
78 78 76 79 78 83 76 74 72 84 81 74 75 70 73 76 78 79 74 76 78 75 71 66 49 37 32 27 31 40 47 54 58 64 65 74 63 62 58 56 53 52 52
76 74 76 73 72 84 88 80 74 73 78 77 74 75 71 75 76 76 77 76 78 77 68 59 42 31 27 24 27 35 45 50 57 61 58 75 70 60 54 52 51 47 47
73 73 73 74 76 79 87 82 74 71 73 77 75 75 73 71 75 80 79 78 78 76 68 54 39 29 27 25 25 30 44 50 55 61 57 55 70 62 53 48 44 42 44
74 72 72 75 77 82 84 86 77 80 71 76 77 74 74 74 76 79 78 80 76 75 66 54 34 28 29 25 25 27 44 48 53 56 58 54 52 65 53 44 43 39 42
46 76 76 74 78 81 83 90 88 85 81 75 78 76 76 73 75 79 80 79 75 75 64 51 38 33 30 28 27 27 32 48 50 52 56 50 46 40 48 42 38 39 38
32 38 70 80 79 79 81 87 91 86 87 82 76 72 76 76 74 75 78 77 76 76 62 48 39 33 33 32 29 30 30 34 48 49 49 48 46 44 38 43 47 42 34
35 34 38 65 78 80 83 88 93 95 88 83 80 71 74 74 76 76 76 77 77 77 67 48 40 36 33 33 22 28 36 34 34 49 46 41 41 45 38 44 40 37 41
36 37 36 38 58 78 85 91 95 95 93 94 88 81 74 75 78 80 76 75 78 76 68 51 39 38 38 34 37 38 39 37 35 38 46 41 40 40 35 36 30 27 27
35 35 37 38 38 55 74 74 78 82 87 87 89 86 77 75 77 80 78 78 76 74 67 53 42 41 40 38 36 42 40 35 35 34 36 38 36 36 34 32 29 30 32
36 39 38 39 41 43 62 78 84 89 94 92 94 90 85 78 76 79 78 76 77 72 66 57 47 46 45 43 40 34 47 42 37 37 37 38 35 36 34 32 29 31 31
47 50 45 43 42 44 52 74 83 78 84 82 80 86 88 84 80 80 78 76 78 77 71 63 54 55 54 49 49 38 36 36 41 38 34 37 35 33 35 34 30 32 32
59 62 57 45 42 46 46 64 81 84 74 78 84 87 87 90 83 84 80 79 77 78 78 75 64 54 54 53 51 43 37 41 36 42 39 38 37 34 33 30 32 30 34
58 61 60 56 52 46 47 51 77 87 85 88 91 93 91 93 90 86 84 81 78 77 76 75 71 67 61 58 51 42 35 35 40 31 38 36 36 36 36 36 34 34 34

GFSSE_sfc_rhum_048.txt.gz
RH
52 53 87 84 81 80 82 81 81 83 81 79 76 74 75 75 74 72 72 68 67 67 66 68 65 64 68 66 64 66 67 69 71 73 72 71 67 65 64 65 57 43 59
46 49 86 83 83 83 84 84 87 86 82 79 76 71 70 70 70 68 65 69 65 65 71 72 70 66 65 64 65 65 65 65 68 69 71 72 75 66 70 66 60 56 66
45 47 62 85 85 86 87 86 86 82 79 76 71 68 66 66 65 65 74 69 66 65 76 73 69 68 63 65 68 69 68 66 70 72 66 39 40 61 66 70 63 57 56
47 48 53 88 87 87 87 84 83 80 78 76 71 68 62 60 62 67 78 76 73 76 76 72 68 62 64 68 70 70 70 69 70 68 44 43 42 59 56 59 64 65 62
47 44 55 88 88 87 87 86 83 80 78 76 73 67 64 59 68 70 76 78 79 76 72 70 66 65 67 70 70 71 72 70 69 57 49 53 56 64 70 68 63 61 63
45 44 78 88 82 82 85 87 83 80 78 74 71 68 63 60 66 64 75 75 75 75 73 70 67 70 71 71 72 71 72 74 71 46 48 55 60 72 73 76 80 76 75
46 44 57 87 83 80 84 86 85 81 78 73 70 69 62 62 63 60 70 73 72 70 67 68 69 70 72 73 73 69 73 75 45 46 47 50 58 71 71 72 70 72 74
49 48 49 76 80 82 83 85 86 82 79 75 74 67 63 64 66 67 68 70 70 68 67 69 71 73 74 72 67 70 79 76 52 45 47 56 70 69 70 68 68 68 69
50 48 46 53 71 86 86 87 86 84 82 81 78 71 72 73 71 69 70 70 69 70 72 74 75 75 69 63 65 77 79 73 42 44 43 52 72 67 68 66 65 66 65
54 49 46 46 50 53 57 87 87 86 86 84 82 82 82 81 80 76 80 76 72 74 76 77 75 65 64 72 75 78 78 74 44 48 43 51 67 69 70 64 63 62 63
59 52 50 47 48 48 45 58 84 90 89 86 80 86 81 46 54 63 74 82 81 80 79 79 69 66 77 80 78 74 70 38 38 39 39 73 69 70 68 64 62 61 62
76 65 53 51 49 48 46 47 44 52 63 54 49 52 46 45 44 46 66 86 83 82 84 78 70 64 57 36 43 58 32 35 36 40 42 73 70 67 65 64 64 63 62
72 73 70 56 50 49 48 46 42 48 48 46 43 43 44 47 53 54 49 55 55 78 54 66 58 37 33 29 31 30 33 33 30 38 57 73 69 64 60 60 61 58 55
69 69 68 67 55 51 47 48 43 46 51 49 46 42 46 49 52 52 49 47 49 51 51 55 46 39 35 29 29 30 30 31 31 35 56 75 67 60 58 56 54 53 54
66 68 68 70 61 56 56 49 47 46 51 49 51 47 44 48 50 50 52 49 46 47 48 50 47 36 30 26 25 26 27 28 31 37 40 75 72 61 56 52 52 50 50
53 59 65 67 64 55 75 59 53 49 46 51 52 52 50 46 49 52 52 54 51 49 48 47 45 35 30 25 24 24 25 26 29 35 34 50 73 65 54 52 46 45 48
34 42 51 58 59 62 70 79 61 57 55 50 51 49 52 50 49 50 51 53 55 52 48 49 43 34 29 24 24 22 26 26 29 34 37 36 50 69 58 47 44 42 44
22 26 34 45 54 58 69 79 81 66 59 55 53 50 51 51 51 51 53 53 53 54 51 51 45 38 32 28 25 24 24 29 28 30 36 37 37 34 50 48 44 41 42
20 21 23 36 45 51 60 72 84 82 68 58 59 58 55 54 54 53 52 52 54 57 55 52 48 41 36 32 28 25 24 27 30 30 33 37 37 34 32 49 51 49 38
23 22 22 24 34 42 51 73 88 92 83 62 58 58 60 57 57 58 53 52 53 60 59 54 48 42 37 34 24 24 27 24 27 31 30 32 32 36 33 32 34 34 40
23 24 25 26 27 32 43 81 93 92 91 90 73 63 59 59 59 62 57 53 54 58 61 57 50 46 41 33 31 33 30 28 26 27 32 32 32 33 31 32 29 25 29
21 21 23 25 27 27 34 47 63 72 77 75 84 81 71 63 64 63 63 56 56 59 61 62 55 50 44 35 39 40 42 33 29 27 28 31 30 29 29 28 26 25 25
32 31 27 27 28 30 30 36 50 59 68 72 80 76 74 73 66 67 69 63 64 60 62 64 60 55 52 40 35 40 49 50 35 31 30 31 30 29 29 28 27 26 26
42 45 41 36 31 30 33 33 39 55 65 62 59 64 71 75 77 69 71 70 68 72 64 64 59 57 55 51 40 33 34 33 38 44 33 33 29 27 29 29 27 28 28
46 49 44 38 36 34 32 34 36 46 53 52 53 60 62 69 80 80 73 76 72 72 74 67 65 59 58 50 48 42 37 36 31 37 40 38 34 31 30 30 28 27 27
45 46 46 41 37 38 41 35 38 42 50 55 62 67 68 72 78 84 81 79 77 73 73 71 72 67 64 61 49 43 40 42 37 32 33 39 40 33 33 35 33 29 30

GFSSE_sfc_rhum_051.txt.gz
RH
45 56 88 82 81 81 81 80 81 83 83 80 78 77 77 76 74 72 70 68 68 66 68 68 66 69 67 66 68 68 69 69 70 72 73 73 66 63 62 64 63 47 62
42 49 89 84 83 82 84 84 85 86 83 79 77 74 72 72 69 66 67 67 64 65 69 67 68 67 66 66 65 65 64 66 66 64 74 77 77 70 69 63 67 61 62
41 49 60 82 86 87 86 86 85 83 80 76 72 69 68 67 65 66 71 66 64 68 74 69 68 64 66 67 69 67 65 69 68 65 69 38 48 64 68 66 64 58 58
39 47 50 88 88 87 86 85 83 80 77 73 71 66 62 61 66 78 73 68 67 76 74 70 65 64 68 69 70 69 66 68 67 69 44 38 41 60 57 62 65 64 60
39 42 60 89 89 87 87 86 82 79 78 74 71 67 62 63 70 78 80 80 80 74 70 67 64 67 69 70 71 70 67 65 67 58 46 57 63 67 70 70 67 68 62
37 39 79 90 88 88 87 86 82 80 77 73 71 69 61 66 69 76 78 79 78 76 71 68 67 70 71 72 72 71 70 66 73 43 46 64 66 73 75 76 76 76 73
36 45 58 88 85 86 86 84 84 80 76 73 69 68 61 65 64 76 75 74 73 71 69 68 69 71 72 74 70 69 71 72 53 44 47 65 67 72 71 72 72 73 73
37 42 52 80 84 81 83 84 85 82 78 75 74 66 62 65 65 66 72 72 71 68 67 68 70 72 74 71 68 71 73 76 49 42 58 64 73 69 68 67 68 69 68
39 40 45 51 66 83 82 83 86 85 83 80 77 70 70 73 74 71 72 71 69 69 70 72 74 74 68 64 70 76 75 74 51 43 48 62 73 68 66 66 66 65 66
43 39 40 45 57 63 61 85 88 88 88 84 80 81 81 80 79 75 79 75 71 73 75 76 75 66 65 69 75 76 75 74 42 46 47 60 72 69 66 65 60 63 64
45 42 38 39 44 44 44 64 85 91 91 86 82 86 81 49 56 66 74 81 81 80 78 78 69 67 79 82 78 74 76 41 38 39 48 76 71 69 66 62 60 63 64
53 44 41 40 40 42 39 49 48 49 66 66 57 59 45 40 42 44 69 85 81 82 84 76 70 70 78 45 53 65 41 36 36 39 56 78 68 66 65 64 64 63 60
67 58 47 44 42 41 40 40 39 40 59 55 45 45 40 40 46 45 52 58 60 78 60 70 64 44 36 32 36 33 34 34 31 38 66 76 67 63 62 62 62 58 55
61 65 66 50 46 43 40 40 36 40 43 41 42 38 40 43 47 46 43 46 50 50 50 58 54 42 37 33 31 32 33 32 30 35 65 73 70 63 59 58 56 54 54
54 59 64 64 55 48 46 40 39 39 43 43 43 40 38 44 45 46 44 44 44 43 44 51 47 41 38 33 30 30 29 28 28 35 53 75 75 64 58 55 53 53 53
45 49 55 64 66 53 49 47 44 42 42 46 45 46 41 41 45 47 46 46 45 43 43 43 45 43 36 31 30 27 28 27 26 33 42 60 75 68 57 54 50 48 51
34 38 45 52 57 58 49 59 50 48 45 45 48 46 46 45 45 46 48 48 48 45 44 44 44 41 37 31 29 27 29 28 29 30 36 48 60 71 65 54 48 46 48
22 24 30 39 48 51 50 59 67 52 49 49 46 46 47 47 47 47 49 49 46 48 50 47 48 46 40 35 32 30 28 30 28 28 35 36 48 46 61 57 49 45 46
20 21 22 24 32 43 45 55 77 80 69 54 50 49 47 48 47 48 48 48 45 51 59 52 50 46 45 41 36 32 30 33 31 27 31 38 41 42 45 62 60 56 48
17 18 19 20 20 26 35 43 74 89 83 72 56 52 53 50 51 53 51 49 46 52 58 55 53 50 46 44 33 31 35 32 34 34 32 31 37 44 43 45 48 47 51
21 22 21 22 22 22 30 38 71 87 91 84 72 56 54 56 56 57 56 53 51 52 56 56 55 55 53 45 45 40 39 34 30 32 34 34 38 40 39 39 38 36 42
20 19 20 22 23 23 25 29 41 62 69 79 84 78 64 57 58 58 60 60 55 57 57 58 59 60 54 48 47 52 56 44 36 32 31 33 35 37 38 35 35 36 38
34 36 29 25 26 26 28 28 33 44 59 66 76 80 73 71 66 63 64 63 62 59 62 62 63 64 62 52 46 50 66 64 47 39 34 34 35 37 37 36 33 33 32
42 45 38 35 32 28 29 31 34 37 49 55 56 56 61 62 69 72 73 70 68 67 63 64 63 70 64 61 54 43 47 44 57 53 44 38 36 33 36 38 32 33 35
45 48 44 38 33 34 32 31 34 35 36 41 47 51 52 56 64 73 73 75 77 76 76 68 68 70 64 59 60 64 52 49 42 51 52 47 39 37 35 35 37 35 35
44 47 46 40 36 34 35 36 35 40 37 38 46 52 52 55 63 68 78 80 81 83 80 79 73 78 70 71 56 61 56 55 51 48 53 49 45 42 39 40 38 35 36

GFSSE_sfc_rhum_054.txt.gz
RH
71 85 86 87 85 85 84 82 83 84 84 81 79 79 78 76 74 72 69 69 69 70 70 69 70 68 68 69 69 68 67 68 69 72 75 73 68 61 64 68 67 60 66
64 74 87 86 84 86 85 85 88 87 84 80 77 74 73 72 69 68 70 66 67 70 67 69 68 67 68 66 66 65 65 63 62 72 80 82 80 71 63 66 71 64 66
59 67 79 85 85 87 88 86 87 84 80 77 74 71 70 69 64 70 68 68 67 74 71 68 66 67 68 70 67 65 67 65 65 69 77 70 74 67 68 70 64 60 62
57 63 67 87 89 89 88 85 84 80 76 73 71 68 64 63 74 73 70 68 74 75 72 67 66 69 69 71 69 66 66 65 67 76 70 55 56 62 62 64 65 64 65
57 56 78 90 90 89 88 86 84 82 76 73 70 66 63 69 78 77 77 78 79 74 68 66 68 69 71 72 70 66 63 63 73 67 74 82 83 71 74 76 75 68 68
52 77 92 91 90 90 87 85 83 81 76 73 71 66 65 73 77 78 80 79 80 77 70 68 69 72 74 73 72 70 67 69 76 61 76 79 85 73 73 74 75 76 77
69 75 86 91 90 89 84 83 84 82 76 73 72 65 64 70 78 77 77 77 75 73 70 70 71 73 75 73 70 69 68 75 70 66 68 81 82 69 68 72 72 71 74
68 66 76 88 90 88 83 82 83 82 79 75 72 65 65 67 74 76 75 74 71 70 70 69 72 74 75 71 70 71 73 77 64 76 72 78 77 68 68 69 68 69 70
52 64 69 73 82 87 84 84 82 85 81 78 77 72 74 77 76 72 74 73 71 70 72 74 74 75 69 68 72 74 77 78 78 66 62 81 76 66 67 66 67 67 68
52 56 62 66 71 76 77 84 86 88 86 84 80 81 81 80 81 79 81 78 75 75 77 78 76 68 67 69 74 74 76 77 69 66 73 85 72 68 66 63 64 66 66
54 53 54 60 68 74 74 82 89 90 90 87 85 87 85 78 80 82 82 81 82 82 82 79 71 71 81 83 79 78 76 70 62 66 83 81 70 67 65 63 62 64 64
73 56 52 55 61 60 51 85 84 81 93 74 75 85 74 68 70 62 84 85 84 86 86 78 73 76 81 81 83 77 75 60 56 74 89 80 69 66 66 65 65 63 60
77 69 55 55 55 57 55 73 63 67 79 80 69 72 70 56 70 75 93 89 93 90 91 86 82 72 67 65 66 62 56 51 54 74 84 79 68 65 64 64 64 59 58
79 80 73 71 58 57 57 60 57 57 71 78 70 62 61 66 66 66 74 79 83 83 85 89 84 68 61 47 49 50 48 51 49 76 87 82 72 63 60 61 59 57 57
73 69 73 77 73 62 58 59 58 56 62 63 63 57 56 66 69 63 66 63 69 72 72 80 81 68 57 50 47 46 46 45 43 70 86 84 76 66 59 58 56 56 56
63 69 71 75 78 72 65 62 59 58 59 63 63 64 55 62 66 70 68 65 65 66 68 71 74 66 58 54 46 42 44 44 42 62 82 88 78 72 60 57 56 54 55
53 56 66 70 73 78 73 70 67 66 60 66 67 61 60 58 65 65 70 72 71 64 61 64 64 66 59 50 47 42 43 43 41 46 75 81 83 76 68 57 54 52 54
34 33 50 55 67 72 71 70 80 76 66 68 65 66 62 60 61 67 71 72 71 70 69 70 72 73 64 56 52 47 44 45 43 43 53 73 78 69 73 66 56 51 51
30 30 32 32 50 64 65 70 83 83 88 82 68 68 66 60 60 61 70 72 67 73 75 73 75 73 68 62 52 52 46 50 45 38 50 54 72 72 71 69 66 62 56
29 29 31 32 33 32 49 65 88 97 87 91 83 74 68 67 68 66 67 69 66 73 80 81 76 76 68 66 44 46 50 49 51 49 46 47 55 59 66 66 68 64 64
27 29 31 32 33 35 40 52 96 98 97 96 79 81 79 75 72 82 72 67 68 65 70 72 79 78 77 69 63 60 56 47 44 51 51 51 53 54 58 59 60 61 61
33 36 36 32 34 35 39 40 56 94 92 91 89 79 84 83 75 79 83 77 77 77 78 74 72 78 80 72 69 66 66 61 54 45 48 47 52 56 52 52 49 52 54
53 55 46 43 40 38 40 44 48 52 89 94 94 90 80 81 87 84 77 77 92 89 87 79 83 80 80 84 58 67 84 80 64 56 44 51 49 56 55 50 46 45 48
60 62 57 51 45 40 41 45 48 53 59 76 86 88 88 86 87 84 87 85 74 76 82 84 87 91 92 79 86 51 75 69 68 61 55 50 48 47 48 54 43 41 38
59 63 62 57 50 46 48 47 51 52 53 54 55 67 79 84 86 88 85 84 87 83 88 83 89 88 84 84 72 88 68 69 56 69 67 64 49 52 50 43 44 40 38
61 63 64 58 52 50 51 51 52 52 56 57 59 65 74 76 82 88 90 83 79 90 90 92 88 93 90 84 78 82 78 71 69 69 82 74 66 57 50 47 45 43 45

GFSSE_sfc_rhum_057.txt.gz
RH
95 92 89 87 84 84 84 82 83 85 84 80 79 79 77 75 73 71 70 71 72 72 70 70 69 70 70 69 67 66 66 65 66 72 75 76 65 66 67 67 67 66 65
91 87 90 87 86 86 86 85 88 87 84 82 79 76 74 71 69 70 67 69 73 68 69 68 68 69 68 66 65 64 62 63 69 74 85 83 80 66 65 67 68 68 67
85 85 85 88 89 88 88 87 86 84 82 78 75 73 71 65 69 68 68 68 72 73 67 67 68 69 70 67 66 65 65 66 65 74 78 79 77 70 69 66 65 63 64
80 82 82 87 89 90 88 86 85 81 75 73 72 69 64 72 73 70 69 71 76 72 68 69 69 69 70 68 66 65 66 67 69 76 73 61 62 65 67 67 65 70 64
74 73 83 88 90 90 87 87 84 79 74 72 69 66 68 77 72 70 74 79 76 71 69 69 69 70 72 70 65 63 64 68 78 76 87 91 90 75 75 76 70 72 72
72 87 92 92 91 90 89 87 84 78 75 72 68 66 74 78 77 79 78 80 79 77 70 69 72 74 74 72 69 67 67 72 76 81 91 84 86 72 72 76 77 79 77
86 88 91 92 91 89 84 82 83 82 75 73 68 66 75 78 78 80 79 78 76 74 71 71 73 75 75 72 68 67 69 78 71 76 91 89 75 72 70 70 68 72 74
86 86 86 93 92 85 82 80 83 82 79 74 69 65 72 79 78 78 77 75 73 71 70 71 74 76 74 71 69 68 74 79 71 87 89 89 76 68 69 69 70 71 72
78 84 92 92 91 88 83 81 82 83 80 80 76 73 77 80 80 76 76 74 72 71 71 74 75 75 70 70 70 70 77 78 78 81 76 89 76 65 68 68 68 68 68
78 80 86 90 87 90 80 85 87 85 85 84 81 82 83 84 83 81 83 80 76 75 77 78 77 70 68 72 70 75 78 79 79 82 88 89 72 67 65 66 67 66 66
73 75 74 81 87 87 80 79 89 88 88 86 85 86 86 90 88 86 86 83 84 83 82 80 74 72 80 82 77 77 78 75 77 87 93 82 70 67 66 64 66 64 64
75 73 70 73 79 84 69 92 95 90 96 90 87 89 88 88 88 78 87 87 86 87 88 81 75 80 84 89 86 79 78 72 81 91 95 80 70 68 66 67 66 62 61
87 77 69 70 72 76 74 91 97 98 98 89 87 86 87 74 85 89 97 95 96 93 97 89 87 87 88 82 79 74 68 61 83 93 88 80 70 67 67 66 64 60 59
86 86 80 77 70 69 79 79 80 82 93 90 83 80 84 82 83 88 93 96 97 95 97 96 95 80 70 67 72 65 60 56 73 94 93 83 73 66 64 66 62 60 59
85 80 79 82 85 69 69 70 72 70 79 86 84 76 72 78 73 78 86 86 92 93 95 98 96 85 74 64 56 55 56 53 62 92 98 86 78 68 63 61 60 60 59
84 77 75 80 83 84 75 65 67 65 68 79 79 71 64 69 66 72 75 76 81 84 81 84 87 87 78 62 54 52 51 51 51 90 92 92 83 74 64 60 60 59 60
74 74 77 78 77 82 85 78 70 68 66 72 69 66 60 66 74 73 75 79 69 74 77 83 88 84 71 62 56 50 49 50 49 90 89 94 87 80 71 59 59 58 59
51 72 77 66 77 82 85 84 80 78 81 74 73 72 64 64 68 74 78 80 78 71 69 75 80 82 72 65 57 53 48 50 48 62 86 89 90 79 77 68 63 57 58
35 37 64 74 81 84 87 83 87 85 85 89 81 68 65 63 66 70 76 79 76 82 80 71 80 79 78 70 58 56 52 53 50 43 70 85 86 81 81 78 74 67 64
33 34 35 35 49 78 76 82 92 94 90 92 92 90 81 73 71 74 72 74 76 81 86 89 82 85 78 70 49 49 58 54 56 54 51 67 77 77 76 76 78 73 71
36 36 38 35 37 39 42 73 98 94 96 97 94 84 87 91 85 84 74 72 78 74 69 84 86 84 82 75 67 67 63 57 55 57 56 57 66 69 74 69 70 69 69
58 57 50 46 42 40 45 48 69 97 98 93 94 93 89 92 94 92 92 89 87 84 86 90 85 92 88 83 79 70 64 59 59 51 57 51 58 61 65 64 62 63 66
62 65 61 56 50 46 43 46 50 57 80 98 97 97 94 91 91 92 94 92 91 95 89 90 90 90 90 95 84 72 84 74 71 64 48 51 51 63 58 60 56 55 56
64 64 62 59 56 48 47 47 50 54 60 72 82 95 96 93 92 91 93 94 96 96 94 93 94 95 96 94 96 71 87 79 72 69 61 62 60 58 62 62 55 49 50
62 66 65 60 55 55 57 55 56 56 61 63 61 62 72 94 95 93 92 94 97 98 96 96 96 94 92 87 88 92 87 94 81 77 73 78 72 73 70 57 59 51 45
64 65 64 63 60 57 59 60 62 66 61 62 63 65 68 76 87 93 95 94 95 94 94 94 96 97 96 94 90 84 81 80 81 84 86 88 89 86 72 61 55 54 58

GFSSE_sfc_rhum_060.txt.gz
RH
95 96 90 86 83 83 83 82 83 84 83 79 79 76 76 74 72 73 72 74 72 71 70 70 71 71 70 66 64 65 66 66 67 75 75 72 70 66 67 70 70 67 66
95 92 90 87 86 85 85 85 88 88 86 83 79 76 72 71 70 69 70 72 70 68 67 67 68 69 66 64 63 64 66 68 73 79 84 83 78 68 66 70 71 70 66
93 88 88 88 88 88 87 86 86 84 84 81 76 74 68 65 68 68 69 73 72 68 68 67 67 69 67 65 66 66 65 66 72 74 76 84 84 69 63 65 66 64 64
88 88 89 90 90 89 87 85 84 80 77 76 74 69 67 74 70 69 70 76 72 69 69 68 69 70 68 66 68 69 68 68 69 75 74 67 66 68 69 65 70 66 65
89 86 87 91 91 89 86 86 82 76 73 72 70 67 76 73 71 69 76 78 72 71 70 68 70 70 68 66 66 66 68 72 81 82 83 93 92 75 73 71 72 73 75
91 94 86 91 91 89 89 86 81 75 72 70 68 73 78 77 70 78 81 79 78 76 70 70 72 73 72 70 68 68 70 76 84 95 95 84 85 73 72 75 79 76 74
95 94 86 90 90 90 89 86 83 76 74 70 67 77 79 75 80 79 78 78 76 73 71 72 74 75 73 70 68 69 72 78 82 94 92 87 76 73 71 67 72 77 77
90 90 89 93 89 89 86 86 84 81 75 71 67 76 76 78 78 78 78 76 74 72 72 72 74 75 72 69 67 70 74 77 84 94 92 90 76 67 68 69 69 70 71
87 94 97 95 89 84 83 82 84 84 81 78 74 78 82 83 82 79 77 75 73 72 72 74 76 75 72 69 67 71 76 79 92 92 83 91 76 65 65 68 68 68 69
91 96 98 97 93 87 78 85 87 87 86 82 80 84 85 89 86 83 84 81 76 75 76 77 77 73 70 70 70 75 75 80 90 88 91 91 71 66 68 67 67 67 66
91 93 96 96 95 93 90 85 89 89 89 87 86 87 91 94 92 89 89 85 83 82 81 79 76 73 79 81 77 77 75 78 90 94 96 84 71 67 66 66 66 64 63
95 89 85 89 92 93 75 94 95 89 94 92 91 92 95 94 95 87 90 89 87 88 87 83 77 80 85 92 88 81 82 74 88 96 97 82 69 67 65 66 66 63 62
90 87 82 85 88 92 86 98 99 99 98 96 93 92 92 88 95 96 97 96 97 95 98 94 92 95 90 87 82 83 77 69 96 98 92 82 71 68 67 67 65 61 61
89 86 80 81 88 92 93 95 98 99 99 98 94 90 94 93 93 96 98 98 98 98 98 98 98 91 83 83 83 77 68 66 93 98 96 85 76 67 67 67 64 61 60
85 86 88 87 82 82 94 91 94 95 98 96 94 88 87 90 88 94 96 98 98 98 98 99 98 94 86 73 68 74 65 65 73 98 98 89 81 72 66 66 63 61 60
85 82 81 86 88 78 85 87 81 84 87 97 92 85 81 78 79 83 89 89 92 94 96 97 97 97 92 79 66 62 59 61 62 94 98 96 84 78 69 64 63 61 61
85 79 77 77 83 89 80 78 78 72 77 86 88 84 79 75 76 74 78 82 81 84 90 93 96 96 96 78 67 57 54 55 57 92 96 97 92 84 76 64 62 62 61
86 83 78 70 79 85 89 90 82 78 75 75 78 77 74 70 75 76 75 78 75 82 81 91 88 96 94 87 74 63 54 54 53 75 93 95 96 85 80 73 66 62 62
53 66 89 83 81 84 88 89 91 87 90 91 82 78 70 66 67 72 75 76 82 76 77 80 88 89 94 84 72 65 59 56 56 49 92 94 95 90 87 80 78 73 69
38 39 42 50 69 90 92 93 95 96 95 92 93 92 82 76 74 83 86 82 82 87 91 90 80 92 87 79 62 56 63 58 60 60 59 83 90 90 86 85 87 78 77
54 50 44 40 42 46 67 90 97 97 96 97 96 90 92 92 90 92 91 89 93 88 80 89 92 88 88 90 82 68 67 64 59 61 62 64 85 85 86 81 82 84 75
65 65 61 56 50 44 49 53 69 96 98 97 96 95 94 94 96 95 96 94 91 93 93 92 94 94 95 95 92 88 71 66 61 59 65 56 61 79 80 78 76 79 76
69 71 64 63 60 53 47 48 53 56 70 96 98 98 96 94 94 96 96 96 96 96 93 93 95 95 88 97 94 91 85 80 75 68 58 52 53 66 71 78 76 72 69
69 71 66 63 59 56 58 56 51 54 56 65 75 85 80 92 95 94 95 96 96 97 97 94 94 94 96 93 98 90 94 86 76 80 67 68 68 61 68 78 74 71 66
69 71 70 65 62 61 61 63 64 63 64 64 64 63 64 67 78 94 96 96 98 98 97 97 97 98 97 94 97 97 90 94 88 86 76 82 92 84 79 68 66 66 63
71 72 72 67 68 68 70 72 73 76 76 75 79 78 80 78 87 89 90 97 97 97 97 97 97 97 97 97 95 94 91 90 86 88 90 88 91 92 91 76 68 61 63

GFSSE_sfc_rhum_063.txt.gz
RH
97 97 89 84 83 83 82 81 81 83 82 78 77 73 74 74 74 73 74 74 74 72 70 71 71 70 66 65 65 67 66 68 72 72 73 76 70 67 72 71 73 69 64
95 93 89 86 84 84 84 84 87 87 86 82 76 74 73 71 71 71 74 70 68 68 67 68 70 67 64 63 66 68 68 69 77 80 83 82 78 66 70 72 72 69 66
95 91 89 88 88 88 86 86 88 86 84 81 77 74 69 69 68 70 73 71 69 68 66 66 68 67 65 67 67 66 68 70 70 75 79 88 85 64 64 66 66 64 62
92 92 92 90 90 88 86 85 84 79 77 76 74 68 69 69 69 69 75 73 70 69 68 67 70 68 67 71 71 69 69 69 69 74 73 75 73 69 63 66 69 64 65
93 93 91 92 90 88 85 83 79 77 75 75 71 69 75 71 70 70 78 74 72 70 68 68 70 68 68 70 68 68 70 73 81 79 82 93 92 76 67 70 73 75 76
98 96 95 92 91 90 88 84 77 74 73 71 69 76 78 72 70 77 79 77 78 73 69 70 70 70 69 70 69 70 76 83 88 94 95 88 86 73 73 76 78 77 76
97 95 86 92 91 90 87 84 80 74 71 70 72 79 79 73 77 82 79 77 75 72 70 72 72 72 72 69 68 71 75 84 95 95 92 92 79 66 64 64 64 77 77
94 94 80 91 91 90 88 86 83 76 72 69 76 80 76 75 79 78 77 76 74 71 71 73 73 72 70 68 68 71 77 84 89 94 92 91 75 65 66 67 66 68 70
93 96 96 95 92 92 91 88 85 81 79 76 79 82 84 86 85 80 77 75 73 72 71 73 74 72 70 68 67 71 77 87 94 96 86 93 76 63 66 67 67 67 68
98 98 99 98 88 78 80 90 89 87 85 81 81 87 90 90 88 82 84 82 77 74 74 76 75 73 71 70 69 76 78 86 93 93 94 93 70 63 66 67 66 65 64
97 99 99 98 95 92 89 84 91 91 89 86 86 91 94 96 93 91 91 85 83 82 79 78 78 74 79 81 78 79 77 85 92 96 97 86 69 66 66 66 64 63 62
99 98 98 97 96 95 80 93 95 92 96 94 92 93 96 95 95 90 93 90 86 87 87 82 81 80 86 93 91 83 84 78 88 96 98 87 70 66 66 66 66 63 61
95 96 95 96 96 95 92 98 99 99 98 97 93 94 95 93 97 97 98 97 97 96 98 95 93 95 92 89 85 86 83 74 93 98 94 88 72 68 66 67 66 62 61
94 94 92 92 95 96 97 98 99 99 98 98 97 94 97 98 97 97 98 98 98 98 98 99 98 96 93 89 87 81 76 72 90 98 96 90 80 69 67 68 67 62 60
93 91 89 90 94 96 96 98 99 99 99 98 97 95 94 96 96 97 97 98 98 98 99 99 99 97 95 84 74 75 70 66 68 98 99 94 87 78 67 68 67 63 61
91 91 88 88 88 90 96 96 97 98 98 99 98 94 91 89 90 94 97 97 98 98 98 98 98 98 97 94 80 70 66 62 62 81 97 97 90 84 74 67 67 63 62
90 84 88 87 90 85 87 93 92 90 90 98 97 96 89 86 86 82 90 97 92 97 96 98 98 98 98 94 90 74 64 61 64 69 96 98 95 88 82 67 66 64 62
89 87 84 73 88 92 82 86 86 83 86 90 96 96 91 85 83 82 84 86 86 93 93 97 97 98 98 98 96 84 68 61 58 60 90 97 97 94 87 80 73 66 64
86 90 89 86 87 89 93 93 90 85 84 83 89 88 86 83 82 80 79 79 85 84 86 88 94 94 97 96 95 89 79 65 59 52 75 94 96 96 94 86 84 79 74
46 49 70 80 82 91 93 95 96 97 96 96 96 89 84 78 80 86 87 84 89 89 91 94 84 96 91 90 84 79 78 69 64 63 59 78 92 95 95 93 90 84 82
57 50 47 42 44 56 93 96 97 97 96 97 97 93 93 94 88 89 88 90 93 93 89 94 94 92 95 93 88 85 75 70 67 60 68 70 88 90 93 88 84 92 83
68 68 64 60 55 48 52 58 81 96 97 98 97 96 94 95 96 96 96 95 95 96 95 94 95 95 96 97 95 92 90 79 70 59 69 60 59 83 92 90 85 90 88
71 72 67 65 62 57 52 52 56 58 70 89 94 97 96 95 96 97 97 98 97 97 97 95 95 95 93 98 95 92 90 86 86 72 67 65 57 73 85 94 92 87 87
74 71 68 65 63 61 63 60 54 55 55 61 70 73 62 66 82 93 96 97 98 98 99 97 96 95 96 96 99 94 94 84 85 87 74 72 70 71 85 94 95 87 82
72 73 73 68 68 70 69 69 69 66 66 67 67 66 67 72 87 88 92 98 99 99 98 98 98 98 97 97 98 98 96 96 89 92 89 89 88 90 91 90 88 82 76
78 79 75 72 72 73 76 80 83 82 81 82 86 89 89 88 94 93 92 95 96 99 99 99 98 98 99 99 99 98 94 94 97 97 96 92 93 90 94 92 90 86 78

GFSSE_sfc_rhum_066.txt.gz
RH
97 97 88 84 84 83 82 82 81 82 80 78 76 75 75 74 73 74 73 75 73 71 73 72 68 68 66 67 67 67 69 72 72 76 78 76 69 73 72 73 74 72 65
95 96 88 86 84 83 83 82 86 87 85 80 74 70 73 72 71 74 70 70 68 67 68 70 68 64 65 68 69 69 70 74 74 77 82 82 77 70 72 71 68 69 66
91 93 89 88 87 88 87 85 86 85 84 80 76 74 71 69 70 73 71 70 69 67 66 68 68 66 67 68 69 70 69 69 74 78 80 89 80 64 65 66 66 64 63
93 95 93 89 90 87 86 84 85 82 79 77 73 68 67 69 69 74 73 71 71 67 67 70 69 68 72 72 71 70 70 69 70 73 80 83 76 66 65 72 68 68 68
96 96 94 91 89 87 86 84 80 79 78 75 70 73 72 70 68 76 74 72 72 69 69 70 69 68 72 70 70 71 71 76 77 77 91 93 94 72 71 75 77 76 79
97 97 95 91 91 89 86 83 78 76 74 72 70 77 72 71 69 75 76 76 74 70 69 70 69 69 70 71 70 76 80 82 84 93 95 89 89 71 69 71 70 75 75
98 97 95 92 91 89 86 83 78 73 72 71 76 78 74 71 75 81 78 77 74 70 71 71 71 72 72 70 71 75 81 88 95 95 94 91 80 64 63 64 63 68 75
97 97 94 93 92 89 85 84 81 74 71 72 79 80 80 78 83 80 77 76 73 71 71 72 73 72 71 70 70 74 82 87 90 93 92 92 76 67 66 69 68 64 70
96 96 92 92 95 93 89 87 84 80 77 78 82 82 83 86 86 81 77 76 73 71 71 73 74 74 72 71 70 73 79 89 94 95 87 94 77 64 67 68 68 68 68
98 97 96 96 96 96 95 91 88 86 83 81 87 89 91 91 90 85 85 82 78 75 74 75 76 74 73 74 72 74 80 88 93 93 95 94 70 62 66 66 66 64 64
94 93 98 98 95 92 94 92 92 89 87 85 89 94 95 96 94 92 92 88 86 82 77 77 77 76 79 82 78 78 78 93 93 96 97 85 69 65 65 66 63 62 62
91 96 99 98 96 94 82 96 96 93 95 93 92 94 97 96 96 92 94 90 87 87 87 81 82 82 86 93 92 83 87 82 87 96 97 86 74 65 66 66 65 62 60
97 98 99 98 96 95 94 98 99 99 98 97 93 95 96 95 97 98 98 97 97 96 98 95 96 96 92 92 88 90 88 83 82 97 94 87 78 67 67 66 67 62 60
97 96 97 97 97 96 98 98 98 99 98 98 97 94 97 98 98 98 99 97 98 98 98 98 99 97 94 92 89 87 83 79 77 97 96 92 86 71 66 67 68 64 61
96 95 95 95 96 97 97 98 99 98 98 97 97 96 97 97 97 97 97 98 98 98 99 99 99 98 96 94 86 86 85 80 73 90 98 95 91 82 70 66 68 66 62
94 94 93 94 94 96 97 97 98 99 98 98 98 97 95 96 94 96 96 97 98 98 98 98 98 99 98 96 95 87 76 77 74 72 94 97 92 89 79 68 67 67 64
93 91 92 90 92 95 96 97 98 98 96 99 99 97 95 94 94 88 95 97 97 97 96 97 98 98 99 97 97 95 86 74 70 68 77 96 96 93 87 73 67 68 66
91 91 92 79 90 93 94 95 97 95 97 98 98 98 96 93 92 92 91 94 94 97 98 98 98 98 98 99 98 97 94 79 69 64 68 89 97 96 91 85 78 70 68
91 92 92 89 92 94 94 93 95 93 93 93 96 98 96 95 91 91 89 86 91 96 97 95 96 97 97 97 97 97 97 91 80 63 62 74 92 96 97 90 87 85 79
48 69 85 93 92 93 96 96 97 97 96 93 90 91 92 92 94 94 95 92 91 94 96 96 93 97 96 94 94 91 96 93 86 75 66 61 88 94 96 97 94 86 86
53 50 50 56 48 77 98 98 98 98 97 98 98 94 94 94 90 94 92 90 91 95 91 94 95 95 96 96 94 95 90 82 78 73 72 74 73 88 96 97 97 96 95
65 65 62 59 53 50 59 67 90 96 97 98 97 96 96 96 96 97 96 96 96 97 96 96 96 97 97 97 95 92 91 89 82 74 76 69 67 76 94 96 96 96 96
71 69 65 64 63 62 55 54 56 58 66 82 93 96 91 86 95 98 98 98 98 98 98 97 97 97 97 98 95 94 97 93 81 72 62 65 70 74 81 94 96 93 95
79 74 67 64 63 63 66 61 54 55 55 63 70 71 66 70 79 88 92 97 99 99 99 98 98 97 97 98 99 97 96 86 97 97 73 64 65 64 73 87 93 91 86
78 78 75 72 73 75 73 70 71 69 71 73 76 81 84 90 93 92 93 94 94 93 95 99 99 99 98 98 98 99 99 98 93 99 98 92 90 85 86 81 90 87 93
84 80 79 75 77 79 82 87 86 85 85 86 90 94 96 96 96 94 92 95 96 98 96 96 99 99 99 99 99 97 95 95 98 98 99 97 95 90 94 95 93 84 90

GFSSE_sfc_rhum_069.txt.gz
RH
76 76 88 86 83 83 82 80 79 81 80 76 75 74 74 73 75 73 75 73 71 73 70 69 69 69 69 68 69 70 70 71 73 78 77 76 74 71 71 71 66 54 64
74 74 88 87 85 84 84 84 86 86 83 78 70 73 72 71 73 70 70 69 67 68 69 67 67 68 69 70 70 71 71 71 74 77 80 80 80 72 68 68 67 56 66
76 72 73 88 88 87 87 85 86 86 83 78 75 72 70 71 73 72 71 70 66 66 68 69 68 69 70 71 71 69 70 72 75 78 79 59 55 67 67 66 65 65 63
76 71 70 90 89 89 87 85 85 84 79 76 73 70 69 69 73 73 72 72 67 68 70 70 70 72 73 73 72 71 70 69 73 78 65 61 56 66 72 73 74 71 68
75 72 74 90 90 89 87 86 82 79 77 74 70 71 70 68 74 75 73 72 69 70 72 70 70 74 72 72 72 71 76 72 76 73 69 68 67 70 75 73 71 77 76
78 71 83 91 90 90 87 85 80 78 76 72 77 75 72 69 75 76 76 75 72 72 71 70 70 72 73 73 75 78 79 79 81 68 69 69 62 64 67 66 68 74 72
83 75 75 90 90 88 86 84 80 74 72 74 78 77 73 71 76 79 78 76 72 73 72 70 72 73 72 72 74 78 84 89 67 68 65 63 59 65 68 68 65 63 70
84 79 74 91 91 88 86 84 80 74 72 79 82 79 76 76 84 79 76 76 74 72 73 73 72 72 71 71 72 78 84 85 68 65 66 62 72 67 68 69 69 66 63
80 78 77 76 82 90 88 86 83 78 78 83 83 82 86 88 86 79 77 76 74 72 75 76 75 74 72 71 72 74 83 88 62 64 62 58 75 65 67 67 66 66 67
82 77 78 78 74 72 70 89 87 84 82 86 88 89 91 92 88 85 85 82 76 74 74 77 77 75 74 74 72 74 80 88 63 66 62 59 73 63 66 66 66 64 64
84 81 78 78 77 74 72 76 85 87 84 87 90 94 89 74 75 76 86 88 85 80 76 77 78 77 79 81 76 77 79 60 62 62 61 79 76 65 65 66 64 62 62
83 86 80 79 78 79 74 73 73 71 65 60 68 76 75 75 74 76 85 90 86 87 86 79 80 81 79 60 56 69 54 54 56 62 62 85 79 67 66 66 65 62 60
78 86 86 82 78 76 75 78 78 75 72 66 67 71 75 77 76 74 75 72 75 86 73 75 75 71 71 63 58 52 57 57 49 50 66 86 82 72 67 66 67 63 61
86 87 84 81 82 78 75 77 77 76 76 72 70 69 71 72 76 76 75 74 75 74 77 77 73 74 73 68 61 54 53 53 50 49 60 90 85 78 68 67 69 68 63
88 83 84 84 82 80 81 80 79 78 76 73 74 71 70 70 69 70 71 71 72 74 76 76 75 72 72 69 65 59 54 52 50 48 53 91 91 86 76 68 68 69 66
81 80 78 83 81 79 80 80 77 77 76 77 76 74 73 70 69 69 65 66 66 70 69 70 69 70 70 70 68 65 62 55 50 49 47 53 90 89 84 75 68 66 68
83 76 78 77 77 78 78 79 77 77 77 79 77 75 75 74 73 70 67 65 65 66 68 70 70 72 74 71 70 65 65 62 60 53 48 50 54 86 90 82 73 68 67
82 78 76 72 75 75 75 76 78 76 75 75 76 77 78 76 74 73 71 68 62 67 69 70 69 72 72 71 66 64 64 66 62 59 54 48 51 52 71 88 83 74 69
76 76 78 77 74 76 76 74 78 80 75 73 74 74 76 76 75 74 72 70 67 69 69 69 69 71 68 67 69 65 68 68 66 63 59 57 55 55 54 74 91 89 84
51 68 78 77 76 77 78 80 80 85 82 74 71 71 73 71 75 80 78 74 71 72 72 72 71 69 69 67 70 71 70 68 67 64 60 57 56 59 58 62 61 65 90
41 47 61 76 72 80 85 86 89 85 85 87 83 74 71 73 74 79 80 78 81 83 76 74 72 74 73 79 83 74 71 66 65 62 59 57 57 58 59 60 61 62 63
46 48 47 49 44 54 73 78 83 86 86 84 86 83 83 83 83 84 83 83 81 84 81 79 80 81 84 86 84 83 83 64 63 61 58 55 54 52 53 58 60 63 63
52 55 53 53 50 50 46 47 50 51 57 66 77 82 55 59 71 86 91 94 93 92 92 87 87 88 90 87 85 87 94 82 72 61 55 51 52 52 51 58 62 62 63
62 66 60 59 57 57 56 50 45 45 46 54 56 59 60 72 75 76 78 80 85 90 96 95 93 93 92 95 92 91 86 83 93 92 70 62 55 55 56 57 60 63 65
70 68 66 65 65 65 63 60 58 58 59 61 64 70 71 77 77 77 77 80 80 84 85 86 93 97 96 93 92 90 91 92 88 98 96 91 81 72 66 64 61 56 58
72 72 71 66 68 70 72 73 70 69 68 69 74 74 76 78 78 78 78 80 83 87 88 89 88 92 97 96 92 92 90 89 90 92 98 93 87 84 73 70 70 69 69

GFSSE_sfc_rhum_072.txt.gz
RH
54 55 86 84 80 81 80 81 80 79 78 76 74 74 73 75 73 75 73 71 74 70 70 71 71 70 69 70 69 69 70 74 76 74 77 80 74 71 67 67 65 48 65
45 52 88 86 84 84 82 82 84 84 82 77 74 72 71 72 70 70 69 68 68 68 67 69 70 70 70 70 71 71 70 72 74 75 77 80 78 67 67 68 69 55 67
45 51 64 87 87 87 86 84 84 84 81 76 74 72 71 74 72 72 71 66 66 68 69 69 70 71 72 72 70 71 72 72 75 75 73 46 54 71 73 71 69 67 63
46 54 53 90 89 88 85 84 84 81 78 76 73 70 70 74 73 73 72 66 68 68 71 72 73 74 74 73 72 70 70 74 78 77 48 44 46 74 73 72 74 73 67
47 47 59 90 89 88 85 85 86 79 76 72 70 70 70 73 76 75 72 69 71 73 71 73 75 74 74 74 72 75 71 74 76 63 52 56 52 64 69 70 71 72 70
46 44 78 90 90 90 89 85 80 78 75 72 76 72 70 73 77 77 74 72 72 72 70 72 73 74 74 77 77 77 76 77 78 51 51 54 50 68 68 67 67 72 76
44 47 60 91 91 88 87 84 80 76 74 77 78 73 72 74 80 78 76 74 74 72 71 72 73 73 74 76 77 80 84 82 48 49 48 48 55 68 70 69 67 66 66
46 53 58 91 90 88 86 83 79 74 73 78 81 76 74 80 81 78 76 74 73 73 72 72 72 72 72 73 77 81 82 80 50 47 49 48 69 68 69 69 68 68 69
47 50 62 62 75 91 88 85 82 79 81 82 85 82 84 88 83 78 76 75 72 74 74 74 73 72 72 71 71 76 82 81 45 45 43 44 73 67 68 67 66 64 65
54 53 58 56 55 56 57 88 84 82 85 88 88 89 90 89 86 86 84 80 75 74 76 76 75 73 73 71 71 72 79 85 44 49 44 50 73 65 67 66 64 62 63
57 56 53 51 50 51 50 64 82 83 86 90 85 93 81 50 55 66 83 85 82 76 76 77 78 76 75 77 73 72 77 42 42 43 42 74 76 65 65 66 64 62 61
69 60 54 52 53 53 51 54 52 50 41 40 46 51 45 50 50 56 76 88 82 81 81 78 79 80 78 40 42 67 39 40 42 44 42 76 77 71 67 67 66 62 60
66 73 56 56 55 55 54 52 50 49 47 45 46 47 44 45 50 51 50 55 55 81 53 61 59 47 49 46 42 35 39 41 38 39 50 79 80 76 68 70 69 66 62
70 73 64 57 59 56 54 53 50 50 50 48 50 50 48 47 48 43 42 45 48 43 49 52 44 44 47 48 44 41 38 38 36 37 44 79 83 79 73 67 69 70 66
63 68 64 60 59 59 59 54 53 51 52 50 53 52 49 50 47 46 42 40 41 42 46 46 46 42 42 42 43 44 42 39 37 36 36 82 86 83 80 73 67 70 71
62 58 57 60 56 56 58 57 54 52 51 53 53 55 55 52 52 50 49 42 42 43 45 47 47 47 47 46 46 44 44 43 42 42 40 40 84 85 83 79 73 67 65
68 61 57 57 55 55 58 59 54 54 52 54 54 54 56 56 56 54 51 49 43 45 46 47 49 50 52 50 51 47 46 45 46 46 46 44 46 85 83 75 75 73 68
64 63 58 59 58 56 54 56 53 52 52 53 53 54 56 55 56 56 55 54 51 48 50 50 51 52 52 51 50 48 48 48 48 47 48 48 48 45 67 79 78 76 73
60 64 67 64 57 57 55 53 54 57 53 51 53 53 55 56 56 56 54 53 52 54 54 55 54 54 54 52 52 52 50 50 50 48 50 50 51 51 49 66 84 90 88
52 59 65 68 62 56 56 57 57 60 57 53 53 53 55 54 56 58 56 55 53 56 56 56 59 55 58 57 55 55 53 52 53 53 49 47 46 50 51 53 53 56 90
29 44 54 61 61 60 62 64 67 66 62 67 62 59 57 56 56 59 59 59 62 64 60 58 60 63 63 59 66 63 58 56 53 49 47 46 47 48 48 50 50 49 49
24 31 39 50 60 62 62 62 62 64 62 61 66 66 67 67 67 70 71 70 68 70 70 69 69 72 70 66 77 82 76 47 43 49 47 47 44 43 45 46 46 47 49
30 34 37 41 44 46 54 56 55 53 56 61 67 72 55 56 67 78 84 88 89 90 90 87 86 89 92 82 79 80 77 58 57 48 49 44 44 45 44 47 48 49 50
38 47 42 42 42 43 40 38 41 43 43 40 42 45 46 53 56 58 61 61 63 70 79 83 84 88 92 92 90 86 78 78 84 79 63 51 49 50 50 49 50 51 51
51 53 48 46 46 47 43 41 39 40 40 42 44 50 52 58 60 60 60 62 62 66 68 70 74 81 92 94 93 89 85 84 87 98 94 82 64 60 48 48 52 52 52
56 57 55 50 51 51 51 49 48 50 48 48 53 53 55 57 60 62 62 62 65 66 70 76 81 79 83 85 90 92 92 88 83 87 95 88 80 75 72 55 57 56 56

GFSSE_sfc_rhum_075.txt.gz
RH
47 62 87 82 80 81 80 79 79 79 78 76 71 74 73 75 75 73 71 72 74 73 73 71 71 70 70 68 67 69 71 69 70 76 81 80 69 66 69 71 68 53 64
43 56 87 84 82 82 81 82 82 82 81 75 70 71 71 70 70 69 68 68 66 70 71 70 71 71 70 70 71 72 73 74 71 72 79 79 80 73 70 70 72 57 63
42 52 65 87 87 86 83 83 82 79 77 75 72 71 73 72 72 69 66 67 68 69 69 70 72 72 71 71 72 73 73 73 72 71 71 51 64 75 74 75 73 68 61
40 52 55 90 88 87 84 83 81 78 77 76 72 72 75 73 73 70 65 68 69 70 70 72 74 74 74 73 72 70 74 75 76 78 51 44 52 72 72 73 73 70 69
44 46 68 89 89 87 84 85 82 78 75 72 72 72 74 76 74 71 68 72 73 73 74 74 75 75 76 75 75 71 71 74 75 65 57 56 53 64 69 71 71 75 77
41 43 83 91 90 89 88 87 81 77 74 71 73 72 73 78 77 72 71 74 74 73 74 74 74 76 78 78 76 74 74 78 83 45 45 53 57 68 68 68 69 70 70
36 54 65 91 90 90 87 85 81 77 74 76 74 72 73 81 78 75 73 74 73 73 73 74 73 74 77 77 78 80 78 78 44 45 46 53 62 68 66 65 66 68 70
39 54 62 90 90 88 85 83 79 75 75 79 76 75 74 82 78 77 75 74 73 72 72 72 72 72 73 76 78 79 78 79 47 44 47 57 72 68 67 66 64 64 66
48 55 58 63 76 90 88 84 82 79 82 82 84 82 87 86 83 78 77 73 73 74 74 73 72 73 71 71 72 77 79 80 53 45 40 52 74 67 67 66 64 63 64
50 51 59 59 56 56 58 85 84 86 88 90 88 91 91 87 88 85 84 79 74 75 76 76 73 73 72 71 70 70 73 82 48 46 44 58 70 65 67 66 64 63 62
57 63 60 58 50 50 49 64 79 85 90 88 86 90 85 50 57 69 86 86 80 75 76 76 76 75 74 75 71 70 76 45 40 42 42 76 73 66 66 66 65 63 61
66 67 62 56 53 54 45 54 48 41 53 48 46 51 44 43 50 58 74 86 80 80 80 77 78 79 78 43 53 70 46 37 38 41 46 74 72 72 68 68 67 64 62
64 59 61 61 55 56 47 51 44 44 37 36 38 40 36 39 47 49 52 60 61 85 59 69 69 58 43 44 41 36 36 38 36 38 51 75 73 73 72 70 70 69 64
62 62 57 58 64 59 53 48 40 41 43 42 44 42 42 41 42 38 38 40 44 42 44 47 43 40 42 42 40 39 36 37 36 37 44 76 74 75 74 70 70 72 70
63 68 56 53 53 60 60 49 42 41 45 43 46 45 43 45 43 41 38 36 37 36 40 42 44 40 39 37 37 39 39 38 36 38 40 79 78 75 76 74 70 68 72
59 59 57 58 56 55 55 56 51 41 42 44 46 49 47 46 48 46 45 41 37 39 41 44 44 45 45 44 44 42 42 42 42 43 44 48 79 79 76 75 72 70 66
59 56 58 54 52 60 55 58 45 43 42 46 48 47 49 50 52 50 48 48 41 42 43 43 45 46 48 47 48 46 45 43 44 44 47 49 54 84 80 70 70 71 70
55 52 52 48 51 47 50 58 52 44 45 47 46 47 49 48 52 53 53 52 50 47 48 50 50 52 51 50 49 48 46 47 48 47 48 48 55 50 72 79 74 69 71
53 53 57 56 52 50 50 51 48 47 47 45 46 47 49 50 51 53 51 51 49 53 53 53 53 53 55 55 54 52 53 54 51 48 48 51 53 55 55 70 84 83 82
49 52 57 61 56 51 51 51 53 54 53 48 47 48 49 49 51 55 54 53 51 54 56 56 57 58 61 62 56 56 58 56 54 54 53 47 46 51 54 57 62 64 85
36 52 56 60 62 58 59 64 62 61 59 58 55 54 53 54 55 57 58 56 58 61 60 60 63 66 68 67 74 70 66 61 55 55 51 47 48 51 50 53 55 56 56
22 36 46 52 56 58 59 63 66 62 57 55 59 61 60 60 62 65 66 69 70 76 70 69 73 80 81 77 86 87 82 58 46 50 52 49 47 49 50 49 48 51 57
26 28 35 41 53 57 60 63 66 62 67 67 69 71 62 59 67 74 81 87 92 95 96 94 95 94 94 87 80 82 81 70 60 57 56 51 48 51 52 54 52 52 55
31 39 36 38 41 44 48 55 61 61 61 52 51 52 49 50 53 54 58 59 63 70 80 81 81 90 92 88 83 82 80 81 89 75 59 62 55 53 57 58 53 55 55
42 51 43 40 40 41 40 38 41 41 44 42 41 44 45 53 55 57 56 59 59 64 64 68 71 73 79 86 82 80 83 88 91 99 96 85 71 66 58 52 55 56 58
54 57 54 45 43 44 43 41 42 45 44 48 50 50 50 54 59 60 59 60 62 63 65 70 73 78 78 79 86 83 85 85 96 97 99 87 85 85 79 63 61 62 64

GFSSE_sfc_rhum_078.txt.gz
RH
79 86 88 84 80 80 79 78 79 80 80 73 75 72 77 74 72 73 74 76 79 75 71 70 71 69 68 68 68 68 65 68 73 75 77 78 74 73 73 73 67 62 66
73 76 87 84 84 82 82 82 83 85 82 77 72 70 71 71 69 68 69 68 75 76 72 68 71 70 71 72 72 73 71 70 70 77 83 86 84 78 76 74 72 61 63
69 72 79 87 86 86 85 82 84 83 81 78 75 72 71 70 67 67 68 68 72 74 72 70 72 71 72 74 74 74 73 73 72 77 78 79 74 77 76 75 74 72 69
62 70 74 89 88 88 85 83 84 79 77 76 76 76 74 71 67 67 67 69 74 71 70 74 75 74 73 73 71 73 75 76 80 79 61 60 60 71 72 72 74 76 74
63 62 80 90 89 88 86 85 81 78 77 76 77 79 76 73 68 68 71 72 74 73 71 76 76 77 77 76 71 72 75 78 78 68 68 74 77 65 70 71 72 73 76
56 76 92 90 90 89 88 87 80 76 72 75 77 78 79 76 70 70 75 76 77 78 76 75 76 79 79 77 74 76 77 78 77 60 67 72 76 64 63 65 67 71 72
70 82 88 91 91 90 89 86 83 77 75 75 75 75 81 78 73 72 75 75 75 76 75 74 75 77 78 78 77 75 76 83 67 64 72 80 76 66 63 62 62 63 68
72 75 83 92 92 89 88 86 84 80 79 78 80 79 82 79 76 74 75 75 74 74 74 74 74 74 76 77 77 77 80 81 66 60 75 83 77 67 66 64 63 62 63
61 72 83 87 89 90 88 85 83 83 85 84 84 83 88 85 82 78 75 76 75 74 74 74 74 73 72 72 72 75 80 81 82 60 62 80 75 68 67 65 65 63 63
64 69 75 78 75 76 83 86 89 90 88 90 89 92 91 90 88 86 84 81 78 78 78 77 74 74 72 71 70 76 75 78 82 60 72 84 71 66 68 67 65 64 62
68 66 69 69 68 62 71 81 89 90 91 93 95 92 90 80 83 85 87 86 83 81 79 78 76 74 79 78 76 74 75 72 68 61 77 80 72 66 67 68 66 64 62
77 79 71 64 60 56 55 74 73 82 85 79 79 90 78 72 79 74 90 88 85 84 83 80 81 83 82 76 79 77 75 66 57 58 81 78 69 69 68 69 69 66 63
80 81 76 68 58 60 59 69 53 63 70 66 65 66 66 68 78 82 95 91 96 92 89 88 90 91 81 69 66 63 58 54 58 59 76 78 69 68 69 69 72 71 67
77 78 76 71 66 64 63 70 55 59 58 59 60 55 60 61 66 68 76 83 83 88 83 86 81 80 64 59 59 58 55 56 56 57 79 78 73 65 68 70 69 73 73
80 80 78 72 73 73 65 70 55 62 62 63 64 60 62 66 65 61 58 60 63 61 61 67 66 61 58 54 54 55 56 57 56 57 62 83 76 72 66 68 70 68 70
74 73 80 72 70 72 68 71 62 57 60 64 67 67 61 67 67 66 66 62 60 59 61 65 67 67 66 64 61 60 60 62 61 61 62 73 82 78 72 67 68 69 68
76 72 80 77 77 68 69 66 61 65 55 65 67 64 63 66 70 68 70 69 59 61 58 64 64 67 69 66 69 65 64 64 65 65 65 67 77 84 79 68 66 68 70
75 79 74 65 70 71 70 70 65 58 62 65 66 67 63 64 69 74 75 75 72 66 69 72 74 75 76 75 75 71 68 61 63 65 65 68 72 67 80 78 77 71 69
68 73 77 68 66 63 70 68 65 60 61 60 66 66 63 62 65 72 75 74 70 76 76 75 76 78 80 67 67 64 64 72 71 63 68 68 70 72 73 82 86 83 81
71 74 77 79 69 66 66 72 69 67 66 65 62 61 60 63 63 70 76 74 72 77 80 79 80 72 71 75 70 75 80 78 78 78 74 66 68 62 64 66 86 86 87
48 75 77 80 79 75 76 73 75 74 75 80 76 69 67 65 63 70 72 68 70 71 74 81 85 88 90 88 92 92 90 84 82 78 75 73 68 60 66 66 72 76 74
33 59 74 77 82 87 83 89 88 86 87 84 81 76 74 76 82 84 90 91 92 93 91 87 92 93 90 85 91 94 95 83 74 69 74 65 65 64 63 62 64 67 75
32 41 59 65 75 79 84 84 86 87 90 90 90 90 68 69 78 83 82 87 93 96 98 97 97 97 98 94 89 92 95 94 91 76 71 71 67 69 70 66 62 67 72
36 43 42 52 57 60 67 81 86 88 90 75 77 71 66 63 68 68 70 73 75 82 91 94 89 95 96 99 94 95 95 94 96 94 84 82 75 70 71 67 64 65 75
54 55 51 52 55 55 56 61 70 60 59 57 58 61 64 70 70 71 72 73 77 81 83 87 89 93 94 95 95 87 83 95 96 98 97 95 88 82 76 70 68 72 76
68 66 59 56 56 56 56 54 54 56 60 64 67 67 70 75 76 73 71 74 75 78 80 84 87 90 92 88 86 86 88 93 97 98 99 96 94 89 84 70 71 72 78

GFSSE_sfc_rhum_081.txt.gz
RH
92 88 86 84 80 78 78 78 79 80 77 75 74 74 72 73 74 78 80 78 79 72 69 71 69 67 68 68 63 65 70 70 70 78 82 84 79 73 69 65 66 66 70
89 85 86 84 83 81 81 81 82 82 81 76 73 70 70 69 71 71 73 74 73 71 68 70 70 70 71 71 72 71 71 70 74 84 84 84 84 76 74 74 74 66 63
87 83 82 86 86 85 82 82 84 82 81 79 75 68 68 67 68 69 72 73 73 68 67 71 70 73 74 75 75 74 74 74 72 76 75 81 78 76 74 77 78 73 70
79 82 85 88 88 86 82 81 81 80 78 81 79 74 69 66 67 67 72 71 72 69 71 73 73 74 73 73 75 76 77 77 79 77 71 72 66 72 69 74 73 74 74
79 82 86 89 88 86 83 82 80 77 77 81 82 78 71 67 69 69 72 72 69 73 74 75 76 77 76 74 75 76 74 77 76 75 82 85 80 63 68 71 74 74 70
77 90 91 90 89 88 87 84 78 77 76 79 83 80 73 68 72 73 75 77 75 78 76 77 78 78 77 76 77 75 74 78 74 78 84 78 75 61 61 63 66 72 72
93 92 89 91 90 90 88 85 81 75 75 77 81 78 75 70 72 75 77 78 78 76 75 76 78 78 78 77 74 72 76 81 71 82 86 86 76 64 62 61 63 63 67
91 90 87 92 92 90 88 86 84 80 78 79 82 82 77 73 72 74 75 76 76 75 75 75 75 77 78 76 74 74 79 82 71 83 87 89 76 66 65 65 62 62 63
88 92 95 92 91 92 90 88 86 84 84 85 86 86 84 82 79 75 76 75 74 76 76 76 74 74 72 71 69 71 75 80 83 80 72 86 76 67 67 66 65 63 63
89 92 97 96 89 90 89 89 91 90 90 89 88 92 92 90 88 84 85 83 79 78 77 76 75 74 72 70 70 73 74 78 79 75 80 86 72 67 69 68 66 64 63
86 88 90 91 87 87 91 90 92 92 93 93 96 92 92 94 90 88 89 87 86 83 80 79 76 75 77 78 76 74 74 74 76 75 83 82 71 67 69 69 68 65 63
89 88 84 82 80 79 63 95 96 90 97 96 96 94 93 89 89 83 91 88 86 86 85 81 81 82 82 83 82 80 80 71 68 76 83 79 68 66 69 72 70 67 64
87 84 83 79 70 69 67 83 97 97 95 93 94 94 88 83 90 95 98 96 97 92 94 91 93 96 91 88 81 79 72 66 63 65 77 79 70 62 66 70 74 73 69
84 90 79 70 69 63 68 71 68 83 86 85 81 79 75 88 92 97 98 97 97 96 96 96 97 93 91 81 70 68 64 61 61 62 80 82 76 63 62 66 70 73 76
91 87 82 73 74 71 67 73 59 62 65 67 68 68 66 72 72 74 84 91 94 92 91 94 91 83 76 66 64 65 62 63 64 61 70 88 79 73 64 62 65 68 69
83 89 88 82 72 73 66 77 68 59 64 72 72 69 67 72 72 72 70 67 67 66 64 71 74 73 72 73 68 67 66 68 67 67 68 74 84 77 73 66 64 65 68
87 84 90 88 83 80 75 69 68 63 60 71 74 68 67 73 74 72 75 74 63 66 62 70 72 75 76 73 76 72 71 70 70 71 70 71 77 87 81 69 67 67 68
87 86 82 74 85 85 81 73 70 66 63 68 75 74 67 69 74 76 76 82 74 68 74 76 79 80 83 83 82 78 73 67 63 71 72 74 78 68 79 82 78 72 69
81 88 90 85 86 82 85 80 71 66 65 71 72 63 65 69 72 79 82 81 78 82 80 79 82 86 86 81 72 70 71 74 78 71 77 75 76 74 78 82 87 85 81
84 85 83 85 77 76 87 91 86 73 68 67 66 65 63 62 65 70 78 80 78 83 86 87 88 83 76 77 74 81 88 86 85 86 84 76 76 72 70 73 78 80 86
82 86 82 83 85 85 86 92 93 79 72 78 88 75 71 68 70 73 76 74 80 78 77 80 85 84 89 91 90 90 94 90 91 89 89 86 73 73 71 73 74 78 79
53 84 92 83 92 89 92 89 92 89 90 90 92 82 86 87 90 92 93 91 92 92 92 91 93 93 91 88 89 92 94 87 79 79 84 80 66 66 66 66 70 75 89
35 69 77 91 89 89 91 92 91 96 97 96 96 89 70 78 81 83 84 86 90 94 96 97 97 97 98 95 90 92 95 94 95 82 76 77 74 76 70 70 68 72 88
35 48 63 71 87 92 92 94 94 96 96 90 92 73 72 69 72 72 74 76 78 83 86 92 90 94 96 99 97 96 96 96 97 92 89 89 83 73 79 76 72 77 76
41 47 52 59 63 79 76 89 94 78 72 65 69 70 70 74 73 75 75 79 82 85 87 88 91 93 96 97 97 95 92 92 94 99 96 94 93 92 83 80 72 74 76
64 59 61 58 59 58 69 67 79 59 61 64 69 73 80 82 82 78 78 80 80 81 81 86 88 91 94 94 94 93 94 95 95 98 99 97 95 95 82 79 76 82 85

GFSSE_sfc_rhum_084.txt.gz
RH
93 89 85 82 79 77 78 80 75 77 76 75 73 75 77 80 81 81 79 76 75 70 71 67 66 66 62 66 71 72 73 79 79 82 86 80 73 72 70 68 68 70 70
86 86 86 83 81 80 80 80 80 81 82 76 72 72 74 75 77 77 76 75 71 67 70 68 69 71 71 71 72 72 74 79 77 79 84 88 83 77 78 76 74 66 63
89 84 84 86 84 83 82 81 82 81 79 77 70 69 71 72 72 73 73 69 65 69 70 71 73 74 74 75 76 76 76 74 71 78 80 84 84 75 77 76 75 74 74
84 84 85 87 86 84 81 80 82 82 79 78 70 68 69 69 71 69 67 66 65 70 72 74 74 75 77 78 78 76 73 75 78 79 81 78 72 70 74 76 74 71 74
88 86 88 88 87 84 82 82 81 82 81 81 72 68 68 68 69 67 68 66 72 74 74 75 76 76 77 78 77 74 73 76 80 79 87 84 78 62 66 73 75 69 69
96 94 91 89 88 86 85 83 80 81 80 80 75 68 70 69 70 71 70 76 77 78 76 77 77 77 78 80 74 74 72 76 79 88 89 78 74 60 61 63 68 70 68
98 96 90 89 88 86 84 83 81 80 83 81 76 70 71 72 72 77 77 78 78 77 77 78 77 78 79 76 72 73 76 79 83 90 91 87 76 64 63 62 62 63 67
94 93 88 90 89 88 84 83 81 81 81 85 81 73 70 73 75 77 79 79 77 76 76 77 77 76 75 73 72 72 79 80 78 89 92 92 76 65 66 65 62 62 63
94 97 97 95 91 92 90 88 84 83 84 87 85 81 79 79 78 76 77 77 76 76 76 75 75 74 72 69 66 70 75 82 85 87 80 91 77 67 66 66 64 62 62
91 90 98 98 94 96 96 92 91 90 90 90 89 90 89 88 86 84 85 82 78 77 78 77 74 72 71 68 70 71 74 77 86 80 84 90 72 68 68 67 65 64 63
92 95 98 97 95 95 96 93 94 93 92 93 94 93 94 96 93 91 91 88 87 82 79 77 75 74 78 78 76 75 77 74 80 82 86 83 71 67 70 70 67 64 63
96 97 92 88 88 92 81 97 97 94 98 98 96 96 97 96 96 86 92 89 88 88 86 80 79 81 81 84 84 81 84 76 74 82 87 83 69 64 69 74 72 67 64
93 93 90 86 84 80 91 99 99 99 99 98 97 97 95 90 96 98 98 97 97 92 96 93 94 96 92 91 88 86 78 76 71 70 78 82 71 62 63 70 76 75 70
98 91 88 82 79 76 81 94 98 97 98 99 98 96 97 98 98 98 99 98 98 98 96 96 97 94 93 90 91 79 75 70 67 66 75 86 79 65 61 64 69 74 78
93 90 85 78 74 72 74 76 83 94 94 92 91 89 85 95 98 98 97 98 97 97 97 97 97 95 94 91 78 74 71 70 69 67 70 87 86 78 66 61 63 66 70
83 92 94 81 71 71 72 78 64 69 77 82 82 81 73 81 84 83 83 92 96 90 95 84 94 88 80 77 73 71 70 72 71 70 71 72 86 82 76 65 64 64 65
83 86 89 91 88 77 74 72 70 60 60 70 73 74 72 73 74 77 78 78 72 73 68 76 79 81 82 79 81 78 77 78 78 77 75 75 77 87 84 69 67 69 71
88 88 88 84 92 91 83 80 71 67 67 64 68 74 71 74 75 76 79 83 75 69 73 77 81 83 86 86 85 81 81 69 69 68 71 71 77 72 80 83 78 71 68
88 85 88 86 90 93 93 84 82 69 68 65 68 75 71 71 76 79 79 81 83 84 80 81 84 88 89 85 78 74 73 76 79 76 82 80 82 78 80 83 85 84 78
92 93 88 88 84 89 92 96 92 79 71 70 76 70 66 68 72 80 83 82 83 87 90 91 89 90 83 82 79 80 81 82 90 91 87 83 85 81 84 79 85 88 87
94 95 94 86 84 87 96 98 94 89 84 89 88 74 68 70 70 80 76 76 78 80 79 81 84 86 91 89 89 87 93 91 92 90 94 95 90 73 72 83 81 88 92
86 94 96 88 89 87 90 94 93 97 97 97 96 91 92 83 85 87 91 94 92 92 90 91 91 90 91 85 84 90 95 87 83 82 86 86 86 76 67 68 74 79 94
67 87 94 94 89 91 91 94 96 96 97 98 95 92 92 91 92 91 92 95 93 94 96 97 98 97 98 96 94 94 96 97 96 85 84 83 78 73 71 72 77 82 84
38 69 87 93 93 92 94 94 94 95 96 97 98 88 89 84 80 76 78 79 75 82 88 92 91 96 98 98 96 97 98 96 92 92 89 92 89 76 77 76 80 76 79
39 43 74 84 91 95 96 93 96 97 94 84 84 84 82 82 74 74 75 80 83 86 88 90 92 93 96 97 98 96 94 94 94 95 90 94 96 92 84 75 77 80 79
50 54 69 77 81 90 89 96 94 91 84 90 89 87 86 87 81 81 80 82 84 85 85 88 89 90 95 96 96 96 96 95 96 98 99 96 96 96 87 84 88 90 88

GFSSE_sfc_rhum_087.txt.gz
RH
94 89 85 81 78 79 80 75 73 77 77 77 78 80 79 80 81 79 75 74 73 70 66 64 63 67 69 72 74 76 77 78 82 81 80 79 76 72 71 67 70 70 66
90 84 85 83 80 80 78 75 79 79 80 76 77 79 80 81 80 77 75 71 70 68 66 69 68 70 72 73 75 78 77 74 78 83 88 89 85 78 74 74 74 76 71
89 84 83 84 83 82 79 80 80 81 78 75 75 75 79 79 77 74 70 69 70 69 70 71 72 73 74 76 77 76 74 73 76 79 81 87 81 76 73 77 76 74 75
86 86 84 86 84 82 79 78 78 76 73 72 74 75 73 74 73 69 68 68 70 71 73 75 76 78 79 79 75 74 77 78 77 80 83 79 73 71 73 70 69 72 74
91 89 87 87 84 82 79 80 77 78 72 70 72 75 74 72 70 66 66 69 73 75 76 77 77 79 80 76 75 74 74 75 79 80 85 83 79 63 66 73 69 64 68
97 96 90 88 85 85 84 83 80 80 75 70 70 71 72 69 66 67 71 76 77 78 77 78 79 80 81 76 74 74 76 78 83 92 91 78 75 62 61 62 68 70 69
96 96 90 88 85 83 82 83 84 81 78 72 70 71 70 69 68 73 78 78 78 78 77 77 78 80 79 74 73 74 75 81 88 93 92 88 78 64 64 63 63 64 68
87 96 88 89 86 86 83 82 84 85 81 75 71 72 71 75 71 74 78 78 78 77 78 76 77 77 75 71 72 76 79 80 82 92 92 91 75 66 66 64 63 62 63
98 97 96 93 91 90 87 86 85 86 86 83 77 76 79 80 80 77 79 78 77 77 77 78 76 75 71 67 66 73 80 82 91 91 84 94 78 66 66 66 65 63 62
98 98 96 99 97 97 96 90 89 89 90 88 85 86 87 88 86 83 85 83 78 78 78 76 74 71 69 68 69 72 78 81 88 88 88 92 72 66 67 66 65 64 64
91 91 99 99 98 97 96 95 93 93 93 93 93 92 93 96 94 93 92 87 86 82 79 77 74 72 78 75 75 76 77 77 82 84 90 82 73 66 68 69 67 64 63
96 97 97 97 95 96 86 98 97 94 98 93 96 96 97 96 96 91 95 91 89 88 86 79 77 80 83 87 87 81 82 80 76 83 90 81 75 64 68 73 72 68 65
95 96 96 91 94 93 96 99 100 99 99 99 97 97 97 94 97 98 98 97 97 94 97 93 94 96 92 92 91 91 83 80 78 73 80 82 76 65 62 68 77 76 72
97 97 93 93 88 87 98 99 99 99 99 100 98 97 98 99 98 98 99 98 98 98 96 96 98 95 94 93 92 90 82 78 74 71 74 84 82 69 62 63 67 73 79
90 94 93 87 92 74 92 98 99 99 98 98 99 97 97 98 98 98 98 98 98 97 97 97 97 96 95 93 93 86 79 78 75 73 73 79 88 80 68 63 63 66 70
80 83 93 85 89 82 74 86 89 97 96 96 97 96 91 94 98 98 98 98 98 98 97 97 94 96 94 84 78 75 74 76 76 75 75 75 78 86 78 66 65 66 66
78 85 83 82 91 93 81 72 72 78 76 82 83 85 82 83 90 91 88 87 94 94 85 85 85 88 90 85 88 82 82 82 82 82 78 70 75 86 84 72 67 68 70
73 78 77 78 91 93 94 93 77 64 66 71 78 79 76 73 77 80 81 80 76 73 76 79 84 87 88 89 88 84 84 77 74 70 73 72 74 75 83 83 81 71 67
78 78 81 79 89 88 92 97 94 90 71 66 76 70 74 74 73 75 79 82 85 78 78 81 85 89 91 90 87 77 78 76 75 78 88 82 82 86 87 84 88 80 79
84 82 84 86 88 87 89 91 98 99 96 71 72 68 70 71 75 79 81 81 86 91 93 92 88 88 85 86 82 82 81 82 86 90 94 89 91 87 84 89 87 91 86
96 91 88 89 84 90 95 96 95 96 96 96 92 75 72 70 76 80 86 85 87 85 87 82 84 85 88 91 94 87 90 89 90 93 88 92 94 92 91 88 92 91 90
96 95 93 84 90 90 94 93 92 91 93 96 97 96 92 87 80 79 86 90 94 94 90 90 92 91 90 92 90 91 95 89 87 85 87 83 91 84 78 72 78 86 88
77 96 95 93 92 88 90 97 98 98 99 99 98 98 95 96 97 96 96 97 97 96 94 96 97 98 98 96 94 92 96 98 96 88 87 90 83 84 78 78 79 79 84
42 72 93 94 92 91 94 95 93 96 96 96 97 97 97 90 94 92 90 90 88 90 92 93 93 96 99 99 96 97 98 98 97 91 92 95 94 84 85 83 78 78 86
42 44 80 95 96 96 96 92 93 97 96 99 96 94 91 95 91 91 90 87 88 87 89 92 92 93 97 97 97 97 95 96 95 97 84 94 97 94 89 88 82 88 84
50 46 60 82 93 96 98 97 96 96 96 98 97 95 93 93 93 92 89 86 83 83 83 86 88 90 94 96 97 98 97 95 95 98 99 97 96 94 88 86 89 92 91

GFSSE_sfc_rhum_090.txt.gz
RH
97 91 84 80 76 77 75 74 75 77 81 77 76 78 76 80 79 77 75 73 70 66 64 68 69 68 70 71 74 74 77 76 79 82 84 83 75 69 68 68 70 70 64
91 86 85 82 78 80 75 74 79 81 82 81 79 76 79 79 78 74 73 72 67 67 64 66 68 71 71 74 76 75 73 80 82 83 85 86 84 74 77 77 80 78 72
91 84 82 84 83 80 75 77 79 78 78 81 81 79 80 79 77 74 72 70 68 68 69 69 71 71 74 76 76 75 74 74 80 81 82 88 83 76 66 72 74 74 68
87 87 85 85 84 79 78 78 78 76 75 80 80 81 81 78 72 71 68 70 69 72 72 73 74 77 79 76 76 75 76 73 77 78 82 79 72 72 70 65 62 62 64
94 90 88 86 84 81 81 79 77 74 74 77 79 79 78 75 69 68 71 72 74 75 74 76 79 80 77 77 74 73 70 74 78 80 85 82 80 63 66 70 70 68 62
98 96 90 88 85 84 82 79 75 72 71 74 75 78 76 72 68 67 74 76 78 79 77 79 80 80 77 78 76 75 74 79 84 92 90 80 78 62 62 62 65 69 66
96 96 90 87 85 85 83 83 82 74 70 71 72 72 70 68 69 75 77 78 79 80 79 79 80 80 76 76 74 75 76 82 91 93 92 88 80 65 64 63 63 64 69
90 96 88 89 87 86 82 85 85 78 72 71 71 72 67 68 72 72 77 79 78 78 78 79 79 77 74 74 75 76 78 81 85 93 92 92 76 66 66 65 64 63 63
97 96 97 95 92 88 88 88 86 85 80 78 78 77 81 73 73 74 76 78 77 78 78 78 77 75 70 68 71 77 81 85 91 92 85 95 78 65 66 66 66 65 64
99 97 98 98 97 96 95 89 89 89 86 82 83 85 86 87 77 76 85 83 79 78 78 77 74 71 70 68 70 75 79 82 89 90 90 94 74 65 66 66 66 65 65
97 93 97 99 99 98 97 94 92 92 92 90 90 91 93 96 94 92 92 87 86 82 79 77 74 72 74 76 76 78 75 79 84 85 93 81 78 65 67 68 67 65 64
98 97 96 98 99 98 91 98 97 96 96 92 96 95 97 97 97 92 94 90 88 87 86 77 76 79 83 90 90 83 84 82 79 82 94 81 76 67 66 72 72 69 66
96 96 93 96 96 97 98 100 100 99 100 95 96 97 97 96 98 98 98 98 97 95 97 94 94 96 91 92 93 93 88 84 84 75 74 82 76 70 63 65 76 77 74
97 94 90 87 84 93 99 100 100 100 99 98 98 97 99 99 98 98 99 98 97 98 96 96 98 94 93 92 92 92 88 85 82 75 74 76 78 74 66 63 66 71 77
97 94 95 91 88 91 93 99 99 99 99 99 99 98 98 98 98 98 98 98 98 98 98 97 97 96 95 93 93 93 88 82 82 78 78 80 76 81 72 66 64 66 69
81 77 86 88 92 86 86 95 99 99 98 99 100 98 96 96 98 98 98 98 98 98 97 97 96 95 96 92 83 81 77 79 79 79 79 79 79 78 78 70 65 65 68
80 66 78 87 89 91 92 87 88 95 94 97 98 98 96 93 95 96 98 98 97 97 95 95 91 91 92 87 90 86 85 86 85 85 77 81 75 84 81 76 69 68 67
80 78 76 78 80 91 95 93 94 85 87 88 88 90 90 86 88 92 93 90 84 88 87 80 83 90 90 90 89 87 87 85 74 73 73 72 75 75 81 82 82 75 68
82 80 78 77 83 87 94 96 97 92 94 93 90 83 81 80 80 84 84 81 79 76 78 78 84 89 92 91 91 88 84 87 76 76 82 87 88 88 89 88 87 83 79
80 84 82 77 83 85 92 94 97 96 97 96 93 74 71 75 75 76 82 82 87 88 87 89 87 88 85 84 88 91 93 89 93 94 94 91 94 92 92 90 94 87 84
83 85 83 80 86 87 94 96 97 95 94 98 96 81 70 72 76 78 82 84 89 90 92 93 90 92 89 94 95 92 91 89 91 94 92 93 94 94 93 95 98 98 88
91 86 87 82 84 89 88 84 86 91 93 90 93 97 95 91 89 89 86 92 93 95 92 88 90 94 95 96 93 94 93 91 91 90 94 88 92 90 86 88 92 84 88
98 95 89 82 83 81 83 87 99 98 99 99 98 96 95 94 94 94 96 97 98 98 98 96 96 96 97 97 95 92 89 97 97 93 93 96 91 92 92 89 83 80 85
68 96 94 92 85 84 88 92 84 82 87 91 94 98 99 98 97 98 98 98 97 97 97 97 95 96 98 99 97 97 98 97 95 94 92 96 94 92 95 88 84 82 88
47 49 81 96 97 97 98 91 92 92 98 99 99 99 98 98 96 97 97 96 96 97 96 96 94 94 96 97 97 97 95 96 96 95 94 94 96 96 96 93 85 86 85
56 49 51 72 91 97 99 98 98 98 98 98 99 99 99 98 95 93 92 92 90 84 83 85 87 88 94 96 97 98 97 95 95 97 97 95 97 97 97 92 89 90 93

GFSSE_sfc_rhum_093.txt.gz
RH
81 72 82 80 73 74 75 74 79 81 80 77 78 74 79 80 79 77 74 71 69 70 71 70 66 70 71 72 73 72 74 79 82 83 84 79 73 74 76 75 70 54 66
75 70 83 79 76 76 75 76 80 83 81 80 78 76 77 79 77 75 72 68 66 66 67 66 70 71 70 71 72 73 77 80 80 82 85 86 82 73 71 77 77 64 68
76 70 69 81 84 80 78 80 80 82 82 81 80 80 79 78 76 74 70 69 66 67 67 69 71 70 74 75 75 73 72 79 79 80 80 62 63 70 65 72 72 68 73
73 70 67 85 84 79 78 80 78 79 81 81 81 82 81 77 75 72 68 68 70 70 70 71 72 75 76 76 76 74 69 73 76 74 52 53 54 68 66 65 64 61 63
74 72 72 86 83 81 78 79 78 77 81 83 84 84 82 78 72 69 69 73 69 70 77 77 79 77 77 76 73 67 69 73 77 63 56 58 52 58 65 69 68 63 64
78 72 83 87 84 85 84 81 76 75 77 81 83 82 77 74 70 68 73 78 81 82 79 79 79 79 82 78 74 71 74 78 75 60 60 61 55 62 62 62 68 67 67
79 75 76 86 86 84 83 81 76 74 75 76 78 77 74 68 69 74 75 80 80 79 79 80 78 77 77 77 74 73 76 82 60 61 62 62 58 64 64 63 63 64 68
80 79 73 87 87 85 83 84 79 72 73 75 77 73 68 73 74 71 76 76 76 76 79 77 78 75 75 75 75 76 78 79 62 61 64 62 71 65 65 65 64 63 62
81 81 81 76 81 89 88 86 83 78 78 77 74 69 74 82 70 72 74 75 76 78 80 80 78 73 70 71 75 78 82 82 57 59 60 61 77 64 65 66 65 64 64
88 83 89 78 75 73 72 90 89 84 84 82 72 87 81 80 73 72 82 81 78 81 81 79 75 71 70 69 70 74 83 81 58 64 59 59 75 64 65 66 65 64 65
91 85 83 79 75 75 73 79 91 90 88 88 86 90 86 67 67 69 86 87 87 83 79 76 74 72 74 78 77 77 76 50 49 53 58 75 76 65 67 68 66 65 64
94 94 88 83 79 76 72 77 80 85 72 68 72 74 72 75 73 73 84 90 88 86 84 77 76 77 75 56 57 69 50 51 48 49 55 80 74 70 64 72 72 70 67
93 96 92 89 86 81 80 83 83 83 85 76 74 75 74 77 78 76 78 76 76 86 71 73 71 65 64 60 60 56 57 54 49 48 55 76 77 72 66 64 74 78 76
98 95 88 85 83 84 86 87 86 88 88 88 79 75 77 77 79 79 74 76 75 72 70 69 65 65 65 64 62 58 58 54 50 50 53 74 71 73 70 65 66 70 74
98 95 86 82 84 79 85 90 86 85 85 88 82 76 76 78 78 79 77 79 80 78 76 73 72 68 67 66 63 61 57 52 50 50 50 80 76 72 73 69 66 67 68
95 96 91 82 78 78 79 84 89 84 80 86 88 79 79 76 76 81 82 82 78 76 75 73 69 65 64 65 60 56 54 52 53 55 53 55 80 78 75 73 68 66 66
93 91 86 79 76 78 82 81 82 85 84 82 84 85 82 77 79 78 78 79 76 72 70 72 71 66 65 63 62 59 58 56 58 55 57 60 67 85 82 74 73 71 68
86 78 68 68 82 82 88 85 80 74 79 82 80 88 84 79 78 78 78 76 72 73 74 69 62 61 65 63 58 59 60 60 57 57 58 63 60 58 74 81 80 78 73
75 68 72 76 84 87 86 86 84 80 84 85 84 79 80 81 76 75 74 74 69 64 64 61 58 60 63 64 65 62 62 62 61 58 56 61 64 66 63 80 88 88 79
79 78 79 81 78 83 86 88 90 91 88 87 86 74 73 70 71 73 70 69 65 64 61 62 60 66 68 66 67 68 65 61 58 61 61 61 61 65 66 69 66 69 83
87 78 78 78 78 89 92 93 92 92 96 93 90 77 70 67 66 69 69 69 68 69 66 63 67 69 73 74 77 66 61 59 61 61 60 59 66 69 71 70 68 70 73
86 82 81 74 79 87 88 84 88 91 94 90 89 92 87 83 78 74 70 72 69 73 73 75 82 77 75 75 75 81 74 58 61 64 63 62 66 66 70 73 72 71 72
93 89 84 79 79 77 85 87 93 94 98 94 91 94 93 94 96 94 95 95 90 92 93 93 90 84 82 84 84 79 74 74 75 66 70 66 65 66 68 69 68 69 73
93 90 87 84 79 79 90 89 87 94 92 90 97 98 99 99 99 99 98 99 99 96 93 95 93 92 90 88 84 82 84 86 77 74 70 73 68 67 70 65 66 71 74
72 91 95 92 90 84 87 87 96 96 94 98 98 98 99 99 99 99 99 99 99 98 97 96 95 90 87 80 80 80 78 80 80 83 73 75 74 72 70 67 65 68 76
56 58 61 85 91 92 93 94 87 88 87 96 97 99 98 99 99 99 99 99 98 96 93 94 91 87 85 85 84 84 81 76 76 80 90 83 83 76 72 70 69 72 79

GFSSE_sfc_rhum_096.txt.gz
RH
52 57 84 79 77 77 74 78 80 80 79 83 80 78 77 80 78 76 73 71 77 77 67 68 72 70 72 68 71 77 78 81 82 80 80 80 78 75 75 71 68 49 72
48 61 84 79 75 75 75 81 83 84 82 83 80 78 77 78 76 74 71 69 72 72 66 70 67 67 69 70 72 75 78 80 81 82 85 83 80 73 76 72 74 63 71
50 60 61 79 81 80 79 82 84 82 82 82 79 80 79 78 76 72 69 67 68 67 68 72 73 68 73 73 72 73 78 78 78 76 75 44 51 68 65 70 75 72 72
50 59 56 84 82 81 80 81 82 81 83 81 81 81 80 78 74 71 68 68 71 72 71 68 69 76 76 75 70 67 71 72 70 66 36 35 37 67 67 66 63 64 72
52 53 58 85 83 82 80 80 80 81 83 82 81 83 80 78 72 69 72 74 70 79 75 78 78 76 76 72 67 66 68 72 68 52 42 44 40 57 65 64 61 68 73
51 51 78 86 84 83 84 82 80 80 82 81 83 83 81 77 70 70 75 77 78 82 81 78 79 78 77 73 70 70 73 73 69 44 45 50 48 62 62 63 67 67 70
54 54 64 85 85 86 84 82 81 81 80 81 82 79 77 77 70 74 80 82 82 83 80 78 79 79 78 75 72 72 75 73 42 44 46 46 53 63 63 63 63 63 65
55 59 61 85 87 87 83 81 81 80 81 82 82 79 76 79 76 77 79 82 82 80 79 76 77 76 77 76 74 75 76 75 49 45 47 47 67 64 64 64 64 64 63
56 56 64 65 73 88 85 82 81 81 81 82 79 77 84 82 73 81 82 82 80 80 80 80 76 74 74 75 76 77 79 75 43 45 43 45 73 63 65 65 64 64 65
64 56 70 60 52 54 67 87 84 84 84 81 81 85 83 80 81 83 84 85 83 83 83 81 75 71 70 70 72 75 81 80 41 48 44 49 74 64 64 65 64 64 65
74 66 65 53 46 45 54 72 84 88 86 82 84 87 81 52 56 65 76 85 87 85 81 78 74 72 74 76 72 72 76 38 35 38 41 73 74 66 66 66 66 65 64
86 86 68 50 46 51 57 67 59 53 51 47 54 52 46 48 47 50 76 91 89 87 85 76 74 74 71 37 44 67 38 37 35 36 38 74 74 72 66 73 73 71 68
96 94 72 50 46 48 56 68 67 51 43 42 47 48 46 48 58 54 56 59 56 80 49 59 57 41 41 40 42 38 39 39 35 37 44 68 75 72 70 66 71 77 76
96 96 82 59 50 45 53 56 66 69 50 48 44 44 48 49 51 47 46 48 48 44 43 43 38 39 42 46 43 40 41 41 38 38 44 71 70 68 70 69 68 70 73
95 99 89 74 62 57 52 50 58 65 62 57 57 51 45 47 47 47 46 47 47 48 47 45 47 47 47 47 45 43 42 40 39 39 40 76 76 73 70 70 69 68 69
90 98 96 81 71 62 58 57 51 57 63 70 68 61 55 52 50 53 53 56 53 52 49 47 48 50 47 45 44 43 42 42 41 43 42 45 80 79 76 73 71 69 68
86 94 96 84 76 61 60 59 61 56 57 69 69 64 60 59 59 62 64 63 56 53 49 50 48 46 47 48 47 46 45 42 43 40 40 41 51 88 83 76 74 73 73
83 95 92 80 81 64 63 61 62 64 63 60 59 66 65 63 64 68 67 58 53 53 51 49 46 45 45 47 45 44 46 44 42 40 41 38 41 42 68 82 80 79 76
75 86 88 80 71 62 68 68 66 68 64 61 57 58 65 68 66 68 65 58 57 54 52 52 46 43 46 49 50 48 47 44 42 42 42 43 45 48 46 71 87 84 82
77 73 71 76 65 68 72 72 66 64 64 63 68 59 60 62 69 71 65 57 54 53 49 49 44 45 49 51 50 49 46 44 41 42 44 42 44 52 51 53 53 58 84
85 77 66 72 71 72 81 74 71 72 75 72 68 62 59 61 59 66 67 59 56 55 50 48 49 54 57 54 55 48 46 43 44 47 45 44 49 53 55 56 53 55 67
89 86 84 67 68 76 78 66 59 67 74 73 75 72 68 61 66 69 70 66 60 57 56 56 60 64 53 56 56 62 55 42 44 49 48 48 50 50 54 60 59 62 63
97 88 80 74 72 73 81 81 70 74 83 82 80 74 74 79 79 82 80 88 82 72 79 86 87 81 76 71 70 62 56 48 54 41 53 50 50 49 53 58 59 60 61
91 86 80 80 70 73 89 83 76 76 75 82 83 88 95 89 94 98 96 98 99 99 96 91 89 84 75 76 72 67 65 59 52 48 49 54 53 52 55 53 54 58 59
88 87 83 77 76 80 81 93 90 94 95 91 95 97 98 99 99 99 98 99 99 100 99 97 96 91 81 71 66 56 51 54 57 58 52 48 55 56 56 55 55 56 60
73 81 88 80 78 75 73 74 92 93 92 93 95 96 98 98 98 99 99 98 99 99 98 98 93 91 88 84 80 73 59 54 53 58 59 60 62 58 63 60 61 60 62

GFSSE_sfc_rhum_099.txt.gz
RH
48 66 84 80 78 77 75 74 75 76 84 83 80 78 77 79 77 75 74 75 77 71 72 72 73 69 65 73 77 77 77 77 77 78 82 80 78 74 70 71 69 60 74
46 60 84 81 77 77 74 79 82 81 86 83 81 78 78 79 76 72 73 78 73 68 73 70 68 68 69 72 76 76 78 79 80 81 83 81 80 74 69 75 78 66 75
58 60 64 82 81 79 79 83 84 83 86 84 82 80 78 78 76 72 72 76 71 68 72 65 68 69 70 72 75 78 78 77 74 72 74 45 60 69 66 72 77 75 75
59 59 58 82 82 81 81 84 84 83 83 83 83 82 80 78 74 71 70 72 73 74 74 72 73 74 74 69 69 71 69 65 60 62 36 34 40 68 68 66 70 73 74
64 57 59 84 83 82 82 83 82 83 84 81 83 82 81 77 71 69 72 75 77 73 70 76 77 76 72 67 66 65 65 63 65 52 43 46 46 58 66 66 65 73 76
64 55 80 86 85 84 84 83 81 83 82 82 82 84 83 78 72 73 71 78 74 81 80 77 77 76 71 70 69 68 68 67 74 42 45 52 55 62 62 65 68 70 72
60 65 64 86 85 85 84 83 84 84 83 82 83 82 80 76 71 76 74 77 80 82 79 78 78 78 75 72 70 70 69 70 40 44 46 51 59 64 63 64 63 62 62
58 66 60 82 86 87 84 84 85 84 82 82 84 83 80 77 74 68 70 78 81 80 78 78 78 78 76 73 73 73 70 73 46 43 47 55 69 65 65 65 65 64 64
57 61 62 64 73 89 86 86 88 87 86 86 85 86 81 81 80 80 80 80 81 81 78 78 77 76 76 76 75 75 74 76 49 44 41 52 72 63 64 65 65 65 65
92 66 65 60 61 62 66 88 88 88 89 88 87 86 86 83 86 84 83 83 80 82 84 79 75 73 73 74 74 75 80 79 42 46 44 60 68 63 63 64 64 64 64
93 92 75 67 56 47 48 68 86 90 90 89 84 87 76 58 66 73 78 85 86 87 84 79 74 73 77 76 73 74 78 42 34 38 42 77 74 66 66 65 64 64 64
93 93 90 73 46 42 45 57 50 56 59 52 54 53 47 49 51 52 76 90 88 88 85 78 74 73 72 40 48 67 46 36 35 37 48 75 70 71 67 70 72 70 68
94 95 93 86 51 44 51 50 42 45 43 43 48 47 40 41 52 56 67 68 70 86 62 66 64 48 38 36 39 37 37 38 36 38 58 75 72 69 69 69 69 74 77
95 93 91 94 49 64 53 50 41 36 38 42 46 40 41 44 50 48 51 53 52 54 43 44 41 38 39 39 38 38 40 43 40 40 53 71 68 65 66 69 71 71 71
95 94 91 96 51 54 70 72 47 38 37 38 43 42 43 45 44 44 43 45 46 41 41 41 39 38 37 38 41 42 41 39 37 39 42 78 75 71 69 68 69 70 70
80 91 94 95 57 47 66 70 72 48 40 44 43 43 40 42 44 46 44 46 46 47 44 42 41 43 42 42 41 40 39 39 39 41 42 53 82 78 76 74 72 71 67
75 91 94 95 75 54 50 54 65 70 56 53 54 48 46 48 47 50 51 55 53 50 46 52 42 43 42 42 44 42 42 40 41 38 39 42 58 86 82 74 73 74 75
81 90 94 88 90 70 58 57 50 52 59 62 56 56 53 53 54 58 62 61 56 54 55 52 45 45 43 43 44 43 44 43 41 38 39 40 44 42 75 80 78 76 77
75 86 91 90 79 82 68 58 56 56 57 58 60 64 65 59 59 63 62 60 55 57 55 50 45 42 43 47 47 46 56 46 41 37 39 42 44 48 50 75 83 83 80
73 76 80 87 83 86 72 72 59 61 60 56 57 58 61 62 64 62 60 59 56 61 60 50 48 43 45 50 54 48 47 45 46 43 41 40 43 51 53 57 59 79 84
80 78 73 77 80 81 78 84 72 66 68 71 69 60 55 58 62 64 66 61 64 60 56 48 48 49 56 53 63 52 49 46 44 49 47 44 46 51 53 56 57 66 75
81 75 73 75 86 78 80 81 80 80 79 75 73 68 65 60 63 67 68 68 66 67 61 56 54 65 69 67 59 62 62 46 47 48 48 47 47 52 52 56 59 66 75
87 81 79 83 81 76 75 74 76 76 81 84 79 72 71 69 74 76 75 77 80 79 87 79 77 79 83 81 74 60 60 55 52 45 51 49 49 51 54 58 61 62 65
98 97 95 94 86 88 84 81 75 83 85 77 77 82 87 82 83 83 82 81 84 93 97 95 94 89 81 82 80 64 62 56 58 53 54 54 53 51 54 57 57 62 62
98 98 97 95 90 92 87 82 86 85 86 86 86 84 85 89 85 87 87 93 96 98 98 98 99 99 95 84 77 69 56 60 58 65 61 57 60 57 58 59 60 61 63
96 97 95 86 80 78 79 82 91 90 94 96 96 95 95 96 94 97 96 98 97 97 98 98 98 97 96 88 80 78 73 69 68 70 66 60 60 59 66 64 67 65 68

GFSSE_sfc_rhum_102.txt.gz
RH
71 82 85 80 78 77 76 75 76 83 86 84 79 79 78 80 80 78 74 74 75 74 73 74 67 68 75 76 74 72 75 76 78 77 83 82 76 70 72 73 78 72 75
67 77 84 82 78 78 76 78 80 84 87 84 82 78 77 79 75 74 76 75 71 73 72 71 65 68 72 74 73 74 78 79 79 82 80 81 81 75 74 78 80 74 76
69 73 78 84 82 81 80 84 84 84 87 84 82 79 78 79 75 75 78 74 72 72 69 68 68 70 73 73 75 78 76 74 72 78 80 75 77 72 69 77 80 76 75
64 74 72 85 83 80 83 84 87 83 87 84 82 82 81 77 73 76 77 76 76 74 71 70 71 72 70 74 73 70 64 58 66 71 53 53 61 68 67 73 74 73 75
69 65 71 85 83 82 84 84 85 85 86 84 83 83 82 79 72 74 76 77 80 80 79 76 75 73 68 67 64 59 59 65 73 60 64 68 71 63 70 72 74 76 74
70 64 84 86 84 85 86 86 85 85 83 84 84 83 82 78 74 76 78 81 77 81 80 77 75 70 70 69 66 63 66 69 75 60 68 70 72 63 63 64 67 70 72
68 79 78 86 86 86 86 86 86 85 85 83 84 82 80 78 77 77 77 70 82 84 79 77 75 73 72 70 67 66 68 77 61 64 70 77 73 64 64 65 64 62 62
71 77 74 86 87 86 87 86 86 86 84 84 84 84 81 77 77 65 64 64 80 80 78 78 78 76 75 73 71 69 74 78 60 64 74 82 75 66 66 66 66 66 66
91 79 83 84 86 89 88 88 87 87 85 84 84 84 80 75 66 65 66 74 76 79 81 81 79 78 77 75 75 74 78 79 82 61 62 80 74 65 66 67 67 67 68
93 92 93 90 80 84 92 89 93 90 88 86 86 88 88 80 79 75 74 80 77 84 84 83 78 77 77 78 78 81 79 80 76 58 73 83 70 64 64 65 66 65 66
93 93 91 92 91 76 77 86 92 94 92 91 91 89 82 66 71 74 80 82 81 86 86 81 76 76 80 79 77 77 78 75 63 60 75 83 73 66 66 66 65 65 65
96 93 96 93 90 88 61 88 92 86 87 82 79 66 64 65 68 64 87 88 85 87 87 82 78 79 77 73 78 75 74 66 54 58 78 78 70 71 68 70 72 70 68
90 95 92 89 89 87 85 74 72 96 90 89 74 64 63 67 75 83 88 86 90 92 91 87 86 78 70 64 65 63 60 56 60 58 75 78 70 67 69 71 70 74 78
94 92 93 94 91 88 91 58 57 67 90 79 70 59 54 66 72 79 83 89 91 91 86 86 79 68 62 54 58 56 54 58 59 60 76 80 75 67 66 68 71 73 73
95 94 96 94 94 91 91 54 51 52 48 56 58 58 55 64 71 67 72 73 72 73 72 70 62 56 53 52 55 58 58 58 56 59 68 82 77 74 67 66 67 68 70
90 92 94 96 95 91 93 78 56 44 52 59 55 56 59 64 68 67 66 67 66 64 61 60 58 61 56 58 57 58 57 58 57 57 67 74 84 79 77 72 71 70 70
88 93 93 97 97 98 92 85 86 61 46 58 61 55 55 62 64 66 66 70 70 68 63 62 61 61 61 59 63 59 59 57 52 50 52 62 78 87 83 74 72 71 72
92 90 91 85 93 91 92 89 82 83 63 60 59 62 59 59 64 72 80 80 75 72 72 70 68 65 63 61 66 64 60 61 57 55 54 51 59 63 83 82 79 74 73
86 86 89 86 84 84 80 93 92 85 86 65 73 64 68 67 68 78 82 80 73 75 74 69 66 62 62 64 64 62 59 58 53 50 55 54 64 66 69 83 84 84 80
85 84 89 83 78 80 82 83 79 86 91 88 82 77 72 68 74 80 80 78 74 76 75 70 67 61 59 65 56 58 58 61 62 65 64 54 63 67 72 70 84 93 85
87 91 87 90 85 86 88 91 86 88 83 85 80 76 76 74 70 78 80 76 76 76 74 66 66 63 67 71 71 72 70 63 65 64 64 65 66 67 70 73 87 92 89
92 91 89 91 93 91 90 90 95 88 87 86 84 80 77 77 84 80 82 82 76 80 77 71 66 76 80 83 82 81 81 69 71 62 68 63 67 69 72 74 80 87 84
94 94 82 87 91 90 84 84 90 88 96 92 91 86 81 76 81 84 86 89 88 87 89 90 88 88 92 94 90 88 81 76 70 73 71 68 68 73 79 78 78 75 79
98 96 90 80 92 93 93 90 90 91 89 92 94 96 96 93 91 90 91 91 94 97 96 97 94 96 94 97 94 80 74 70 71 63 71 70 67 66 74 76 81 79 83
98 99 99 96 95 96 92 93 95 88 91 96 94 96 96 96 95 96 95 95 96 98 98 98 99 98 97 96 95 89 70 69 71 75 74 77 72 70 70 77 79 83 80
99 99 99 98 96 95 96 96 96 93 93 95 97 98 98 98 98 98 97 98 98 99 98 98 96 95 96 95 95 87 77 74 76 74 78 73 71 72 77 81 84 90 85

GFSSE_sfc_rhum_105.txt.gz
RH
90 86 85 80 78 77 76 76 83 86 85 83 80 79 80 80 78 74 73 76 77 77 74 67 74 75 72 68 71 75 78 76 79 80 82 82 77 74 75 78 79 75 74
85 84 86 83 79 78 77 79 84 89 86 84 81 77 79 82 77 75 73 76 75 75 70 67 73 72 72 68 75 77 76 75 76 82 82 85 82 77 78 78 81 75 76
83 81 80 84 84 82 80 81 84 89 87 84 83 78 78 80 75 76 73 76 73 70 67 68 69 73 70 70 78 78 76 74 73 78 82 81 79 75 77 77 80 77 76
80 81 82 86 85 81 81 82 83 85 88 86 83 82 80 77 76 79 75 76 74 71 70 71 73 75 76 77 74 69 61 66 76 70 65 70 67 70 73 76 76 72 76
82 80 82 86 85 82 84 85 84 84 88 86 83 84 82 78 78 78 79 80 79 78 76 73 72 70 71 67 61 61 66 72 74 69 75 78 78 70 73 75 74 74 73
81 80 88 87 86 86 88 86 86 83 86 86 84 84 82 80 78 78 81 84 85 83 79 76 69 69 69 66 64 66 69 74 71 77 82 76 76 62 63 64 66 66 64
83 86 85 86 86 87 88 88 88 86 85 86 85 83 81 79 79 81 84 83 85 84 78 72 70 71 71 68 66 67 71 78 70 80 84 83 75 65 65 65 65 64 64
87 86 82 88 89 87 88 88 88 87 86 85 84 84 81 80 80 80 76 80 84 80 77 75 74 74 72 70 68 68 74 79 70 81 86 88 76 66 67 67 67 67 68
92 91 92 90 87 90 91 90 88 87 87 85 85 85 82 81 80 72 70 79 83 81 82 79 77 76 75 73 71 73 77 80 77 77 72 85 75 66 67 68 68 68 68
93 89 91 90 84 90 94 91 91 87 90 87 88 87 87 82 77 68 72 76 82 86 86 85 80 79 79 79 76 79 79 80 78 74 80 85 70 64 65 66 66 66 67
97 95 92 90 86 86 80 90 96 94 92 92 91 91 84 66 66 69 73 81 83 87 86 82 80 80 84 82 78 76 78 78 80 80 85 81 71 66 66 66 65 66 65
98 99 97 94 90 87 70 85 96 93 94 88 85 78 68 70 68 60 81 84 83 88 88 82 80 82 80 82 82 77 77 74 67 80 85 83 73 70 70 72 72 70 69
94 98 97 96 95 94 90 88 90 99 96 91 78 69 71 70 74 78 86 86 89 88 96 92 91 87 85 77 72 72 65 66 68 78 77 79 72 66 70 72 73 76 78
92 96 97 95 94 95 96 86 79 93 96 94 80 70 73 82 81 81 78 87 87 96 97 96 97 86 77 69 68 68 63 60 68 70 84 83 77 67 67 68 71 74 76
94 95 96 96 94 93 91 83 81 88 97 88 89 73 66 75 82 88 90 83 97 97 96 97 91 80 72 61 58 61 61 61 64 70 75 86 81 76 68 66 66 68 69
95 97 97 97 92 89 89 90 79 74 92 91 89 87 67 69 78 84 83 86 88 86 85 82 77 69 62 58 58 60 59 66 64 67 69 73 84 78 78 71 69 69 69
95 95 95 94 92 93 91 95 90 59 64 71 66 65 63 66 73 76 77 80 78 74 72 70 65 68 70 65 66 63 61 62 62 52 61 62 73 88 84 74 71 70 71
96 97 92 86 95 94 96 95 95 76 54 60 58 56 60 62 65 69 70 74 76 75 75 74 74 73 73 70 69 66 65 62 64 58 62 68 69 71 87 83 79 74 73
96 94 92 94 93 91 90 96 93 86 77 59 63 61 61 64 65 76 79 84 79 78 79 75 75 71 70 68 67 67 67 61 59 50 56 65 71 74 78 85 86 84 80
94 91 92 94 90 89 89 90 96 88 93 89 74 68 68 70 73 84 85 83 80 82 80 80 74 71 67 66 60 62 67 62 62 68 66 65 73 76 77 81 94 96 88
94 92 90 92 88 88 93 97 98 95 91 96 93 77 73 74 76 84 87 85 81 79 80 74 73 70 69 75 81 74 70 65 69 70 70 73 75 76 78 91 97 97 96
94 92 87 85 87 83 87 90 92 94 94 91 94 89 87 76 82 85 86 86 86 85 82 78 72 78 78 88 85 87 83 72 74 70 73 69 77 79 80 85 94 95 96
97 97 93 90 93 88 90 93 92 87 91 92 89 93 90 88 88 85 88 91 90 89 91 89 87 86 93 96 91 86 88 78 77 76 75 73 74 82 85 86 87 86 90
97 97 98 98 92 95 92 94 92 94 92 96 96 95 94 88 90 91 91 92 93 96 95 96 96 95 94 96 98 86 84 77 72 76 74 73 70 77 85 85 89 87 89
96 96 96 98 97 98 97 97 96 94 97 98 98 99 98 99 98 97 97 97 97 98 98 97 99 98 98 97 97 97 83 79 77 74 73 76 76 74 82 83 91 92 85
97 98 98 98 99 98 97 97 96 93 95 96 98 99 99 99 98 96 96 98 98 99 99 98 98 98 98 97 96 89 83 74 74 76 78 74 81 81 79 79 89 92 87

GFSSE_sfc_rhum_108.txt.gz
RH
94 94 85 80 78 80 83 84 86 86 85 82 80 79 79 78 72 71 78 77 77 72 66 71 72 65 68 69 76 76 78 78 77 80 83 83 78 76 77 79 78 77 75
86 88 86 82 78 78 81 86 89 89 87 85 77 78 80 77 72 75 77 79 79 69 73 72 70 66 69 73 74 75 75 75 77 81 85 88 85 78 78 78 81 76 77
86 86 84 84 83 82 82 84 90 89 87 85 81 78 79 76 75 75 78 77 75 69 70 69 69 65 74 76 78 76 74 74 75 79 82 84 86 78 76 78 80 77 76
84 84 84 87 85 82 81 80 86 89 87 85 84 83 80 78 76 75 77 74 71 69 70 72 69 68 78 78 72 63 67 69 74 75 78 79 73 74 74 74 72 73 73
87 83 85 88 86 82 83 81 81 87 88 87 84 84 83 79 78 75 78 79 78 77 74 74 75 77 75 70 64 68 68 70 76 73 81 82 84 71 72 72 72 71 70
90 89 90 89 87 86 88 87 81 85 88 86 85 84 83 81 80 79 83 81 81 80 76 72 72 70 66 68 68 70 71 74 79 87 89 78 76 63 63 65 64 64 64
91 92 89 89 87 90 88 88 86 84 87 86 84 82 82 80 82 81 86 87 85 83 75 70 70 69 68 69 68 72 72 79 80 89 88 85 77 65 65 65 65 66 67
91 91 88 89 88 89 89 89 90 89 87 87 86 84 83 82 84 86 87 87 84 78 72 71 71 70 69 69 68 72 79 76 78 89 91 91 76 67 68 68 68 69 70
94 95 97 92 89 92 91 92 91 89 88 88 87 86 84 84 85 85 84 86 81 78 76 75 74 73 72 71 70 73 82 81 87 86 80 90 77 67 68 69 69 69 69
96 96 95 92 88 89 98 92 92 90 89 90 89 86 90 89 88 83 85 85 84 85 84 83 78 77 76 75 75 74 78 81 85 81 85 89 71 65 66 68 68 67 68
96 96 93 92 91 82 79 85 95 94 94 92 91 93 91 74 81 75 79 88 87 89 88 84 82 84 86 83 78 77 78 81 84 86 89 82 70 65 66 67 67 67 67
98 98 93 93 93 91 77 84 83 88 99 96 94 90 78 66 64 61 77 86 86 88 89 84 83 85 85 90 88 81 78 76 72 87 89 84 72 69 70 71 71 70 70
96 95 98 94 94 91 93 93 89 91 95 99 95 80 74 74 70 70 82 75 90 94 97 94 94 94 89 81 78 75 67 69 72 83 80 84 76 69 72 74 76 78 78
98 98 98 98 97 95 94 92 84 90 94 97 91 78 82 87 78 81 83 85 88 98 97 97 98 94 86 77 77 73 67 68 72 78 84 86 80 68 67 70 73 75 76
93 96 98 97 96 95 93 92 76 87 94 95 92 78 76 81 85 73 75 82 85 98 98 98 97 94 86 78 72 72 69 66 70 70 80 89 84 79 72 68 66 68 69
93 95 97 98 97 96 96 96 77 75 89 96 96 85 75 77 79 79 76 82 87 98 98 97 97 92 82 75 67 69 67 67 68 68 70 75 86 82 78 69 67 68 68
95 94 96 96 94 96 94 92 85 71 84 92 96 88 75 78 78 77 76 81 94 96 95 93 91 80 75 66 67 65 68 68 68 68 69 68 70 91 84 73 71 70 70
96 97 95 88 96 94 93 92 89 81 80 90 96 95 83 76 74 79 80 81 87 88 85 85 82 78 79 78 74 72 69 68 66 67 60 75 78 76 87 85 79 74 72
96 97 96 93 96 93 95 93 91 88 85 78 93 96 94 83 74 78 78 81 81 79 78 75 81 77 80 77 74 73 74 72 68 58 64 76 80 81 82 85 86 86 80
96 97 96 97 93 96 94 96 95 94 93 89 80 75 68 65 68 71 74 76 74 77 78 83 77 79 75 72 62 66 74 75 67 63 64 70 78 82 84 90 95 97 93
98 98 97 98 94 97 97 96 98 96 96 92 88 69 66 65 70 73 73 77 78 78 80 80 79 76 77 75 82 81 81 74 74 67 71 80 82 81 88 95 98 98 98
95 96 95 95 92 94 94 93 94 93 96 92 88 86 82 75 77 82 78 84 84 85 85 80 81 84 81 88 88 89 88 76 77 76 76 78 82 83 91 95 95 96 97
97 96 93 95 93 88 90 94 98 99 98 98 91 85 75 80 81 85 89 90 92 90 89 90 88 86 92 96 92 91 93 87 88 81 81 79 86 90 93 96 97 94 96
95 96 92 92 92 90 93 92 94 94 94 96 95 94 93 93 88 88 89 93 93 95 96 93 94 92 95 96 98 95 93 79 80 86 82 80 75 85 86 89 87 91 88
96 98 98 97 94 92 96 96 93 94 96 96 97 97 97 99 97 96 94 95 96 98 97 98 99 98 98 98 98 98 96 94 89 82 87 86 78 77 79 84 88 89 87
96 98 98 97 98 96 98 99 98 94 95 97 98 97 98 99 99 99 99 99 98 99 99 98 98 99 99 98 94 96 88 86 84 82 78 83 82 82 85 87 92 90 92

GFSSE_sfc_rhum_111.txt.gz
RH
97 95 86 81 83 84 83 82 84 84 84 81 76 79 79 76 73 75 74 74 72 68 65 64 65 67 68 74 76 78 76 78 80 83 84 83 78 76 76 79 80 78 76
90 90 86 83 82 84 85 86 88 88 86 83 74 75 78 73 73 78 76 72 70 70 76 70 65 66 66 70 73 76 75 77 79 83 88 90 86 78 77 78 81 77 76
87 84 84 84 84 86 87 88 89 89 87 84 78 75 76 71 74 78 80 80 72 74 71 70 66 67 70 74 74 74 73 76 78 80 82 88 88 77 77 78 78 75 74
86 85 83 86 84 83 84 87 90 88 86 84 82 80 79 74 77 79 79 77 74 72 68 67 71 74 78 73 66 66 67 71 76 80 85 85 77 70 69 68 72 70 72
89 86 86 88 86 84 82 85 88 89 87 86 84 83 82 78 77 79 77 78 75 77 68 71 75 79 77 67 69 68 69 72 77 78 86 88 88 67 68 71 69 67 66
94 93 91 89 87 86 86 84 86 87 86 87 85 84 84 81 78 79 82 82 81 81 76 75 78 76 69 72 71 68 70 74 81 91 91 79 80 64 66 65 66 65 66
96 96 92 89 88 89 90 87 84 87 87 86 85 82 81 80 80 82 84 84 83 79 74 74 71 67 69 72 72 71 76 79 88 92 90 88 80 64 65 66 67 68 68
96 95 90 90 89 91 89 91 87 88 89 87 86 85 83 82 83 85 84 85 81 76 71 70 67 67 71 71 72 74 79 80 82 92 92 91 77 66 68 69 70 70 70
97 96 97 95 92 93 92 93 91 88 90 88 87 87 85 86 86 85 85 84 79 75 72 72 70 70 71 71 72 79 81 84 92 93 85 93 78 67 68 69 69 69 69
98 98 98 97 96 98 97 94 94 93 92 91 89 91 92 91 89 88 90 86 83 80 81 80 74 74 75 75 76 80 83 85 90 89 90 92 73 66 67 68 68 68 68
98 96 97 96 93 90 92 89 96 95 94 93 95 93 96 89 89 90 91 90 87 86 86 82 79 81 85 82 77 77 81 85 90 89 90 83 71 66 67 68 68 67 67
97 97 97 94 91 87 78 83 86 95 98 98 96 96 94 88 82 77 90 92 92 91 90 86 86 89 88 93 90 82 83 83 83 91 89 84 71 67 68 70 70 70 69
92 96 96 96 91 88 89 93 93 90 98 99 97 96 92 74 73 72 86 82 88 94 98 95 95 97 92 88 82 78 74 75 79 87 80 86 76 68 71 75 77 77 77
97 95 96 98 96 92 95 92 87 90 89 96 96 96 93 81 68 72 80 79 82 92 96 98 98 95 91 85 84 78 73 72 77 84 87 88 84 71 69 72 75 77 78
98 96 97 97 98 98 97 97 80 89 91 89 94 91 90 77 76 72 85 82 85 92 93 97 98 97 94 84 78 77 76 78 75 77 86 87 88 82 73 69 68 68 69
93 95 96 96 96 96 97 96 88 78 86 94 94 90 84 75 77 76 81 88 86 90 97 93 98 97 94 85 79 75 74 75 72 73 75 78 88 85 80 71 67 67 68
92 92 96 94 95 96 95 96 97 76 81 97 95 89 83 81 78 74 79 82 83 90 93 94 97 95 93 82 80 70 72 74 72 71 70 74 75 87 84 73 71 71 72
86 95 92 87 94 94 95 96 96 93 75 92 97 93 92 93 86 84 78 79 87 92 97 94 97 95 88 84 77 75 73 72 70 71 71 74 74 74 87 84 80 75 73
88 94 96 95 95 93 95 96 96 93 92 81 96 94 91 94 93 87 90 82 86 90 95 93 94 88 87 84 82 78 77 77 74 68 73 76 79 83 87 83 85 87 80
87 96 96 96 95 97 95 94 96 95 95 92 92 96 89 94 96 98 93 82 82 84 87 90 86 85 82 79 69 69 76 78 81 76 72 76 80 82 87 91 94 97 94
89 98 98 98 96 96 97 94 93 97 96 96 94 89 89 90 95 98 93 90 83 80 80 78 80 80 83 81 79 80 85 82 78 76 77 80 84 86 89 94 98 98 97
90 95 97 96 95 92 95 97 96 97 95 94 94 93 91 91 90 88 89 81 78 79 79 79 81 88 85 89 87 93 90 83 80 77 79 80 89 90 95 96 96 96 97
94 97 96 94 96 95 96 97 99 98 98 98 98 94 92 87 92 89 91 88 85 83 86 89 88 88 92 93 91 89 94 92 90 82 82 80 87 94 96 97 96 95 96
95 94 94 96 96 95 96 98 96 96 96 96 96 94 92 88 91 90 90 88 89 91 95 92 93 92 92 93 97 97 94 84 86 87 87 85 85 90 94 93 95 91 90
96 97 95 95 96 95 96 94 96 97 96 98 99 98 97 98 96 90 89 88 91 93 95 96 98 97 96 96 98 98 98 98 96 91 89 86 82 86 86 88 88 88 87
96 99 98 97 98 95 95 96 96 94 96 97 99 99 99 99 99 99 99 98 98 98 98 99 99 99 98 97 98 98 96 96 96 96 90 88 91 88 86 88 91 90 91

GFSSE_sfc_rhum_114.txt.gz
RH
97 96 87 83 83 83 83 81 83 85 85 80 79 78 80 77 73 73 72 71 71 68 63 63 62 65 72 73 73 74 77 78 81 84 85 83 77 73 78 79 80 79 76
94 95 87 85 85 85 84 85 86 87 85 82 78 76 77 73 74 76 72 68 67 66 67 65 65 72 68 70 74 75 77 80 83 87 90 89 85 78 78 78 81 77 76
94 92 85 85 87 86 86 86 89 87 85 80 77 73 75 74 76 76 71 70 72 76 67 66 65 61 73 71 73 73 76 79 80 83 86 92 88 78 77 76 77 70 69
90 90 88 87 88 86 87 87 88 87 86 82 74 79 75 72 76 79 76 74 74 75 72 68 69 72 75 73 71 70 71 76 80 84 89 88 76 70 68 68 66 70 67
95 91 88 87 87 87 88 88 87 87 86 84 82 82 80 75 77 80 80 78 78 74 71 74 76 78 70 71 70 69 70 75 80 82 90 92 89 70 71 69 66 65 66
97 95 92 88 87 87 89 90 89 86 83 84 84 84 82 80 79 81 81 82 80 76 75 77 79 75 71 73 70 70 72 75 81 91 91 83 82 66 65 66 66 67 67
96 97 94 89 88 87 87 89 90 89 87 86 84 81 80 80 82 82 84 85 84 78 75 78 78 70 74 74 70 72 75 81 91 92 90 88 80 64 65 67 69 69 69
92 97 95 91 90 90 88 86 89 90 89 88 87 84 82 82 82 84 83 84 80 77 77 76 71 69 73 74 72 76 79 82 84 92 91 91 78 66 68 69 70 70 69
95 94 98 96 95 94 92 92 88 90 92 90 89 87 85 84 84 85 84 82 77 75 73 72 68 72 73 73 76 81 82 84 93 95 86 94 79 66 68 69 69 68 69
94 98 99 98 98 97 97 94 94 91 94 92 91 92 91 90 89 87 88 84 82 79 78 78 74 73 76 77 79 84 84 86 91 92 94 95 74 66 67 68 67 67 68
92 94 99 99 99 98 97 95 94 95 94 94 94 96 96 95 93 95 92 90 85 82 83 80 78 80 84 82 81 82 86 93 91 91 94 83 74 65 66 68 67 66 67
91 94 96 97 98 95 83 94 97 96 97 97 97 97 98 96 96 90 94 93 88 88 88 84 83 88 89 95 92 82 88 88 90 93 90 81 76 66 67 69 70 69 69
92 95 93 94 95 95 92 93 98 99 98 99 98 98 98 96 95 88 93 93 97 97 98 95 96 98 95 93 89 85 83 84 85 86 84 82 78 69 68 72 73 74 74
91 95 93 93 96 93 94 92 88 97 97 98 97 97 98 98 94 82 93 96 98 98 98 99 99 97 94 89 84 80 74 74 80 80 91 85 82 75 69 72 75 77 78
91 95 96 94 97 95 96 93 83 92 95 94 95 94 94 90 82 73 92 95 95 98 98 98 98 95 94 91 85 84 82 81 80 79 90 88 87 83 75 70 69 69 68
84 95 96 95 96 97 98 97 95 89 91 94 95 96 89 88 77 74 79 84 97 98 97 96 96 97 96 92 82 82 80 82 81 77 79 83 85 87 80 74 70 67 67
69 91 96 96 94 97 96 96 98 92 86 97 97 94 90 89 86 78 81 90 92 92 93 96 95 97 97 90 89 82 78 79 78 75 74 77 78 85 86 73 72 70 71
71 87 93 87 94 95 95 96 97 96 88 97 97 98 92 85 84 84 85 88 90 92 88 92 95 98 97 96 91 83 76 75 77 77 75 76 78 74 84 83 82 77 75
65 71 92 95 95 94 94 97 97 95 97 88 98 97 93 90 88 88 88 89 94 93 90 89 94 91 96 94 87 83 80 80 77 71 75 76 79 82 83 84 89 83 80
66 78 88 97 95 96 97 98 99 98 98 98 93 97 92 93 92 94 92 94 95 97 95 90 90 91 90 88 74 74 81 81 82 83 79 73 80 86 87 90 95 96 90
77 85 93 97 97 97 94 94 98 93 90 93 97 93 90 90 96 96 96 98 98 99 97 88 86 87 93 88 87 85 85 83 83 82 77 81 84 87 89 94 97 97 97
72 86 91 94 95 93 95 95 93 94 92 92 93 91 91 90 94 95 94 94 98 99 96 94 87 88 86 91 90 94 90 82 84 79 79 80 84 91 93 94 96 96 96
87 90 94 91 90 86 94 92 97 98 99 99 97 96 90 92 94 95 94 93 93 97 95 94 93 88 92 95 91 87 95 92 92 86 84 82 90 95 95 96 96 96 95
86 89 92 95 88 87 96 94 92 97 97 98 95 93 95 93 93 93 86 84 89 92 90 90 90 90 91 93 96 96 94 84 88 85 83 89 92 92 95 98 96 94 93
92 96 95 96 95 96 92 94 97 97 97 98 98 98 97 97 95 93 88 88 90 93 92 89 94 93 92 94 95 98 97 97 90 86 87 85 87 85 88 90 93 92 88
96 97 97 97 93 97 98 97 97 97 97 99 100 99 99 99 98 97 97 97 96 97 95 93 96 96 94 95 96 97 96 98 98 98 96 93 87 87 88 92 93 93 90

GFSSE_sfc_rhum_117.txt.gz
RH
77 76 87 85 82 83 81 82 84 86 85 79 80 80 80 77 74 72 70 68 71 68 66 67 74 72 71 72 76 75 76 78 81 83 85 82 78 76 77 78 77 62 74
72 77 88 86 84 85 84 85 86 86 82 82 82 80 77 75 72 71 71 68 67 64 63 61 69 72 70 70 71 75 78 82 84 87 90 87 85 78 78 79 79 67 72
75 75 71 88 86 86 85 87 87 86 85 82 82 78 76 73 74 74 70 69 71 68 64 66 68 63 70 71 74 76 78 81 84 86 86 62 66 78 74 73 74 71 69
76 74 68 90 87 86 86 85 86 86 84 81 80 78 74 74 76 73 72 73 76 73 71 71 65 66 69 74 72 75 77 80 84 84 63 60 55 70 68 69 68 65 65
79 76 73 90 88 86 86 87 86 85 84 81 76 80 79 77 77 76 77 79 81 76 75 71 67 75 72 71 70 69 73 80 83 72 64 63 59 66 68 66 64 66 66
81 76 82 89 88 88 88 90 88 85 85 84 82 83 81 79 78 82 82 82 82 80 78 77 78 72 76 75 71 71 71 78 79 64 64 65 59 64 65 67 68 68 68
84 79 74 90 88 87 90 90 90 88 86 86 85 82 82 80 80 85 85 83 81 80 80 78 76 72 75 75 71 72 73 80 58 60 60 60 58 64 67 69 69 69 69
80 80 75 85 89 89 88 90 91 90 88 88 86 85 84 82 81 85 85 83 80 78 77 77 74 73 74 73 72 75 79 80 63 60 63 63 71 66 68 70 70 69 69
90 82 84 74 78 94 91 89 90 90 90 90 88 87 86 86 85 86 86 84 80 78 77 79 73 74 75 74 78 79 82 84 56 59 61 61 78 67 68 69 69 69 69
86 93 92 82 80 81 81 95 91 90 93 91 92 92 92 91 90 88 89 85 82 82 81 79 76 77 77 79 84 84 84 86 56 64 61 60 76 66 67 68 68 68 69
81 87 92 96 89 86 84 83 95 92 93 95 92 95 92 71 72 80 82 89 85 82 81 79 78 81 84 84 84 84 86 58 55 56 59 79 78 66 67 68 68 67 67
65 78 88 90 95 90 89 87 80 82 78 79 79 79 77 75 73 73 84 92 89 86 86 83 81 85 82 59 60 78 58 60 58 59 56 80 78 67 67 69 70 69 69
56 76 82 88 89 89 86 90 91 93 92 86 81 86 81 83 82 80 76 75 74 86 68 72 72 65 68 63 62 58 57 57 54 58 65 81 76 72 67 70 72 73 73
58 59 78 85 88 86 85 81 81 93 90 88 84 83 86 86 88 86 76 80 76 73 73 74 72 72 72 66 58 55 54 53 51 52 56 86 81 74 70 70 75 77 79
60 61 76 86 87 85 84 78 70 81 89 84 83 82 87 83 82 80 79 83 77 77 73 77 80 74 70 67 56 52 50 47 47 49 51 87 86 80 75 74 70 69 69
48 60 72 86 85 86 87 82 69 68 78 83 85 86 82 84 83 81 80 85 74 80 81 74 78 76 70 63 57 54 52 51 52 53 51 52 86 85 80 74 73 70 67
45 53 69 83 87 88 85 86 81 70 67 76 77 76 86 90 83 69 71 75 83 80 87 88 75 72 74 69 63 56 54 51 53 52 52 53 58 84 85 76 70 72 71
50 52 62 73 87 88 87 86 85 80 70 72 80 76 71 84 87 85 74 74 81 92 86 94 89 76 83 79 73 58 55 55 50 50 53 54 57 55 70 83 82 76 76
47 51 60 70 81 87 86 88 86 83 81 70 77 82 76 74 78 85 84 77 80 90 85 89 93 80 85 82 79 66 59 56 54 50 52 56 58 62 61 74 87 85 83
50 55 57 65 70 82 86 88 89 88 86 84 74 78 78 80 78 88 84 86 83 88 93 92 93 94 87 81 70 66 61 58 60 60 57 58 60 65 65 66 67 74 85
59 57 57 61 71 84 90 90 89 87 85 85 90 80 75 78 78 84 88 92 90 93 92 92 96 95 96 78 74 68 64 60 59 61 63 61 65 66 66 68 66 66 69
61 59 60 66 72 83 87 85 85 85 84 81 87 88 81 78 82 83 88 93 92 94 95 96 95 97 95 92 79 76 72 61 63 64 63 63 63 69 70 71 73 69 71
74 70 62 64 76 83 82 83 89 87 91 93 89 88 87 81 85 86 87 91 91 94 94 91 93 93 95 94 85 79 83 80 80 70 70 65 70 80 78 80 72 76 76
76 76 70 70 77 83 81 90 82 87 91 89 86 86 89 83 90 89 93 88 87 89 91 90 93 92 94 94 95 92 87 72 76 74 67 71 77 80 74 74 75 77 75
77 81 79 78 83 81 83 85 84 86 89 86 89 90 89 90 87 94 93 93 88 85 85 82 88 88 93 91 90 94 91 89 80 88 81 80 80 71 72 76 72 85 88
86 87 89 87 86 83 86 86 86 87 88 94 95 94 94 91 95 95 90 86 86 88 95 93 95 93 90 89 84 83 80 93 93 94 93 89 84 75 77 80 77 89 89